[[{"header":{"parameterUnit":"m.s-1","parameterCategory":1,"la1":30.6,"la2":28.766,"lo1":-90.7593,"lo2":-88.6598,"dy":0.0162,"dx":0.0183,"nx":116,"ny":114,"refTime":"2024-04-14T18:00:00:Z","depth":0,"parameterNumber":2,"parameterNumberName":"U-component_of_WINDS"},"data":[0.0,0.0,0.0,0.0,0.0,0.0,0.0,0.0,0.0,0.0,0.0,0.0,0.0,0.0,0.0,0.0,0.0,0.0,0.0,0.0,0.0,0.0,0.0,0.0,0.0,0.0,0.0,0.0,0.0,0.0,0.0,0.0,0.0,0.0,0.0,0.0,0.0,0.0,0.0,0.0,0.0,0.0,0.0,0.0,0.0,0.0,0.0,0.0,0.0,0.0,0.0,0.0,0.0,0.0,0.0,0.0,0.0,0.0,0.0,0.0,0.0,0.0,0.0,0.0,0.0,0.0,0.0,0.0,0.0,0.0,0.0,0.0,0.0,0.0,0.0,0.0,0.0,0.0,0.0,0.0,0.0,0.0,0.0,0.0,0.0,0.0,0.0,0.0,0.0,0.0,0.0,0.0,0.0,0.0,0.0,0.0,0.0,0.0,0.0,0.0,0.0,0.0,0.0,0.0,0.0,0.0,0.0,0.0,0.0,0.0,0.0,0.0,0.0,0.0,0.0,0.0,0.0,0.0,0.0,0.0,0.0,0.0,0.0,0.0,0.0,0.0,0.0,0.0,0.0,0.0,0.0,0.0,0.0,0.0,0.0,0.0,0.0,0.0,0.0,0.0,0.0,0.0,0.0,0.0,0.0,0.0,0.0,0.0,0.0,0.0,0.0,0.0,0.0,0.0,0.0,0.0,0.0,0.0,0.0,0.0,0.0,0.0,0.0,0.0,0.0,0.0,0.0,0.0,0.0,0.0,0.0,0.0,0.0,0.0,0.0,0.0,0.0,0.0,0.0,0.0,0.0,0.0,0.0,0.0,0.0,0.0,0.0,0.0,0.0,0.0,0.0,0.0,0.0,0.0,0.0,0.0,0.0,0.0,0.0,0.0,0.0,0.0,0.0,0.0,0.0,0.0,0.0,0.0,0.0,0.0,0.0,0.0,0.0,0.0,0.0,0.0,0.0,0.0,0.0,0.0,0.0,0.0,0.0,0.0,0.0,0.0,0.0,0.0,0.0,0.0,0.0,0.0,0.0,0.0,0.0,0.0,0.0,0.0,0.0,0.0,0.0,0.0,0.0,0.0,0.0,0.0,0.0,0.0,0.0,0.0,0.0,0.0,0.0,0.0,0.0,0.0,0.0,0.0,0.0,0.0,0.0,0.0,0.0,0.0,0.0,0.0,0.0,0.0,0.0,0.0,0.0,0.0,0.0,0.0,0.0,0.0,0.0,0.0,0.0,0.0,0.0,0.0,0.0,0.0,0.0,0.0,0.0,0.0,0.0,0.0,0.0,0.0,0.0,0.0,0.0,0.0,0.0,0.0,0.0,0.0,0.0,0.0,0.0,0.0,0.0,0.0,0.0,0.0,0.0,0.0,0.0,0.0,0.0,0.0,0.0,0.0,0.0,0.0,0.0,0.0,0.0,0.0,0.0,0.0,0.0,0.0,0.0,0.0,0.0,0.0,0.0,0.0,0.0,0.0,0.0,0.0,0.0,0.0,0.0,0.0,0.0,0.0,0.0,0.0,0.0,0.0,0.0,0.0,0.0,0.0,0.0,0.0,0.0,0.0,0.0,0.0,0.0,0.0,0.0,0.0,0.0,0.0,0.0,0.0,0.0,0.0,0.0,0.0,0.0,0.0,0.0,0.0,0.0,0.0,0.0,0.0,0.0,0.0,0.0,0.0,0.0,0.0,0.0,0.0,0.0,0.0,0.0,0.0,0.0,0.0,0.0,0.0,0.0,0.0,0.0,0.0,0.0,0.0,0.0,0.0,0.0,0.0,0.0,0.0,0.0,0.0,0.0,0.0,0.0,0.0,0.0,0.0,0.0,0.0,0.0,0.0,0.0,0.0,0.0,0.0,0.0,0.0,0.0,0.0,0.0,0.0,0.0,0.0,0.0,0.0,0.0,0.0,0.0,0.0,0.0,0.0,0.0,0.0,0.0,0.0,0.0,0.0,0.0,0.0,0.0,0.0,0.0,0.0,0.0,0.0,0.0,0.0,0.0,0.0,0.0,0.0,0.0,0.0,0.0,0.0,0.0,0.0,0.0,0.0,0.0,0.0,0.0,0.0,0.0,0.0,0.0,0.0,0.0,0.0,0.0,0.0,0.0,0.0,0.0,0.0,0.0,0.0,0.0,0.0,0.0,0.0,0.0,0.0,0.0,0.0,0.0,0.0,0.0,0.0,0.0,0.0,0.0,0.0,0.0,0.0,0.0,0.0,0.0,0.0,0.0,0.0,0.0,0.0,0.0,0.0,0.0,0.0,0.0,0.0,0.0,0.0,0.0,0.0,0.0,0.0,0.0,0.0,0.0,0.0,0.0,0.0,0.0,0.0,0.0,0.0,0.0,0.0,0.0,0.0,0.0,0.0,0.0,0.0,0.0,0.0,0.0,0.0,0.0,0.0,0.0,0.0,0.0,0.0,0.0,0.0,0.0,0.0,0.0,0.0,0.0,0.0,0.0,0.0,0.0,0.0,0.0,0.0,0.0,0.0,0.0,0.0,0.0,0.0,0.0,0.0,0.0,0.0,0.0,0.0,0.0,0.0,0.0,0.0,0.0,0.0,0.0,0.0,0.0,0.0,0.0,0.0,0.0,0.0,0.0,0.0,0.0,0.0,0.0,0.0,0.0,0.0,0.0,0.0,0.0,0.0,0.0,0.0,0.0,0.0,0.0,0.0,0.0,0.0,0.0,0.0,0.0,0.0,0.0,0.0,0.0,0.0,0.0,0.0,0.0,0.0,0.0,0.0,0.0,0.0,0.0,0.0,0.0,0.0,0.0,0.0,0.0,0.0,0.0,0.0,0.0,0.0,0.0,0.0,0.0,0.0,0.0,0.0,0.0,0.0,0.0,0.0,0.0,0.0,0.0,0.0,0.0,0.0,0.0,0.0,0.0,0.0,0.0,0.0,0.0,0.0,0.0,0.0,0.0,0.0,0.0,0.0,0.0,0.0,0.0,0.0,0.0,0.0,0.0,0.0,0.0,0.0,0.0,0.0,0.0,0.0,0.0,0.0,0.0,0.0,0.0,0.0,0.0,0.0,0.0,0.0,0.0,0.0,0.0,0.0,0.0,0.0,0.0,0.0,0.0,0.0,0.0,0.0,0.0,0.0,0.0,0.0,0.0,0.0,0.0,0.0,0.0,0.0,0.0,0.0,0.0,0.0,0.0,0.0,0.0,0.0,0.0,0.0,0.0,0.0,0.0,0.0,0.0,0.0,0.0,0.0,0.0,0.0,0.0,0.0,0.0,0.0,0.0,0.0,0.0,0.0,0.0,0.0,0.0,0.0,0.0,0.0,0.0,0.0,0.0,0.0,0.0,0.0,0.0,0.0,0.0,0.0,0.0,0.0,0.0,0.0,0.0,0.0,0.0,0.0,0.0,0.0,0.0,0.0,0.0,0.0,0.0,0.0,0.0,0.0,0.0,0.0,0.0,0.0,0.0,0.0,0.0,0.0,0.0,0.0,0.0,0.0,0.0,0.0,0.0,0.0,0.0,0.0,0.0,0.0,0.0,0.0,0.0,0.0,0.0,0.0,0.0,0.0,0.0,0.0,0.0,0.0,0.0,0.0,0.0,0.0,0.0,0.0,0.0,0.0,0.0,0.0,0.0,0.0,0.0,0.0,0.0,0.0,0.0,0.0,0.0,0.0,0.0,0.0,0.0,0.0,0.0,0.0,0.0,0.0,0.0,0.0,0.0,0.0,0.0,0.0,0.0,0.0,0.0,0.0,0.0,0.0,0.0,0.0,0.0,0.0,0.0,0.0,0.0,0.0,0.0,0.0,0.0,0.0,0.0,0.0,0.0,0.0,0.0,0.0,0.0,0.0,0.0,0.0,0.0,0.0,0.0,0.0,0.0,0.0,0.0,0.0,0.0,0.0,0.0,0.0,0.0,0.0,0.0,0.0,0.0,0.0,0.0,0.0,0.0,0.0,0.0,0.0,0.0,0.0,0.0,0.0,0.0,0.0,0.0,0.0,0.0,0.0,0.0,0.0,0.0,0.0,0.0,0.0,0.0,0.0,0.0,0.0,0.0,0.0,0.0,0.0,0.0,0.0,0.0,0.0,0.0,0.0,0.0,0.0,0.0,0.0,0.0,0.0,0.0,0.0,0.0,0.0,0.0,0.0,0.0,0.0,0.0,0.0,0.0,0.0,0.0,0.0,0.0,0.0,0.0,0.0,0.0,0.0,0.0,0.0,0.0,0.0,0.0,0.0,0.0,0.0,0.0,0.0,0.0,0.0,0.0,0.0,0.0,0.0,0.0,0.0,0.0,0.0,0.0,0.0,0.0,0.0,0.0,0.0,0.0,0.0,0.0,0.0,0.0,0.0,0.0,0.0,0.0,0.0,0.0,0.0,0.0,0.0,0.0,0.0,0.0,0.0,0.0,0.0,0.0,0.0,0.0,0.0,0.0,0.0,0.0,0.0,0.0,0.0,0.0,0.0,0.0,0.0,0.0,0.0,0.0,0.0,0.0,0.0,0.0,0.0,0.0,0.0,0.0,0.0,0.0,0.0,0.0,0.0,0.0,0.0,0.0,0.0,0.0,0.0,0.0,0.0,0.0,0.0,0.0,0.0,0.0,0.0,0.0,0.0,0.0,0.0,0.0,0.0,0.0,0.0,0.0,0.0,0.0,0.0,0.0,0.0,0.0,0.0,0.0,0.0,0.0,0.0,0.0,0.0,0.0,0.0,0.0,0.0,0.0,0.0,0.0,0.0,0.0,0.0,0.0,0.0,0.0,0.0,0.0,0.0,0.0,0.0,0.0,0.0,0.0,0.0,0.0,0.0,0.0,0.0,0.0,0.0,0.0,0.0,0.0,0.0,0.0,0.0,0.0,0.0,0.0,0.0,0.0,0.0,0.0,0.0,0.0,0.0,0.0,0.0,0.0,0.0,0.0,0.0,0.0,0.0,0.0,0.0,0.0,0.0,0.0,0.0,0.0,0.0,0.0,0.0,0.0,0.0,0.0,0.0,0.0,0.0,0.0,0.0,0.0,0.0,0.0,0.0,0.0,0.0,0.0,0.0,0.0,0.0,0.0,0.0,0.0,0.0,0.0,0.0,0.0,0.0,0.0,0.0,0.0,0.0,0.0,0.0,0.0,0.0,0.0,0.0,0.0,0.0,0.0,0.0,0.0,0.0,0.0,0.0,0.0,0.0,0.0,0.0,0.0,0.0,0.0,0.0,0.0,0.0,0.0,0.0,0.0,0.0,0.0,0.0,0.0,0.0,0.0,0.0,0.0,0.0,0.0,0.0,0.0,0.0,0.0,0.0,0.0,0.0,0.0,0.0,0.0,0.0,0.0,0.0,0.0,0.0,0.0,0.0,0.0,0.0,0.0,0.0,0.0,0.0,0.0,0.0,0.0,0.0,0.0,0.0,0.0,0.0,0.0,0.0,0.0,0.0,0.0,0.0,0.0,0.0,0.0,0.0,0.0,0.0,0.0,0.0,0.0,0.0,0.0,0.0,0.0,0.0,0.0,0.0,0.0,0.0,0.0,0.0,0.0,0.0,0.0,0.0,0.0,0.0,0.0,0.0,0.0,0.0,0.0,0.0,0.0,0.0,0.0,0.0,0.0,0.0,0.0,0.0,0.0,0.0,0.0,0.0,0.0,0.0,0.0,0.0,0.0,0.0,0.0,0.0,0.0,0.0,0.0,0.0,0.0,0.0,0.0,0.0,0.0,0.0,0.0,0.0,0.0,0.0,0.0,0.0,0.0,0.0,0.0,0.0,0.0,0.0,0.0,0.0,0.0,0.0,0.0,0.0,0.0,0.0,0.0,0.0,0.0,0.0,0.0,0.0,0.0,0.0,0.0,0.0,0.0,0.0,0.0,0.0,0.0,0.0,0.0,0.0,0.0,0.0,0.0,0.0,0.0,0.0,0.0,0.0,0.0,0.0,0.0,0.0,0.0,0.0,0.0,0.0,0.0,0.0,0.0,0.0,0.0,0.0,0.0,0.0,0.0,0.0,0.0,0.0,0.0,0.0,0.0,0.0,0.0,0.0,0.0,0.0,0.0,0.0,0.0,0.0,0.0,0.0,0.0,0.0,0.0,0.0,0.0,0.0,0.0,0.0,0.0,0.0,0.0,0.0,-2.377,-2.4479,0.0,0.0,0.0,0.0,0.0,0.0,0.0,0.0,0.0,0.0,0.0,0.0,0.0,0.0,0.0,0.0,0.0,0.0,0.0,0.0,0.0,0.0,0.0,-3.9073,-3.9692,-4.0791,-4.1062,-4.1221,-4.13,-4.0701,0.0,0.0,0.0,0.0,-3.5538,-3.4778,-3.345,-3.1399,-2.8449,-2.5526,-2.2622,-2.1853,-2.2708,-2.4832,0.0,0.0,0.0,0.0,0.0,0.0,0.0,0.0,0.0,0.0,0.0,0.0,0.0,0.0,0.0,0.0,0.0,0.0,0.0,0.0,0.0,0.0,0.0,0.0,0.0,0.0,0.0,0.0,0.0,0.0,0.0,0.0,0.0,0.0,0.0,0.0,0.0,0.0,0.0,0.0,0.0,0.0,0.0,0.0,0.0,0.0,0.0,0.0,0.0,0.0,0.0,0.0,0.0,0.0,0.0,0.0,0.0,0.0,0.0,0.0,0.0,0.0,0.0,0.0,0.0,0.0,0.0,0.0,0.0,0.0,-2.4151,-2.4672,0.0,0.0,0.0,0.0,0.0,0.0,0.0,0.0,0.0,0.0,0.0,0.0,0.0,0.0,0.0,0.0,0.0,0.0,0.0,0.0,0.0,-3.8726,-3.9464,-4.0055,-4.1,-4.2578,-4.2901,-4.2884,-4.2638,-4.2276,-4.1541,-4.0314,-3.9754,-3.8849,-3.7501,-3.6989,-3.5927,-3.4233,-2.9839,-2.5569,-2.1451,-2.2663,-2.3579,-2.4134,-2.1311,0.0,0.0,0.0,0.0,0.0,0.0,0.0,0.0,0.0,0.0,0.0,0.0,0.0,0.0,0.0,0.0,0.0,0.0,0.0,0.0,0.0,0.0,0.0,0.0,0.0,0.0,0.0,0.0,0.0,0.0,0.0,0.0,0.0,0.0,0.0,0.0,0.0,0.0,0.0,0.0,0.0,0.0,0.0,0.0,0.0,0.0,0.0,0.0,0.0,0.0,0.0,0.0,0.0,0.0,0.0,0.0,0.0,0.0,0.0,0.0,0.0,0.0,0.0,-2.5392,-2.5534,-2.6179,-2.6191,-2.6432,-2.6738,-2.4419,-2.4518,-2.6311,-2.6191,0.0,0.0,0.0,0.0,0.0,0.0,0.0,0.0,0.0,0.0,0.0,0.0,0.0,0.0,0.0,0.0,0.0,0.0,0.0,-3.8821,-3.9665,-4.0319,-4.1736,-4.427,-4.3868,-4.3801,-4.4561,-4.3187,-4.2124,-4.1676,-4.0201,-3.9497,-3.9646,-3.8102,-3.6358,-3.4439,-2.9998,-2.7133,-2.5811,-2.439,-2.3573,-2.3098,-1.909,-1.8943,-2.1409,0.0,0.0,0.0,0.0,0.0,0.0,0.0,0.0,0.0,0.0,0.0,0.0,0.0,0.0,0.0,0.0,0.0,0.0,0.0,0.0,0.0,0.0,0.0,0.0,0.0,0.0,0.0,0.0,0.0,0.0,0.0,0.0,0.0,0.0,0.0,0.0,0.0,0.0,0.0,0.0,0.0,-2.978,-3.209,0.0,0.0,0.0,0.0,0.0,0.0,0.0,0.0,0.0,0.0,0.0,0.0,0.0,-2.7864,-2.8386,-2.9094,-2.9516,-2.9621,-2.7787,-2.7439,-2.8365,-2.5225,-2.4279,-2.5178,-2.4209,0.0,-2.678,-2.7376,0.0,0.0,0.0,0.0,0.0,0.0,0.0,0.0,0.0,0.0,0.0,0.0,0.0,0.0,0.0,0.0,0.0,0.0,0.0,0.0,0.0,-4.2242,-4.3777,-4.5866,-4.5671,-4.5117,-4.4376,-4.36,-4.274,-4.1725,-4.0487,-3.9747,-3.9507,-3.8471,-3.657,-3.3687,-3.2127,-2.9437,-2.5794,-2.4186,-2.238,-2.0351,-1.6943,-1.7105,-1.981,-1.7702,0.0,0.0,0.0,0.0,0.0,0.0,0.0,0.0,0.0,0.0,0.0,0.0,0.0,0.0,0.0,0.0,0.0,0.0,0.0,0.0,0.0,0.0,0.0,0.0,0.0,0.0,0.0,0.0,0.0,0.0,0.0,0.0,0.0,0.0,0.0,0.0,0.0,0.0,0.0,-3.3623,-3.3226,-3.5414,-3.298,-3.2168,0.0,0.0,0.0,0.0,0.0,0.0,0.0,0.0,0.0,-3.0367,-2.8068,-2.7415,-2.8767,-2.7649,-2.7413,-2.7939,-2.6398,-2.6104,-2.6912,-2.5642,-2.5303,-2.5745,-2.604,-2.63,-2.6464,-2.6111,-2.7028,-2.8569,0.0,0.0,0.0,0.0,-2.8109,-2.7519,0.0,0.0,0.0,0.0,0.0,0.0,0.0,0.0,0.0,0.0,0.0,0.0,-4.1717,-4.3057,-4.4638,-4.6681,-4.6515,-4.5874,-4.5033,-4.3749,-4.2787,-4.2334,-4.0955,-4.02,-4.0183,-3.9252,-3.7166,-3.3904,-3.3735,-3.1114,-2.6162,-2.4442,-2.2036,-1.8952,-1.6241,-1.635,-1.8455,-1.7284,-1.8001,-1.9947,0.0,0.0,0.0,0.0,0.0,0.0,0.0,0.0,0.0,0.0,0.0,0.0,0.0,0.0,0.0,0.0,0.0,0.0,0.0,0.0,0.0,0.0,0.0,0.0,0.0,0.0,0.0,0.0,0.0,0.0,0.0,0.0,0.0,0.0,0.0,0.0,0.0,-3.6023,-3.485,-3.7955,-3.4551,-3.2684,0.0,0.0,0.0,0.0,0.0,0.0,-3.1987,-2.9071,-2.8103,-2.9918,-2.7611,-2.7068,-2.8674,-2.6576,-2.599,-2.6833,-2.5953,-2.5871,-2.639,-2.693,-2.6956,-2.672,-2.745,-2.7232,-2.6278,-2.5612,-2.6531,-2.8264,-2.6747,-2.6492,-2.7041,-2.7329,-2.6859,-2.6177,0.0,0.0,0.0,0.0,0.0,0.0,0.0,0.0,0.0,0.0,0.0,-3.7576,-4.0656,-4.1367,-4.2963,-4.6253,-4.5291,-4.5556,-4.7997,-4.3569,-4.1909,-4.4349,-4.1792,-4.126,-4.3309,-4.0988,-3.8545,-3.6131,-3.3622,-3.1167,-2.888,-2.6219,-2.3414,-2.0473,-1.8153,-1.7577,-1.8173,-1.5563,-1.691,-2.0766,-2.0091,0.0,0.0,0.0,0.0,0.0,0.0,0.0,0.0,0.0,0.0,0.0,0.0,0.0,0.0,0.0,0.0,0.0,0.0,0.0,0.0,0.0,0.0,0.0,0.0,0.0,0.0,0.0,0.0,0.0,0.0,0.0,0.0,0.0,0.0,0.0,0.0,0.0,0.0,-3.7508,-3.4844,0.0,0.0,0.0,0.0,-2.939,-2.8879,-2.9893,-3.2689,-2.9507,-2.8784,-3.1419,-2.8859,-2.7606,-2.8024,-2.8208,-2.8446,-2.8739,-2.8774,-2.881,-2.8913,-2.9138,-2.8524,-2.7349,-2.7422,-2.7088,-2.655,-2.7384,-2.7413,-2.6937,-2.7212,-2.6962,-2.6408,-2.6032,-2.6093,-2.6384,0.0,0.0,0.0,0.0,0.0,-3.2422,-3.3246,-3.437,-3.526,-3.5685,-3.6954,-3.876,-4.1338,-4.2303,-4.3884,-4.6732,-4.5855,-4.5399,-4.6005,-4.3309,-4.2598,-4.4535,-4.1858,-4.0439,-4.062,-3.9279,-3.7872,-3.6499,-3.5357,-3.3702,-3.1511,-2.8945,-2.6144,-2.3169,-2.0503,-1.8907,-1.8093,-1.6453,-1.7578,-2.042,-1.9393,-2.1302,0.0,0.0,0.0,0.0,0.0,0.0,0.0,0.0,0.0,0.0,0.0,0.0,0.0,0.0,0.0,0.0,0.0,0.0,0.0,0.0,0.0,0.0,0.0,0.0,0.0,0.0,0.0,0.0,0.0,0.0,0.0,0.0,0.0,0.0,0.0,0.0,0.0,-3.6683,-3.372,0.0,-3.3305,-3.2661,-3.195,-3.1565,-3.0004,-2.9964,-3.1996,-2.9392,-2.8199,-2.8986,-2.8972,-2.9048,-2.9145,-2.8821,-2.9194,-3.0306,-2.94,-2.9228,-2.9574,-2.9445,-2.8691,-2.7368,-2.7368,-2.7055,-2.6493,-2.6361,-2.5867,-2.5128,-2.4536,-2.3843,-2.316,-2.3473,-2.3166,-2.2612,0.0,0.0,0.0,0.0,0.0,-3.048,-3.2232,-3.3467,-3.4232,-3.4264,-3.6331,-3.8648,-4.086,-4.2095,-4.3779,-4.6381,-4.5574,-4.5232,-4.5871,-4.3654,-4.3329,-4.5657,-4.3263,-4.0915,-3.8931,-3.9152,-3.8615,-3.7219,-3.6701,-3.5446,-3.3418,-3.0771,-2.7865,-2.4779,-2.2587,-2.0848,-1.9445,-1.8361,-1.8407,-1.9189,-1.9099,-2.1878,-2.5854,0.0,0.0,0.0,0.0,0.0,0.0,0.0,0.0,0.0,0.0,0.0,0.0,0.0,0.0,0.0,0.0,0.0,0.0,0.0,0.0,0.0,0.0,0.0,0.0,0.0,0.0,0.0,0.0,0.0,0.0,0.0,0.0,0.0,0.0,-3.5529,-3.4824,-3.6691,-3.4149,-3.2277,-3.2386,-3.2199,-3.1865,-3.1389,-2.9742,-2.9455,-3.1034,-2.9317,-2.8312,-2.8445,-2.9355,-2.9834,-2.9834,-2.9317,-2.9616,-3.0605,-2.9778,-2.953,-2.9809,-2.9627,-2.8746,-2.7368,-2.7368,-2.7107,-2.6583,-2.5829,-2.5226,-2.4641,-2.3242,-2.2084,-2.1214,-2.1632,-2.1171,-2.0562,0.0,0.0,0.0,0.0,0.0,-2.8497,-3.0281,-3.2052,-3.2935,-3.2311,-3.4477,-3.6907,-3.9051,-4.0546,-4.247,-4.5119,-4.4257,-4.4927,-4.8067,-4.4518,-4.3981,-4.782,-4.5866,-4.2815,-3.8777,-4.0856,-4.0847,-3.8409,-3.7419,-3.6159,-3.4572,-3.1731,-2.8602,-2.5285,-2.4338,-2.3261,-2.2139,-2.1245,-1.9417,-1.7396,-1.9354,-2.2055,-2.4935,0.0,0.0,0.0,0.0,0.0,0.0,0.0,0.0,0.0,0.0,0.0,0.0,0.0,0.0,0.0,0.0,0.0,0.0,0.0,0.0,0.0,0.0,0.0,0.0,0.0,0.0,0.0,0.0,0.0,0.0,0.0,0.0,0.0,-3.92,-3.5532,-3.3942,-3.7298,-3.607,-3.3871,-3.1045,-3.1881,-3.1422,-2.8473,-2.7993,-2.846,-2.9944,-2.9217,-2.9164,-3.0195,-2.9948,-2.9795,-2.9853,-2.9757,-2.9785,-2.9762,-2.9888,-2.9848,-2.9595,-2.9702,-2.8908,-2.7368,-2.7368,-2.716,-2.6788,-2.6088,-2.5749,-2.545,-2.3548,-2.2108,-2.0962,-2.0651,-2.0509,-2.0669,0.0,0.0,0.0,-2.805,-2.6983,-2.6607,-2.9311,-3.1288,-3.2575,-3.29,-3.4721,-3.6776,-3.8725,-3.965,-4.1174,-4.3772,-4.2454,-4.2701,-4.5402,-4.305,-4.2557,-4.4947,-4.455,-4.3012,-4.0389,-4.0506,-3.993,-3.8605,-3.8016,-3.6976,-3.5596,-3.357,-3.1091,-2.8334,-2.7035,-2.5805,-2.4564,-2.3861,-2.3153,-2.2401,-2.0175,-2.0924,-2.3306,0.0,0.0,0.0,0.0,0.0,0.0,0.0,0.0,0.0,0.0,0.0,0.0,0.0,0.0,0.0,0.0,0.0,0.0,0.0,0.0,0.0,0.0,0.0,0.0,0.0,0.0,0.0,0.0,0.0,0.0,0.0,-3.3675,-3.2768,-3.2876,-3.3517,-3.3647,-3.2835,-3.2541,-3.1929,-3.056,-3.1091,-3.082,-2.9179,-2.968,-3.0084,-3.0277,-2.9813,-2.9813,-3.0316,-3.0044,-3.0121,-3.0587,-2.9546,-2.956,-3.0685,-2.9943,-2.9639,-2.9796,-2.9573,-2.8746,-2.7368,-2.7206,-2.6755,-2.6088,-2.5674,-2.5242,-2.4737,-2.3888,-2.2837,-2.1707,-2.1445,-2.1526,-2.1817,0.0,0.0,0.0,-2.7346,-2.6325,-2.5961,-2.8645,-3.0219,-3.1194,-3.1515,-3.4139,-3.6411,-3.7557,-3.8864,-4.037,-4.2233,-4.1657,-4.1841,-4.343,-4.3315,-4.3363,-4.3713,-4.3944,-4.309,-4.0956,-4.0738,-4.0071,-3.8912,-3.8187,-3.7351,-3.6309,-3.4612,-3.2669,-3.0479,-2.9453,-2.837,-2.7244,-2.6566,-2.6215,-2.5912,-2.2627,-2.2498,-2.4104,-2.212,-2.2901,-2.5104,-2.5293,-2.6945,-2.9342,-3.1921,0.0,0.0,0.0,0.0,0.0,0.0,0.0,0.0,0.0,0.0,0.0,0.0,0.0,0.0,0.0,0.0,0.0,0.0,0.0,0.0,0.0,0.0,0.0,0.0,-3.3734,-3.193,-3.0846,-3.2107,-3.2627,-3.1228,-3.1543,-3.1561,-3.0782,-3.1191,-3.1043,-3.0146,-3.0488,-3.0548,-3.0216,-3.0033,-2.9993,-2.9962,-3.0092,-3.0252,-3.0451,-2.9584,-2.9616,-3.056,-2.9764,-2.9445,-2.9534,-2.903,-2.8342,-2.7614,-2.6877,-2.6414,-2.6158,-2.5666,-2.5176,-2.4718,0.0,0.0,0.0,0.0,-2.1988,-2.2189,0.0,0.0,0.0,-2.7105,-2.6094,-2.5736,-2.8073,-2.893,-2.9385,-2.952,-3.323,-3.5839,-3.5892,-3.7893,-3.9523,-4.0249,-4.108,-4.1834,-4.2466,-4.4554,-4.5179,-4.3829,-4.4108,-4.3313,-4.1012,-4.1463,-4.0905,-3.9196,-3.8204,-3.7394,-3.671,-3.519,-3.3532,-3.1889,-3.1422,-3.0644,-2.9683,-2.903,-2.8614,-2.8032,-2.5801,-2.5307,-2.5739,-2.4061,-2.4633,-2.6259,-2.5876,-2.6876,-2.8632,-3.0041,0.0,0.0,0.0,0.0,0.0,0.0,0.0,0.0,0.0,0.0,0.0,0.0,0.0,0.0,0.0,0.0,0.0,0.0,0.0,0.0,0.0,0.0,0.0,0.0,-3.4357,-3.3064,-3.1565,-3.1402,-3.1425,-3.146,-3.1958,-3.2059,-3.1283,-3.1612,-3.1672,-3.1065,-3.0642,-3.0313,-3.0113,-3.0077,0.0,0.0,0.0,-3.023,-2.9911,-2.9756,-2.9687,-2.9687,-2.9376,-2.9158,-2.8973,-2.8228,-2.7921,-2.7935,-2.6621,-2.6268,-2.6635,-2.5786,-2.5294,-2.4908,-2.3304,-2.2695,-2.2646,-2.2255,-2.2152,-2.2297,0.0,0.0,0.0,-2.4439,-2.3473,-2.3407,-2.6788,-2.7915,-2.8988,-3.074,-3.3561,-3.508,-3.4226,-3.5527,-3.6662,-3.7214,-3.8567,-4.0869,-4.4304,-4.4264,-4.4549,-4.5416,-4.5669,-4.4657,-4.2231,-4.2748,-4.1773,-3.922,-3.8498,-3.7548,-3.6383,-3.5795,-3.4437,-3.2593,-3.1989,-3.1222,-3.0325,-3.0039,-2.9421,-2.8463,-2.6776,-2.4997,-2.3099,-2.0361,-1.929,-1.8944,-1.7108,-1.9568,-2.3812,-2.4952,-2.8079,-3.1867,-3.4209,-3.6144,0.0,0.0,0.0,0.0,0.0,0.0,0.0,0.0,0.0,0.0,0.0,0.0,0.0,0.0,0.0,0.0,0.0,0.0,0.0,-3.7381,-3.4364,-3.2118,-3.2488,-3.2262,-3.2022,-3.1722,-3.1355,-3.1013,-3.0667,-3.0759,-3.0863,-3.1026,-3.0623,-3.0621,-3.1252,-3.0517,-3.0438,-3.1169,-3.0178,-2.9979,-3.0704,-2.9389,-2.8881,-2.909,-2.8682,0.0,-2.8441,-2.8067,-2.7921,-2.7935,-2.6801,-2.6499,-2.6635,-2.5582,-2.4609,-2.3627,-2.3185,-2.2868,-2.2646,-2.2255,-2.2548,-2.3279,0.0,0.0,0.0,-2.3644,-2.37,-2.4328,-2.6672,-2.7325,-2.8591,-3.1387,-3.3384,-3.4369,-3.393,-3.5537,-3.6358,-3.5672,-3.7118,-3.9939,-4.4332,-4.3571,-4.3874,-4.6016,-4.5881,-4.5139,-4.3818,-4.3692,-4.2266,-3.9601,-3.8708,-3.78,-3.682,-3.609,-3.5179,-3.4211,-3.3036,-3.2255,-3.1696,-3.0996,-3.0257,-2.9327,-2.7402,-2.5219,-2.2871,-1.9631,-1.7708,-1.6721,-1.6446,-1.834,-2.1279,-2.3324,-2.6259,-2.9569,-3.2293,-3.3879,-3.4912,0.0,0.0,0.0,0.0,0.0,0.0,0.0,0.0,0.0,0.0,0.0,0.0,0.0,0.0,-3.9221,-4.0395,0.0,-3.6202,-3.7659,-3.4984,-3.2749,-3.309,-3.2805,-3.2498,-3.2333,-3.1677,-3.1213,-3.1172,-3.1076,-3.0983,-3.0831,-3.0572,-3.0569,-3.0907,-3.0741,-3.0741,-3.0907,-3.0513,-3.0512,-3.0955,-2.9506,-2.8925,-2.9238,-2.8486,-2.8121,-2.8067,-2.7799,-2.759,-2.7469,-2.6868,-2.6526,-2.6314,-2.5457,-2.4736,-2.4173,-2.3863,-2.3237,-2.2584,-2.3037,-2.3316,-2.3547,0.0,0.0,0.0,-2.3402,-2.4017,-2.5103,-2.6387,-2.6713,-2.8022,-3.1343,-3.2835,-3.3648,-3.376,-3.5534,-3.639,-3.5614,-3.6476,-3.9126,-4.3999,-4.2954,-4.3274,-4.5868,-4.572,-4.5367,-4.4916,-4.4189,-4.2598,-4.0084,-3.8819,-3.7699,-3.6819,-3.5745,-3.5176,-3.4888,-3.3344,-3.2615,-3.2555,-3.1558,-3.0696,-2.9789,-2.7895,-2.569,-2.3243,-1.9747,-1.7353,-1.6007,-1.709,-1.8258,-1.9613,-2.1935,-2.4528,-2.7256,-3.0143,-3.0896,-3.1596,-3.5857,-3.4872,0.0,0.0,0.0,0.0,0.0,0.0,0.0,0.0,-3.6693,-3.6587,-3.6017,-3.6398,-3.7235,-3.8624,-3.6634,-3.545,-3.751,-3.5478,-3.3495,-3.3329,-3.2824,-3.2497,-3.2642,-3.1773,-3.1241,-3.1503,-3.1159,-3.0847,-3.0704,-3.0667,-3.0644,-3.0655,-3.1176,-3.1302,-3.0717,-3.0893,-3.0997,-3.0951,-2.9622,-2.9039,-2.9261,-2.8342,-2.7853,-2.7799,-2.753,-2.726,-2.7079,-2.6805,-2.6456,-2.6034,-2.5276,-2.5022,-2.5109,-2.4614,-2.3736,-2.2834,-2.388,-2.4085,-2.3802,0.0,0.0,0.0,0.0,0.0,-2.2125,-2.476,-2.5542,-2.7009,-3.0185,-3.1956,-3.2739,-3.2293,-3.301,-3.4777,-3.7901,-3.6839,-3.8521,-4.4589,-4.3008,-4.2734,-4.4808,-4.6005,-4.5907,-4.4337,-4.399,-4.2648,-4.0363,-3.8755,-3.6926,-3.4724,-3.4334,-3.3475,-3.2194,-3.1441,-3.1112,-3.1113,-3.1228,-3.027,-2.8659,-2.8327,-2.6107,-2.2581,-1.9492,-1.6584,-1.4056,-1.3092,-1.5104,-1.8118,-1.7877,-2.1608,-2.6442,-2.6743,-2.7973,-2.9947,-3.3488,-3.4652,-3.5365,-3.7859,-3.5515,-3.3125,-3.6291,-3.4455,-3.297,0.0,-3.769,-3.7438,-3.9019,-4.0589,-4.1505,-4.1048,-3.9345,-3.7942,-3.7904,-3.504,-3.2912,-3.3228,-3.2056,-3.1289,-3.1797,-3.0348,-2.9599,-3.0466,-2.946,-2.9313,-3.0605,-3.0931,-3.1437,-3.2105,-3.2282,-3.2473,-3.2587,-3.1255,-3.0625,-3.0898,-2.9222,-2.8276,-2.8095,-2.7945,-2.7745,-2.7422,-2.7422,-2.7368,-2.733,-2.6503,-2.6123,-2.5918,-2.4841,-2.4765,-2.5295,-2.487,-2.4393,-2.4088,-2.4249,-2.4514,-2.4767,0.0,0.0,0.0,0.0,0.0,-2.2848,-2.4172,-2.5227,-2.703,-3.0162,-3.1722,-3.2278,-3.1668,-3.2242,-3.425,-3.8236,-3.68,-3.7861,-4.3021,-4.1699,-4.1843,-4.4401,-4.5255,-4.5156,-4.4004,-4.3268,-4.1629,-3.9136,-3.7216,-3.5624,-3.4438,-3.2967,-3.2455,-3.2827,-3.1639,-3.1015,-3.0954,-3.1274,-3.0677,-2.9382,-2.7895,-2.6327,-2.4237,-2.0056,-1.6414,-1.3727,-1.4372,-1.6313,0.0,0.0,-2.3047,-2.6906,-2.6121,-2.7782,-3.0645,-3.3404,-3.4543,-3.4702,-3.3914,-3.3882,-3.4024,-3.4054,-3.3602,-3.3778,-3.6242,-3.6495,-3.6196,-3.6084,-3.6597,-3.7163,-3.7334,-3.6685,-3.6214,-3.6416,-3.5223,-3.4045,-3.3395,-3.2486,-3.1633,-3.0984,-2.9288,-2.8655,-2.9792,-2.9412,-2.9479,-3.0251,-3.0878,-3.1546,-3.2083,-3.2777,-3.3053,-3.2931,-3.1507,-3.0994,-3.1466,-2.942,-2.8455,-2.849,-2.8076,-2.7638,-2.7152,-2.7314,-2.7255,-2.6971,-2.5722,-2.5642,-2.6256,-2.4868,-2.4957,-2.5887,-2.4871,-2.4909,-2.5497,-2.5134,-2.5149,-2.5263,0.0,0.0,0.0,0.0,0.0,-2.362,-2.3814,-2.4923,-2.6889,-3.0002,-3.1395,-3.1995,-3.1726,-3.234,-3.415,-3.7702,-3.6792,-3.7499,-4.093,-4.0367,-4.0874,-4.3108,-4.3598,-4.3536,-4.2994,-4.2071,-4.0414,-3.7992,-3.5991,-3.4645,-3.3824,-3.2018,-3.1678,-3.2455,-3.1329,-3.0761,-3.0715,-3.0853,-3.0531,-2.9678,-2.8059,-2.6465,-2.4655,-2.0706,-1.7221,-1.4612,-1.5914,-1.7031,0.0,0.0,-2.4494,-2.7224,-2.7088,-2.8612,-3.1116,-3.4467,-3.6285,-3.6476,-3.3307,-3.3801,-3.4697,-3.2725,-3.2797,-3.3586,-3.4342,-3.4678,-3.4516,-3.341,-3.3185,-3.3367,-3.3959,-3.424,-3.4479,-3.4923,-3.5047,-3.4675,-3.3458,-3.2596,-3.1595,-3.0244,-2.8624,-2.7964,-2.8666,-2.8998,-2.9317,-2.9851,-3.081,-3.1589,-3.1891,-3.2948,-3.3315,-3.2777,-3.1648,-3.1151,-3.1426,-2.9439,-2.8555,-2.8762,-2.818,-2.7647,-2.7138,-2.7037,-2.6824,-2.6536,-2.5133,-2.5296,-2.6506,-2.5074,-2.5241,-2.6234,-2.5222,-2.5397,-2.6256,-2.5863,-2.5755,-2.5729,0.0,0.0,0.0,0.0,0.0,-2.3404,-2.3417,-2.4385,-2.6237,-2.9349,-3.0789,-3.1845,-3.264,-3.3224,-3.4362,-3.6296,-3.6831,-3.7558,-3.8804,-3.9522,-4.0018,-4.0187,-4.0734,-4.0946,-4.0896,-4.0337,-3.9212,-3.7435,-3.5825,-3.4131,-3.2332,-3.1894,-3.0986,-2.9683,-2.9677,-2.9745,-2.9941,-2.9646,-2.9285,-2.8851,-2.9282,-2.6659,-2.2496,-2.1254,-1.9151,-1.6739,-1.6341,0.0,0.0,-2.1453,-2.4661,-2.6861,-2.9721,-3.0006,-3.0482,-3.6669,-4.0772,-4.2614,-3.9226,-3.7126,-3.5573,-3.4305,-3.2509,-3.1257,-3.2094,-3.2453,-3.2627,-3.2857,-3.279,-3.2841,-3.309,-3.3647,-3.4038,-3.3902,-3.4106,-3.4083,-3.3417,-3.1892,-3.0483,-2.9529,-2.853,-2.7654,-2.6947,-2.7376,-2.8182,-2.9397,-3.0915,-3.1841,-3.1891,-3.2948,-3.3181,-3.2354,-3.1403,-3.0703,-3.0234,-2.8965,-2.8373,-2.8507,-2.8138,-2.7844,-2.753,-2.6356,-2.597,-2.605,-2.4952,-2.5296,-2.6513,-2.5477,-2.5502,-2.6205,-2.6083,-2.6009,-2.6033,-2.6266,-2.637,-2.6287,0.0,0.0,0.0,0.0,0.0,0.0,-2.5049,-2.5517,-2.643,-2.8254,-2.9448,0.0,0.0,0.0,0.0,0.0,-3.5097,-3.548,-3.7958,-3.7158,-3.6911,-3.7665,-3.834,-3.8209,-3.7246,-3.5785,-3.4899,-3.4572,-3.1021,-2.9648,-3.0258,-2.912,-2.8851,-2.9278,-2.9624,-2.9726,-2.9589,-2.9833,-2.9067,-2.7549,-2.7103,-2.572,-2.3718,-2.1869,-1.9979,-1.8529,0.0,0.0,-1.8987,-2.1854,-2.45,-2.6914,-2.8384,-3.0527,-3.3639,-3.9734,-4.1399,-4.0817,-3.8762,-3.6498,-3.4312,-3.2842,-3.2157,-3.2023,-3.2651,-3.2588,-3.2319,-3.203,-3.2472,-3.3204,-3.4062,-3.3964,-3.423,-3.5578,-3.4632,-3.3513,-3.3134,-3.2532,-3.137,-2.9284,-2.8663,-2.798,-2.6853,-2.7247,-2.8016,-2.9212,-3.0373,-3.1177,-3.1481,-3.2147,-3.2315,-3.1911,-3.0346,-2.9834,-3.0443,-2.8871,-2.8037,-2.8064,-2.7377,-2.7103,-2.7157,-2.6225,-2.5744,-2.5604,-2.5352,-2.5661,-2.6237,-2.5464,-2.5692,-2.641,-2.5767,-2.568,-2.6045,-2.6397,-2.6468,-2.6326,0.0,0.0,0.0,0.0,0.0,0.0,0.0,0.0,0.0,0.0,0.0,0.0,0.0,0.0,0.0,0.0,0.0,-3.4528,-3.6474,-3.5703,-3.5197,-3.5393,-3.6315,-3.6171,-3.4689,-3.3871,-3.325,-3.2816,-2.9507,-2.8551,-2.9709,-2.8369,-2.8083,-2.8663,-2.9031,-2.8709,-2.7952,-2.8052,-2.7689,-2.6902,-2.5792,-2.51,-2.4539,-2.264,-2.1099,0.0,0.0,0.0,-2.2501,-2.4117,-2.5823,-2.7724,-3.0192,-3.3835,-3.7713,-4.0254,-4.0955,-4.0287,-3.7267,-3.5737,-3.4527,-3.2398,-3.2154,-3.2459,-3.2637,-3.1989,-3.1206,-3.0683,-3.1358,-3.2292,-3.3475,-3.4154,-3.5186,-3.7221,-3.6777,-3.5833,-3.4696,-3.4163,-3.2852,-2.9986,-2.8897,-2.8091,-2.7357,-2.7231,-2.7749,-2.8934,-2.999,-3.055,-3.0537,-3.1306,-3.149,-3.0955,-2.9789,-2.9508,-3.0207,-2.8793,-2.7983,-2.7902,-2.7505,-2.7286,-2.7194,-2.633,-2.5829,-2.5707,-2.5635,-2.5844,-2.6153,-2.5735,-2.5969,-2.6569,-2.5843,-2.5793,-2.6237,-2.6353,-2.6333,-2.6226,0.0,0.0,0.0,0.0,0.0,0.0,0.0,0.0,0.0,0.0,0.0,0.0,0.0,0.0,0.0,0.0,0.0,0.0,-3.449,0.0,0.0,-3.3339,-3.454,-3.4519,-3.306,-3.4168,-3.3913,-3.2186,-3.1058,-3.05,-3.0511,-2.961,-2.8741,-2.7981,-2.7975,-2.704,-2.5394,-2.4646,-2.5263,-2.6676,-2.5239,-2.474,-2.471,-2.3486,0.0,0.0,0.0,-2.3206,-2.5761,-2.7769,-2.8445,-2.9351,-3.4493,-3.9011,-4.175,-3.8379,-3.9577,-4.0836,-3.5353,-3.5169,-3.5815,-3.3093,-3.2372,-3.2254,-3.1897,-3.0592,-2.9385,-2.9111,-2.9555,-3.0326,-3.1692,-3.4137,-3.6611,-3.8468,-3.9888,-3.9914,-3.7492,-3.6279,-3.4533,-3.1534,-2.93,-2.8064,-2.8364,-2.7439,-2.7413,-2.876,-2.9591,-2.9842,-2.9209,-3.042,-3.0642,-2.9546,-2.9621,-2.9659,-2.957,-2.875,-2.8192,-2.8047,-2.8342,-2.8176,-2.7586,-2.6654,-2.6243,-2.6243,-2.5825,-2.5882,-2.6262,-2.6262,-2.6489,-2.6759,-2.6291,-2.6256,-2.6474,-2.6186,-2.6022,-2.5929,0.0,0.0,0.0,0.0,0.0,0.0,0.0,0.0,0.0,0.0,0.0,0.0,0.0,0.0,0.0,0.0,0.0,0.0,-3.4366,0.0,0.0,0.0,0.0,0.0,0.0,0.0,0.0,0.0,-2.9618,-2.9687,-3.0819,-3.1191,-3.0467,-2.8899,-2.9218,-2.8745,-2.7471,-2.5204,-2.4367,-2.4406,0.0,-2.2616,-2.2622,0.0,0.0,0.0,0.0,-2.6497,-2.655,-2.7254,-2.9292,-3.1685,-3.2361,-3.4776,-3.7317,-3.7144,-3.7084,-3.6933,-3.6402,-3.4919,-3.3401,-3.303,-3.2066,-3.1192,-3.0743,-2.9449,-2.8695,-2.9734,-3.0279,-3.1433,-3.4297,-3.3895,-3.3977,-3.652,-3.5127,-3.3763,-3.4026,-3.4276,-3.3657,-3.1473,-3.0819,-3.0255,-2.9446,-2.8974,-2.8907,-2.9393,-2.8815,-2.8895,-2.9879,-2.9227,-2.9046,-2.9509,-2.8933,-2.8786,-2.9234,-2.8713,-2.8391,-2.8397,-2.8287,-2.8121,-2.7954,-2.697,-2.655,-2.6627,-2.6622,-2.6782,-2.7012,-2.7012,-2.6897,-2.6653,-2.6538,-2.5996,-2.5343,-2.5709,-2.5651,-2.541,0.0,0.0,0.0,0.0,0.0,0.0,0.0,0.0,0.0,0.0,0.0,0.0,0.0,0.0,0.0,0.0,0.0,0.0,0.0,0.0,0.0,0.0,0.0,0.0,0.0,0.0,0.0,0.0,0.0,0.0,-3.0498,-3.0454,-2.9857,-2.8799,-2.8792,-2.7759,-2.5899,-2.4224,0.0,0.0,0.0,0.0,0.0,0.0,0.0,0.0,-2.6465,-2.7086,-2.7363,-2.8246,-2.9978,-3.1839,-3.2187,-3.4211,-3.6331,-3.5655,-3.5521,-3.5525,-3.5137,-3.3894,-3.27,-3.2796,-3.1498,-3.0392,-3.0857,-2.9591,-2.8698,-2.9839,-3.0969,-3.2378,-3.4372,-3.4116,-3.4419,-3.6991,-3.5568,-3.4198,-3.4406,-3.4762,-3.4439,-3.2771,-3.1774,-3.1111,-3.076,-2.9957,-2.9596,-2.9819,-2.9252,-2.8992,-2.9198,-2.8865,-2.8859,-2.9272,-2.8758,-2.8691,-2.9085,-2.9114,-2.9108,-2.8998,-2.8914,-2.8762,-2.8613,-2.7688,-2.7214,-2.7185,-2.7247,-2.7286,-2.729,-2.7447,-2.7311,-2.7059,-2.6519,-2.6025,-2.5553,-2.5508,-2.5479,-2.5382,0.0,0.0,0.0,0.0,0.0,0.0,0.0,0.0,0.0,0.0,-3.0159,-3.0773,0.0,0.0,0.0,0.0,0.0,0.0,0.0,0.0,0.0,0.0,0.0,0.0,0.0,0.0,0.0,0.0,0.0,0.0,0.0,0.0,0.0,0.0,0.0,0.0,0.0,0.0,0.0,0.0,0.0,0.0,0.0,0.0,0.0,0.0,-2.5733,-2.6748,-2.8127,-2.9773,-3.0351,-3.0639,-3.2313,-3.4666,-3.6347,-3.3965,-3.4451,-3.531,-3.3151,-3.2853,-3.3049,-3.2503,-3.093,-2.9862,-3.1105,-2.9945,-2.8856,-2.9732,-3.1443,-3.2926,-3.3483,-3.4463,-3.582,-3.7778,-3.7608,-3.6946,-3.6001,-3.5782,-3.54,-3.4396,-3.242,-3.1442,-3.2187,-3.0818,-3.0009,-3.0259,-3.0241,-2.9587,-2.8179,-2.8961,-2.9342,-2.9112,-2.904,-2.9107,-2.9387,-2.9892,-3.0059,-2.9872,-2.9884,-2.9773,-2.9476,-2.8642,-2.8107,-2.7806,-2.7806,-2.7649,-2.7472,-2.7682,-2.7767,-2.7578,-2.6524,-2.6226,-2.6278,-2.5527,-2.5441,-2.5615,0.0,0.0,0.0,0.0,0.0,0.0,0.0,0.0,0.0,0.0,-3.0516,-3.0683,0.0,0.0,0.0,0.0,0.0,0.0,0.0,0.0,0.0,0.0,0.0,0.0,0.0,-2.6601,-2.747,-2.743,-3.079,0.0,0.0,0.0,0.0,0.0,0.0,0.0,0.0,0.0,0.0,0.0,0.0,0.0,0.0,0.0,0.0,0.0,-2.8603,-2.8898,-2.8512,-2.9747,-2.9685,-2.9077,-2.9028,-3.0392,-3.2063,-3.1954,-3.2752,-3.3615,-3.3592,-3.3617,-3.341,-3.2305,-3.0758,-2.939,-2.8946,-2.7866,-2.7635,-2.9993,-3.1066,-3.2308,-3.4694,-3.4486,-3.409,-3.4358,-3.3784,-3.3226,-3.3072,-3.3323,-3.3741,-3.4261,-3.332,-3.2754,-3.3086,-3.2137,-3.1291,-3.0717,-3.0387,-2.9965,-2.9337,-2.8895,-2.9007,-2.9745,-2.9911,-3.0213,-3.0777,-3.0834,-3.1003,-3.1228,-3.0774,-3.033,-2.9897,-2.9416,-2.8838,-2.8184,-2.8184,-2.8184,-2.813,-2.8184,-2.7988,-2.7617,-2.7058,-2.6528,-2.5971,-2.5372,-2.5218,-2.5266,0.0,0.0,0.0,0.0,0.0,0.0,0.0,-2.6882,-2.8397,-3.1396,-3.1282,-3.1393,-3.2547,-3.23,-3.1815,0.0,0.0,0.0,0.0,0.0,0.0,0.0,0.0,0.0,0.0,-2.4882,-2.5961,-2.6327,0.0,-3.1561,-3.1924,-3.2133,-3.1649,-3.0609,-3.0032,-2.8186,-2.5452,0.0,0.0,0.0,-2.1913,-2.2997,0.0,0.0,0.0,0.0,0.0,-2.9754,-2.9138,-3.0225,-2.9379,-2.7837,-2.7987,-2.9183,-3.069,-3.1411,-3.2132,-3.2918,-3.3901,-3.3878,-3.328,-3.2273,-3.0363,-2.8923,-2.9795,-2.8828,-2.851,-3.1103,-3.2724,-3.4008,-3.521,-3.5102,-3.4924,-3.5261,-3.3229,-3.2114,-3.3546,-3.2999,-3.3062,-3.4784,-3.4339,-3.3902,-3.397,-3.3174,-3.2359,-3.1628,-3.1213,-3.0555,-2.9659,-2.9965,-3.0214,-3.0184,-3.1191,-3.1638,-3.1466,-3.1808,-3.2014,-3.2128,-3.1416,-3.1045,-3.1005,-2.9802,-2.9186,-2.9045,-2.8666,-2.8408,-2.8281,-2.8461,-2.8015,-2.7305,-2.6936,-2.642,-2.5799,-2.5499,-2.5431,-2.547,0.0,0.0,0.0,0.0,0.0,0.0,-2.6366,-2.7824,-2.948,-3.2298,-3.2272,-3.2322,-3.3063,-3.2413,-3.116,0.0,0.0,0.0,0.0,0.0,0.0,0.0,0.0,0.0,0.0,0.0,0.0,-2.4984,-2.8162,0.0,0.0,0.0,0.0,0.0,-2.988,-2.8054,-2.5216,-2.5708,-2.4917,0.0,0.0,-2.4095,0.0,0.0,0.0,0.0,0.0,-3.034,-3.0076,-3.061,-2.9476,-2.7868,-2.7773,-2.8679,-3.0049,-3.1497,-3.2044,-3.245,-3.3857,-3.3735,-3.2985,-3.1985,-2.9792,-2.8366,-3.0382,-2.9568,-2.9132,-3.1675,-3.3748,-3.5166,-3.5384,-3.5479,-3.576,-3.6397,-3.3901,-3.2428,-3.4038,-3.3315,-3.3309,-3.5099,-3.5016,-3.4821,-3.4688,-3.4068,-3.334,-3.2483,-3.2073,-3.1363,-2.9962,-3.1091,-3.1455,-3.0907,-3.2157,-3.2569,-3.2048,-3.2358,-3.253,-3.2654,-3.1773,-3.1517,-3.1778,-3.0146,-2.9547,-2.9667,-2.9005,-2.8593,-2.8301,-2.8514,-2.8062,-2.7148,-2.6795,-2.6342,-2.5859,-2.5742,-2.5723,-2.5742,0.0,0.0,0.0,0.0,0.0,0.0,-2.6907,-2.8591,-3.0612,-3.4,-3.3486,-3.3175,-3.4168,-3.2536,-3.0764,0.0,0.0,0.0,0.0,0.0,0.0,0.0,0.0,0.0,0.0,0.0,0.0,-2.395,-2.7628,0.0,0.0,0.0,0.0,0.0,0.0,-2.8059,-2.494,-2.6566,0.0,0.0,0.0,0.0,0.0,0.0,0.0,0.0,0.0,-3.1254,-3.1484,-3.0161,-3.0348,-3.0579,-2.7797,-2.7656,-2.906,-3.2019,-3.2132,-3.1573,-3.2865,-3.3106,-3.2648,-3.1336,-2.9153,-2.7567,-2.8256,-2.7772,-2.7862,-3.0355,-3.196,-3.3445,-3.5263,-3.4915,-3.4481,-3.4846,-3.4795,-3.3938,-3.1763,-3.3484,-3.4833,-3.4368,-3.4891,-3.5252,-3.5047,-3.4728,-3.397,-3.2812,-3.2715,-3.216,-3.0926,-3.1304,-3.1741,-3.2195,-3.2031,-3.2183,-3.2754,-3.2215,-3.2101,-3.242,-3.1677,-3.1237,-3.118,-3.0721,-3.0131,-2.9416,-2.9031,-2.8652,-2.8301,-2.8354,-2.808,-2.7559,-2.7117,-2.6738,-2.6289,-2.5879,-2.5693,-2.5693,0.0,0.0,0.0,0.0,0.0,0.0,-2.6784,-2.7413,-2.9139,-3.4211,-3.3457,-3.2885,-3.3938,-3.3165,-3.1457,-2.8737,0.0,0.0,0.0,0.0,0.0,0.0,0.0,0.0,0.0,0.0,-2.5521,-2.7527,-3.0005,0.0,0.0,0.0,0.0,0.0,0.0,-2.8146,-2.5355,-2.7167,0.0,0.0,0.0,0.0,0.0,0.0,0.0,0.0,0.0,0.0,-3.2184,-3.079,-3.0315,-3.0243,-2.9928,-2.8832,-2.8076,-2.9886,-3.0946,-3.1598,-3.2044,-3.2413,-3.2256,-3.062,-2.9611,-2.8942,-2.8698,-2.8489,-2.8718,-3.0065,-3.1622,-3.2996,-3.3667,-3.4743,-3.5587,-3.5791,-3.5148,-3.4819,-3.5596,-3.583,-3.6077,-3.6356,-3.6997,-3.689,-3.5536,-3.5224,-3.4673,-3.3738,-3.3939,-3.3516,-3.2196,-3.2833,-3.3014,-3.2412,-3.3041,-3.3277,-3.3078,-3.2623,-3.2431,-3.2586,-3.1653,-3.1228,-3.1385,-3.0638,-3.0207,-3.0013,-2.9446,-2.9148,-2.9078,-2.8872,-2.8555,-2.8272,-2.7818,-2.7385,-2.6951,-2.6666,-2.6438,-2.63,0.0,0.0,0.0,0.0,0.0,-2.2037,-2.6474,-2.6745,-2.8311,-3.3547,-3.3276,-3.2946,-3.3819,-3.3713,-3.2305,-2.9205,-2.758,0.0,0.0,0.0,0.0,0.0,0.0,0.0,0.0,0.0,-2.634,-2.9132,-3.1213,-3.2793,0.0,0.0,-3.1094,-3.1268,0.0,0.0,0.0,0.0,0.0,0.0,0.0,0.0,0.0,0.0,0.0,0.0,0.0,0.0,0.0,0.0,0.0,-2.9828,-3.0349,-2.9185,-2.7944,-2.9532,-3.0305,-3.0778,-3.1382,-3.1429,-3.0992,-2.9764,-2.9402,-2.9201,-2.8886,-2.8903,-2.9168,-2.9869,-3.118,-3.2311,-3.2588,-3.3973,-3.5303,-3.5957,-3.5242,-3.5342,-3.7412,-3.7782,-3.796,-3.829,-3.9633,-3.9491,-3.6846,-3.5891,-3.517,-3.4677,-3.4882,-3.4513,-3.3343,-3.3943,-3.3781,-3.27,-3.3317,-3.3397,-3.2784,-3.2333,-3.2105,-3.1989,-3.1204,-3.1071,-3.1475,-3.0386,-3.0036,-3.0274,-2.956,-2.9262,-2.9196,-2.9073,-2.8807,-2.8489,-2.8296,-2.7879,-2.739,-2.7102,-2.6893,-2.6685,0.0,0.0,0.0,0.0,0.0,-2.2728,-2.609,-2.7228,-2.8855,-3.2109,-3.3095,-3.3668,-3.4149,-3.4032,-3.3098,-3.1131,-2.7983,0.0,0.0,0.0,0.0,0.0,0.0,0.0,0.0,0.0,-2.551,-2.7138,-3.0259,-3.1951,-3.2228,-3.1846,-3.1718,-3.1733,0.0,0.0,0.0,0.0,0.0,0.0,0.0,0.0,0.0,0.0,0.0,0.0,0.0,0.0,0.0,0.0,0.0,0.0,0.0,-2.7897,-2.9004,-3.2158,-3.0768,-2.8681,-3.0737,-2.9942,-2.8562,-2.8681,-2.8032,-2.7517,-2.8237,-2.8443,-2.8723,-2.9549,-3.0256,-3.1113,-3.2442,-3.2341,-3.2651,-3.4535,-3.5233,-3.5524,-3.5449,-3.8811,-4.0834,-3.9704,-4.2466,-4.3023,-3.9308,-3.679,-3.5418,-3.5418,-3.5418,-3.5024,-3.4113,-3.4072,-3.3855,-3.3224,-3.2326,-3.184,-3.1818,-3.1194,-3.0736,-3.0404,-3.0283,-3.0602,-3.1227,-3.0131,-2.9738,-2.9941,-2.9231,-2.8691,-2.8301,-2.8568,-2.847,-2.8105,-2.8384,-2.8053,-2.734,-2.6973,-2.6814,-2.6735,0.0,0.0,0.0,0.0,0.0,0.0,-2.3836,-2.4712,-2.6264,-2.9174,-2.9859,-3.0777,-3.2706,-3.3807,-3.3041,-2.9784,-2.7115,0.0,0.0,0.0,0.0,0.0,0.0,0.0,0.0,-2.6098,-2.8969,-3.2777,-3.4101,-3.5187,-3.5991,-3.418,-3.2913,-3.2024,-3.0775,-2.8828,0.0,0.0,0.0,0.0,0.0,0.0,-2.8029,0.0,0.0,0.0,0.0,0.0,0.0,0.0,0.0,0.0,0.0,0.0,0.0,-3.0356,-3.0277,-2.9635,-2.9818,-3.0894,-3.1753,-3.079,-3.1499,-3.1923,-2.9995,-3.0243,-3.0505,-2.9145,-2.9689,-3.0401,-3.0534,-3.1287,-3.237,-3.3915,-3.5376,-3.679,-3.8093,-3.9555,-4.0267,-3.9786,-3.9055,-3.8046,-3.6698,-3.5865,-3.5294,-3.5108,-3.5026,-3.4693,-3.4152,-3.382,-3.3385,-3.2862,-3.2383,-3.2105,-3.2123,-3.1494,-3.1128,-3.1023,-3.0779,-3.0759,-3.0811,-3.0231,-3.0013,-2.996,-2.9231,-2.9004,-2.9196,-2.9391,-2.9353,-2.9266,-2.9586,-2.9355,-2.8805,-2.8175,-2.7864,-2.7642,0.0,0.0,0.0,0.0,0.0,0.0,-2.3696,-2.4472,-2.5873,-2.8201,-2.9122,-3.0411,-3.2598,-3.3428,-3.2746,-3.0003,-2.7409,0.0,0.0,0.0,0.0,0.0,0.0,0.0,-2.5129,-2.7747,-3.1094,-3.5281,-3.6409,-3.7219,-3.7685,-3.5817,-3.4076,-3.2449,-3.1261,-2.9261,0.0,0.0,0.0,0.0,0.0,0.0,-2.9383,0.0,0.0,0.0,0.0,0.0,0.0,0.0,0.0,0.0,0.0,0.0,0.0,0.0,-2.8492,-2.8449,-2.8505,-2.9927,-3.1202,-3.0032,-3.1292,-3.2273,-3.0162,-3.0443,-3.0618,-2.8609,-2.9249,-3.0021,-2.9563,-3.0854,-3.2323,-3.3318,-3.4749,-3.6208,-3.7594,-3.9119,-4.0468,-4.1474,-3.9135,-3.7376,-3.7172,-3.6194,-3.5417,-3.4882,-3.4799,-3.4403,-3.3617,-3.312,-3.2607,-3.204,-3.2085,-3.1913,-3.1475,-3.1224,-3.1072,-3.0894,-3.0741,-3.0682,-3.0679,-3.0231,-2.9937,-2.9829,-2.9156,-2.8984,0.0,-2.9297,-2.9393,-2.9393,-2.9802,-2.9644,-2.9143,-2.8593,-2.832,-2.8045,0.0,0.0,0.0,0.0,0.0,0.0,0.0,-2.5985,-2.7111,-2.8509,-3.0147,-3.1732,-3.3187,-3.284,-3.2152,-3.1252,-2.8449,0.0,0.0,0.0,0.0,0.0,0.0,0.0,-2.5288,-2.885,-3.2257,-3.5462,-3.7582,-3.8366,-3.7896,-3.6985,-3.5309,-3.2964,-3.1842,-3.0069,-2.7983,-2.8587,-2.9189,-2.9804,-3.0,-3.0456,0.0,0.0,0.0,0.0,0.0,0.0,0.0,0.0,0.0,0.0,0.0,0.0,0.0,0.0,0.0,0.0,0.0,-2.7692,-2.8134,-2.7462,-2.8626,-2.9801,-2.9312,-2.9539,0.0,-2.8012,-2.8946,-2.9899,-2.9481,-3.0945,-3.2392,-3.2934,-3.377,-3.4499,-3.4839,-3.773,-4.0799,-4.3483,-4.1451,-3.9801,-3.9783,-3.7374,-3.5559,-3.4797,-3.4795,-3.4134,-3.2752,-3.2235,-3.1649,-3.086,-3.1455,-3.1154,-2.998,-3.0564,-3.0664,-3.0195,-3.0234,-3.0449,-3.082,-2.9961,-2.9551,-2.9492,-2.9062,-2.8652,-2.8301,-2.8607,-2.8714,-2.8727,-2.9384,-2.9204,-2.8479,-2.831,-2.8227,-2.8064,0.0,0.0,0.0,0.0,0.0,0.0,0.0,0.0,0.0,0.0,-2.8227,-3.0018,-3.0022,-3.1051,-3.1019,0.0,0.0,0.0,0.0,0.0,0.0,0.0,0.0,0.0,-2.8824,-3.1414,-3.4872,-3.923,-4.0292,-4.087,-4.1028,-3.9818,-3.7127,-3.3186,-3.2205,-3.0505,-2.8397,-2.893,-2.9328,-2.9647,-3.0553,-3.0729,0.0,0.0,0.0,0.0,-3.1974,-3.2265,0.0,0.0,0.0,0.0,0.0,0.0,0.0,0.0,-2.5526,-2.5082,-2.4835,0.0,-3.1094,-3.0563,-3.181,-3.2825,0.0,-3.072,-2.9964,-2.8171,-2.8672,-2.9666,-3.0249,-3.0918,-3.2204,-3.4753,-3.6127,-3.661,-3.5894,-3.7023,-3.7767,-3.7277,-3.7525,-3.7435,-3.6443,-3.5842,-3.5231,-3.4492,-3.4304,-3.3803,-3.2789,-3.2235,-3.1394,-3.0086,-3.0858,-3.0741,-2.9682,-3.0257,-3.0296,-2.9891,-3.02,-3.0354,-3.0351,-2.9805,-2.9394,-2.9043,-2.8633,-2.8379,-2.8374,-2.8957,-2.9025,-2.8767,-2.9708,-2.9542,-2.8798,-2.8727,-2.8409,-2.7873,0.0,0.0,0.0,0.0,0.0,0.0,0.0,0.0,0.0,0.0,-2.8556,-2.9876,-2.9966,-3.0441,-3.0558,0.0,0.0,0.0,0.0,0.0,0.0,0.0,0.0,-2.6558,-3.0416,-3.3559,-3.6928,-4.0662,-4.1486,-4.1952,-4.2023,-4.0613,-3.7714,-3.3536,-3.0889,-2.9346,-2.8693,-2.8746,-2.9005,-2.9489,-3.0247,0.0,0.0,0.0,0.0,0.0,-3.2614,-3.2475,0.0,-3.1733,-3.1436,-3.1214,0.0,0.0,0.0,0.0,-2.5331,-2.4754,-2.4499,-2.7822,-3.1227,-3.072,-3.174,-3.2508,-3.1264,-3.0319,-2.9295,-2.795,-2.8879,-3.0196,-3.091,-3.1902,-3.3417,-3.5874,-3.6247,-3.6648,-3.7747,-3.936,-3.9904,-3.8424,-3.9017,-3.8582,-3.6074,-3.5517,-3.4921,-3.4043,-3.3528,-3.2967,-3.221,-3.1737,-3.0942,-2.9816,-3.0349,-3.0099,-2.9131,-2.9794,-2.993,-2.9585,-2.993,-3.0103,-3.0024,-2.9709,-2.9336,-2.8906,-2.8476,-2.8301,-2.8301,-2.875,-2.8647,-2.8292,-2.8986,-2.8701,-2.7895,-2.7814,-2.7921,-2.7906,0.0,0.0,0.0,0.0,0.0,0.0,0.0,0.0,0.0,0.0,0.0,0.0,0.0,0.0,0.0,0.0,0.0,0.0,0.0,0.0,0.0,0.0,-2.5704,-2.8177,-3.1873,-3.5469,-3.8602,-4.1247,-4.2424,-4.2718,-4.2136,-4.0935,-3.8004,-3.3547,-2.9544,-2.8122,-2.874,-2.8568,-2.8885,-2.9503,-2.9968,0.0,0.0,0.0,0.0,0.0,0.0,0.0,0.0,-3.2297,-3.1592,-3.0827,-3.1339,0.0,0.0,0.0,0.0,0.0,-2.5218,-2.7547,-2.9814,-2.9803,-3.061,-3.1228,-3.0729,-2.9794,-2.8812,-2.8019,-2.9578,-3.1256,-3.1804,-3.3502,-3.5366,-3.7037,-3.5949,-3.5972,-3.9135,-4.1437,-4.2364,-4.129,-4.1465,-4.0235,-3.6639,-3.5598,-3.4708,-3.3633,-3.2895,-3.2199,-3.1549,-3.1105,-3.0492,-2.9661,-2.9789,-2.9423,-2.8356,-2.9144,-2.9432,-2.9126,-2.9489,-2.9661,-2.9718,-2.9556,-2.9238,-2.8809,-2.8437,0.0,-2.8281,-2.8223,-2.7988,-2.7708,-2.7942,-2.7459,-2.6685,-2.6641,-2.7166,-2.7769,0.0,0.0,0.0,0.0,0.0,0.0,0.0,0.0,0.0,0.0,0.0,0.0,0.0,0.0,0.0,0.0,0.0,0.0,0.0,0.0,0.0,-2.9521,-2.8356,-3.0362,-3.6199,-3.7254,-3.9519,-4.317,-4.4867,-4.4805,-4.3001,-4.3309,-3.9555,-3.2493,-3.089,-2.9368,-2.8149,-2.965,-3.0247,-3.0228,-3.1385,0.0,0.0,0.0,0.0,0.0,0.0,0.0,0.0,-3.1618,-3.1389,-3.1278,-3.0695,0.0,0.0,0.0,0.0,0.0,-2.6936,-2.7495,-2.8236,-3.0616,-3.1879,-3.2466,-3.207,-3.1727,-3.1089,-2.9739,-3.1051,-3.2688,-3.363,-3.5316,-3.7367,-3.9621,-3.7773,-3.6412,-3.7451,-3.682,-3.6407,-3.6838,-3.7479,-3.7079,-3.5005,-3.4852,-3.4463,-3.3496,-3.3289,-3.2555,-3.1119,-3.0921,-3.0295,-2.89,-2.9263,-2.8883,-2.759,-2.8127,-2.8426,-2.8369,-2.871,-2.8993,-2.9218,-2.9053,-2.8789,-2.8379,0.0,-2.8301,-2.8262,-2.791,-2.7787,-2.7689,-2.7554,-2.7201,-2.6794,-2.703,-2.6968,-2.6706,0.0,0.0,0.0,0.0,0.0,0.0,0.0,0.0,0.0,0.0,0.0,0.0,0.0,0.0,0.0,0.0,0.0,0.0,0.0,0.0,-2.8552,-3.1909,-3.1489,-3.3355,-3.7968,-3.8991,-4.1341,-4.52,-4.5734,-4.5642,-4.49,-4.1861,-3.7572,-3.2234,-3.0808,-2.9615,-2.8774,-2.9703,-3.0442,-3.1047,0.0,0.0,0.0,0.0,0.0,0.0,0.0,0.0,0.0,0.0,-3.1024,-3.0638,-3.0433,0.0,0.0,0.0,0.0,0.0,-2.8021,-2.8459,-2.893,-3.0681,-3.04,-2.9578,-2.929,-2.8769,-2.8559,-2.9419,-3.0674,-3.2517,-3.5316,-3.5857,-3.616,-3.6957,-3.7853,-3.8474,-3.8437,-3.9218,-3.9472,-3.862,-3.8491,-3.7515,-3.5002,-3.4149,-3.3587,-3.3176,-3.2457,-3.1769,-3.1045,-3.0579,-2.9916,-2.9084,-2.9174,-2.8622,-2.7441,-2.7472,-2.7716,-2.7992,-2.8052,-2.8333,-2.8841,-2.8754,-2.8529,-2.8301,0.0,-2.8164,-2.793,-2.7806,-2.7246,-2.6621,-2.6811,-2.6547,-2.6207,-2.7077,-2.6863,-2.6194,0.0,0.0,0.0,0.0,0.0,0.0,0.0,0.0,0.0,0.0,0.0,0.0,0.0,0.0,0.0,0.0,0.0,0.0,0.0,-2.8023,-2.9603,-3.253,-3.4002,-3.6236,-3.9406,-4.0578,-4.2833,-4.6275,-4.6226,-4.6137,-4.5777,-4.0279,-3.5729,-3.2098,-3.0718,-2.9667,-2.8939,-2.9404,-3.0385,-3.1642,0.0,0.0,0.0,0.0,0.0,0.0,0.0,0.0,0.0,0.0,0.0,0.0,0.0,0.0,0.0,-2.8292,-2.7619,-2.7517,-2.923,-2.9377,-2.937,-3.0819,-2.9923,-2.8404,-2.7386,-2.7162,-2.7615,-2.9118,-3.0362,-3.2335,-3.6013,-3.6411,-3.5994,-3.5454,-3.7664,-3.9249,-3.8506,-4.0361,-4.1176,-3.9499,-3.8615,-3.7224,-3.4827,-3.3492,-3.2776,-3.2653,-3.1748,-3.105,-3.0913,-3.0233,-2.9647,-2.9257,-2.9006,-2.8416,-2.753,-2.726,-2.7307,-2.7675,-2.7605,-2.7882,-2.8464,-2.8435,-2.8339,-2.8144,-2.8144,-2.7851,-2.7415,-2.7415,-2.6769,-2.581,-2.6094,-2.5966,-2.5789,-2.6932,-2.6818,-2.6189,0.0,0.0,0.0,0.0,0.0,0.0,0.0,0.0,0.0,0.0,0.0,0.0,0.0,0.0,0.0,0.0,0.0,0.0,0.0,-2.7725,-2.9769,-3.1265,-3.5005,-3.8558,-4.1687,-4.1842,-4.3114,-4.5572,-4.6913,-4.6328,-4.3927,-4.033,-3.6212,-3.1741,-3.1427,-2.9846,-2.7569,-2.8989,-3.0441,-3.1779,-3.1883,0.0,0.0,0.0,0.0,0.0,0.0,0.0,0.0,0.0,0.0,0.0,0.0,0.0,-2.9384,-2.9368,-2.8384,-2.7941,-3.0969,-2.9632,-2.816,-3.1368,-3.2903,-3.2761,-2.955,-3.1058,-3.2435,-3.0085,-3.1055,-3.2966,-3.4811,-3.76,-3.9513,-3.9087,-3.7927,-3.6601,-3.5333,-3.521,-3.528,-3.5255,-3.448,-3.3838,-3.3547,-3.2786,-3.224,-3.2055,-3.1988,-3.1464,-3.0296,-2.9998,-2.9453,-2.8787,-2.85,-2.8213,-2.7853,-2.753,-2.7322,-2.7215,-2.7341,-2.7633,-2.8066,-2.8211,-2.8105,-2.7767,-2.7767,-2.7297,-2.6484,-2.6484,-2.632,-2.6062,-2.581,-2.5888,-2.6119,-2.6468,-2.6709,-2.6812,0.0,0.0,0.0,0.0,0.0,0.0,0.0,0.0,0.0,0.0,0.0,-2.8928,-2.8041,0.0,0.0,0.0,0.0,0.0,0.0,-2.6159,-2.8748,-3.2872,-3.5078,-3.7751,-4.1106,-4.3053,-4.5037,-4.7172,-4.6553,-4.5374,-4.3708,-3.9691,-3.5955,-3.2549,-3.1102,-2.9852,-2.8884,-2.9368,-3.086,-3.2877,-3.3025,-3.2373,0.0,0.0,0.0,0.0,0.0,0.0,0.0,0.0,-3.0309,-2.9662,-2.9258,-2.9196,-2.9227,-2.8975,-2.8784,-2.9059,-3.0742,-2.9983,-2.9365,-3.1802,-3.313,-3.2793,-2.8769,-2.9567,-3.0809,-2.9569,-3.0138,-3.181,-3.49,-3.574,-3.6264,-3.7047,-3.5678,-3.4413,-3.4113,-3.3699,-3.3584,-3.4101,-3.3173,-3.2448,-3.2561,-3.1978,-3.1466,-3.1353,-3.1251,-3.0797,-2.9893,-2.9586,-2.8978,-2.7915,-2.8205,-2.8081,-2.7449,-2.7611,-2.7552,-2.7341,-2.7227,-2.7377,-2.7752,-2.7669,-2.753,-2.7356,-2.7039,-2.668,-2.6417,-2.6271,-2.5994,-2.5742,-2.5932,-2.6139,-2.64,-2.6832,-2.6948,-2.69,0.0,0.0,0.0,0.0,0.0,0.0,0.0,0.0,-2.9966,0.0,0.0,0.0,0.0,-2.6181,0.0,0.0,0.0,0.0,-2.4708,-2.606,-2.8855,-3.3563,-3.5444,-3.7641,-4.0343,-4.348,-4.5806,-4.7186,-4.5909,-4.4467,-4.2842,-3.9114,-3.5874,-3.3088,-3.1102,-2.9982,-2.9665,-2.9749,-3.104,-3.3047,-3.3543,-3.2939,0.0,0.0,0.0,0.0,0.0,0.0,0.0,0.0,-2.9871,-2.9335,-2.8882,-2.8979,-2.9267,-2.915,-2.9339,-2.985,-3.1382,-3.129,-3.1068,-3.2344,-3.3395,-3.2922,-2.8431,-2.9284,-3.0615,-2.9009,-2.9524,-3.1113,-3.3881,-3.3687,-3.3606,-3.5128,-3.3967,-3.2991,-3.3261,-3.307,-3.2934,-3.3069,-3.2105,-3.1475,-3.1763,-3.1142,-3.0691,-3.0697,-3.0789,-3.0523,-2.9752,-2.9384,-2.8737,-2.777,-2.805,-2.7897,-2.7375,-2.7694,-2.7799,-2.753,-2.7128,-2.7114,-2.7486,-2.7381,-2.711,-2.6686,-2.6326,-2.5937,-2.5595,-2.5658,-2.5642,-2.5664,-2.6302,-2.6594,-2.6688,-2.7119,-2.7167,-2.7044,0.0,0.0,0.0,0.0,0.0,0.0,0.0,0.0,-2.9413,-2.9209,-2.9189,0.0,0.0,0.0,0.0,0.0,0.0,0.0,-2.4996,-2.7831,-3.0495,-3.2721,-3.6318,-3.8698,-3.9687,-4.3081,-4.4888,-4.5035,-4.5119,-4.3738,-4.0949,-3.8706,-3.6021,-3.3025,-3.1483,-3.0279,-2.9434,-2.9983,-3.0879,-3.2025,-3.3293,-3.345,-3.2819,0.0,0.0,0.0,0.0,0.0,0.0,0.0,-2.9963,-2.9014,-3.036,-3.0132,-2.9538,-3.0276,-3.0081,-3.0316,-3.336,-3.3617,-3.2984,-3.3003,-3.3988,-3.3697,-2.8927,-3.1111,-3.2959,-2.8625,-2.9437,-3.1079,-3.153,-3.1837,-3.2558,-3.4226,-3.33,-3.2363,-3.2669,-3.3078,-3.2959,-3.1733,-3.0944,-3.0641,-3.1063,-3.0319,-2.9904,-3.0153,-3.0743,-3.0768,-3.0015,-2.926,-2.8757,-2.8468,-2.7969,-2.7708,-2.7708,-2.7801,-2.7906,-2.7906,-2.7165,-2.6974,-2.7218,-2.7532,-2.6953,-2.5693,-2.5674,-2.498,-2.3873,-2.4532,-2.5199,-2.592,-2.6886,-2.7119,-2.6948,-2.7214,-2.7309,-2.7309,0.0,0.0,0.0,0.0,0.0,0.0,0.0,0.0,-2.8463,-2.8851,-2.9057,0.0,0.0,0.0,0.0,0.0,0.0,0.0,-2.5162,-2.6552,-2.925,-3.3614,-3.5317,-3.7049,-3.8958,-4.0764,-4.2688,-4.4712,-4.2256,-4.1014,-4.0839,-3.6997,-3.4129,-3.2246,-3.0783,-2.9304,-2.8015,-2.9606,-3.1132,-3.2639,-3.4666,-3.4467,-3.2881,0.0,0.0,0.0,0.0,0.0,0.0,0.0,0.0,0.0,-2.8849,-2.9354,-2.9764,-2.9518,-3.1015,-3.2835,-3.3577,-3.235,-3.1474,-3.3927,-3.272,-3.0752,-3.0103,-3.0814,-3.0965,-2.8714,-2.8918,-3.03,-3.2932,-3.2243,-3.2122,-3.4676,-3.3857,-3.2794,-3.2292,-3.2253,-3.2135,-3.1808,-3.0881,-3.0275,-3.0178,-2.9957,-2.9783,-2.9778,-2.9629,-2.9467,-2.9295,-2.8616,-2.7848,-2.71,-2.7532,-2.7617,-2.7207,-2.7877,-2.8174,-2.8174,-2.766,-2.7237,-2.6902,-2.6622,-2.6187,-2.5586,-2.522,-2.4822,-2.4552,-2.5219,-2.6034,-2.6886,-2.7152,-2.7262,-2.7167,-2.7262,-2.7309,-2.7309,0.0,0.0,0.0,0.0,0.0,0.0,-2.8,-2.8083,-2.8169,-2.8363,-2.8876,-2.8671,0.0,0.0,0.0,0.0,0.0,0.0,-2.6578,-2.7339,-2.981,-3.4394,-3.558,-3.7213,-3.9503,-3.9852,-4.0693,-4.2195,-4.0351,-3.9309,-3.8893,-3.5939,-3.3636,-3.1872,-3.0872,-2.9481,-2.7966,-3.0066,-3.1401,-3.2347,-3.5333,-3.5185,-3.3115,0.0,0.0,0.0,0.0,0.0,0.0,0.0,0.0,0.0,-2.8693,-2.9148,-2.956,-2.9808,-3.1565,-3.3427,-3.3505,-3.2804,-3.2183,-3.283,-3.1397,-2.9772,-2.9368,-2.9559,-2.9713,-2.9141,-2.9082,-2.9789,-3.2136,-3.1354,-3.1037,-3.3149,-3.2771,-3.203,-3.1571,-3.168,-3.1596,-3.1112,-3.0722,-3.0269,-2.9728,-2.9581,-2.9434,-2.9258,-2.9114,-2.9034,-2.8948,-2.8227,-2.7459,-2.6826,-2.7142,-2.7066,-2.6606,-2.7616,-2.8043,-2.7921,-2.7441,-2.7195,-2.7001,-2.6447,-2.5908,-2.5413,-2.4888,-2.4726,-2.4922,-2.5664,-2.6396,-2.704,-2.7247,-2.7206,-2.7061,-2.7247,-2.7185,-2.7061,0.0,0.0,-2.9954,-2.9147,0.0,0.0,-2.6626,-2.7556,-2.8157,-2.7501,-2.8433,-2.8883,0.0,0.0,0.0,0.0,0.0,0.0,0.0,-2.949,-3.1562,-3.5159,-3.6667,-3.8477,-4.0755,-3.9738,-3.8835,-3.8208,-3.8922,-3.8106,-3.5937,-3.5386,-3.3884,-3.1612,-3.1314,-3.0185,-2.8682,-3.0754,-3.1453,-3.1575,-3.5312,-3.5553,-3.3509,-3.2114,0.0,0.0,0.0,0.0,0.0,0.0,0.0,0.0,-2.9393,-2.9223,-2.9123,-3.0677,-3.171,-3.2515,-3.3291,-3.4025,-3.3794,-3.0581,-3.0271,-3.0102,-2.755,-2.8018,-2.9085,-2.9544,-2.9655,-2.9738,-2.998,-2.9774,-2.9822,-3.0591,-3.0698,-3.0766,-3.0839,-3.1306,-3.127,-3.0129,-3.0483,-3.0431,-2.9431,-2.9246,-2.9026,-2.8774,-2.9021,-2.9137,-2.8911,-2.8023,-2.7435,-2.7149,-2.6769,-2.6403,-2.6037,-2.7232,-2.769,-2.7284,-2.6827,-2.6871,-2.732,-2.6604,-2.5886,-2.5148,-2.4706,-2.4658,-2.4985,-2.5824,-2.6331,-2.6667,-2.7123,-2.704,-2.6729,-2.7143,-2.704,-2.6729,0.0,0.0,-2.8583,-2.8374,0.0,0.0,-2.4233,-2.5961,-2.6763,-2.4784,-2.6655,-2.8125,-2.7892,-2.7862,0.0,-2.7901,0.0,0.0,0.0,-3.0397,-3.245,-3.6144,-3.7545,-3.878,-3.992,-3.7893,-3.6502,-3.5838,-3.592,-3.5736,-3.5344,-3.4418,-3.2673,-3.0368,-2.991,-2.882,-2.7411,-2.8272,-2.9783,-3.189,-3.4593,-3.509,-3.4044,-3.2105,-3.0148,0.0,0.0,0.0,0.0,0.0,0.0,0.0,-2.8603,-2.8923,-2.9294,-3.0211,-3.087,-3.1616,-3.306,-3.197,-3.053,-3.0865,-3.0332,-2.9507,-2.8641,-2.9061,-2.9367,-2.8627,-2.947,-3.0258,-3.0036,-3.051,-3.0894,-3.0665,-3.1345,-3.1657,-3.1193,-3.1348,-3.1339,-3.0683,-3.037,-2.9887,-2.9091,-2.9306,-2.9411,-2.9167,-2.8838,-2.8788,-2.8974,-2.769,-2.6852,-2.6657,-2.6537,-2.6384,-2.6337,-2.7273,-2.7526,-2.7046,-2.6948,-2.6937,-2.6884,-2.5956,-2.538,-2.5083,-2.4706,-2.4727,-2.5186,-2.5562,-2.6085,-2.6667,-2.7123,-2.7342,-2.7353,-2.7315,-2.7342,-2.7353,0.0,0.0,0.0,0.0,0.0,0.0,0.0,0.0,-2.5669,-2.4856,-2.6051,-2.7009,-2.7022,-2.7504,0.0,0.0,0.0,0.0,0.0,0.0,-3.3059,-3.637,-3.8018,-3.8328,-3.7218,-3.5869,-3.4898,-3.438,-3.4092,-3.4168,-3.4564,-3.3468,-3.2164,-3.0791,-2.9968,-2.8594,-2.6926,-2.8107,-2.9219,-3.04,-3.3313,-3.4031,-3.3275,-3.1738,-2.9911,-2.8017,-2.6589,0.0,0.0,0.0,0.0,0.0,0.0,0.0,-2.9304,-3.0949,-3.1964,-3.2514,-3.243,-3.2132,-3.1728,-3.1101,-3.0108,-2.9453,-2.9855,-2.9614,-2.9179,-2.8682,-2.9401,-3.0023,-2.9659,-2.9977,-3.0275,-3.0078,-3.0427,-3.0635,-3.0441,-3.0464,-3.0474,-3.0341,-2.995,-2.9529,-2.9127,-2.8973,-2.8921,-2.8901,-2.8238,-2.7945,-2.8148,-2.6878,-2.6127,-2.6052,-2.5937,-2.5877,-2.5877,-2.6904,-2.7117,-2.6517,-2.6965,-2.6912,-2.6428,-2.563,-2.531,-2.5404,-2.4896,-2.4982,-2.5585,-2.5904,-2.628,-2.6667,-2.7123,-2.7212,-2.7139,-2.7369,-2.7306,-2.7139,0.0,0.0,0.0,0.0,0.0,0.0,0.0,0.0,0.0,-2.4906,-2.5383,-2.5764,-2.5831,-2.6938,-2.8215,0.0,0.0,0.0,0.0,0.0,0.0,-3.6307,-3.7433,-3.6866,-3.4545,-3.384,-3.342,-3.324,-3.3261,-3.3759,-3.4687,-3.3707,-3.2781,-3.1917,-3.1096,-2.9547,-2.759,-2.9065,-2.9342,-2.9038,-3.2254,-3.303,-3.2211,-3.1336,-2.979,-2.7918,-2.6958,-2.643,-2.6374,-2.7259,0.0,0.0,0.0,0.0,-2.9299,-3.1974,-3.3115,-3.3315,-3.2265,-3.3136,-3.3619,-3.0859,-2.9805,-2.9629,-3.0433,-2.9766,-2.8941,-2.8697,-2.9079,-2.9386,-2.8918,-2.8941,-2.9048,-2.9105,-2.9042,-2.9072,-2.9358,-2.9386,-2.9437,-2.9719,-2.9463,-2.9217,-2.9134,-2.8613,-2.8299,-2.8451,-2.7743,-2.729,-2.7279,-2.6344,-2.5781,-2.5622,-2.5509,-2.5459,-2.5382,-2.6499,-2.6673,-2.5971,-2.6752,-2.6765,-2.5904,-2.5365,-2.5364,-2.5772,-2.5133,-2.5173,-2.5792,-2.6185,-2.6438,-2.6542,-2.6998,-2.6998,-2.6838,-2.74,-2.7249,-2.6838,0.0,0.0,0.0,0.0,0.0,0.0,0.0,0.0,0.0,0.0,-2.2946,-2.4599,-2.4321,-2.616,-2.77,0.0,0.0,0.0,-3.1691,0.0,0.0,-3.6598,-3.4248,-3.3354,-3.4384,-3.2212,-3.1349,-3.1895,-3.3787,-3.5833,-3.7985,-3.7619,-3.5889,-3.3092,-3.3192,-3.2284,-3.0654,-3.0234,-3.0117,-3.0419,-3.2735,-3.2957,-3.1815,-3.13,-3.0051,-2.8456,-2.7459,-2.6752,-2.6449,-2.749,-2.7837,0.0,0.0,0.0,-2.9573,-3.2262,-3.1967,-3.1394,-3.3977,-3.3556,-3.1822,-2.9546,-2.9481,-2.9827,-2.9107,-2.9459,-2.9286,-2.7111,-2.7764,-2.8502,-2.7782,-2.8073,-2.8307,-2.7893,-2.8194,-2.8575,-2.8855,-2.9033,-2.9219,-2.943,-2.9239,-2.8864,-2.8467,-2.852,-2.8483,-2.8348,-2.8131,-2.7912,-2.7554,-2.7302,-2.6784,-2.6031,-2.6153,-2.6064,-2.5645,-2.622,-2.6259,-2.5723,-2.6103,-2.5915,-2.5232,-2.4974,-2.5225,-2.5725,-2.4932,-2.4812,-2.5272,-2.5334,-2.5627,-2.6065,-2.6521,-2.7009,-2.751,-2.7573,-2.7552,-2.751,0.0,0.0,0.0,0.0,0.0,0.0,0.0,0.0,0.0,0.0,0.0,-2.2816,-2.404,-2.5153,0.0,-2.7814,-2.9335,-3.0914,-3.2576,-3.3393,-3.3786,-3.3685,-3.2497,-3.1612,-3.1148,-2.9951,-3.0373,-3.2563,-3.4357,-3.6947,-4.0249,-4.1311,-4.0371,-3.767,-3.6274,-3.4425,-3.2311,-3.1536,-3.0304,-2.9085,-3.0994,-3.0679,-2.9271,-3.0608,-2.9772,-2.8004,-2.9075,-2.8691,-2.781,-2.8494,-2.8626,-2.868,-2.9666,0.0,0.0,0.0,-3.3255,-3.3097,-3.3636,-3.2145,-3.0241,-2.9323,-2.9165,-2.9367,-2.9862,-2.9704,-2.9147,-2.7752,-2.7681,-2.7544,-2.6552,-2.6907,-2.7235,-2.6907,-2.7369,-2.7865,-2.8126,-2.8369,-2.8604,-2.8955,-2.8628,-2.8397,-2.8479,-2.8126,-2.798,-2.8286,-2.7806,-2.7342,-2.6992,-2.6812,-2.6339,-2.5563,-2.583,-2.6055,-2.6094,-2.6289,-2.6339,-2.6271,-2.6161,-2.5873,-2.5483,-2.5,-2.5086,-2.5585,-2.4536,-2.4459,-2.5057,-2.5145,-2.5482,-2.5962,-2.6438,-2.6941,-2.7452,-2.7547,-2.7547,-2.7452,0.0,0.0,0.0,0.0,0.0,0.0,0.0,0.0,0.0,0.0,0.0,-2.1844,-2.3337,0.0,0.0,0.0,-2.9198,-3.1121,-3.302,-3.3003,-3.2482,-3.1505,-3.0856,-2.9916,-2.8621,-2.8048,-2.9151,-3.2048,-3.459,-3.7583,-4.1097,-4.3956,-4.4465,-4.2887,-4.0052,-3.724,-3.4519,-3.3871,-3.1989,-2.9444,-2.9976,-2.899,-2.7365,-2.9033,-2.8381,-2.6994,-2.984,-2.9854,-2.8748,-2.9976,-2.9932,-2.9531,-3.0677,-3.1171,0.0,0.0,0.0,-3.5397,-3.3201,-3.155,-3.018,-2.9236,-2.8849,-2.8925,-2.9769,-2.9387,-2.8567,-2.7665,-2.7174,-2.6454,-2.5073,-2.5627,-2.6123,-2.5797,-2.6345,-2.6889,-2.7275,-2.761,-2.7985,-2.837,-2.8145,-2.8049,-2.8386,-2.7735,-2.755,-2.8076,-2.7421,-2.6832,-2.6496,-2.6403,-2.5963,-2.5125,-2.5605,-2.5957,-2.6055,-2.6172,-2.6192,-2.6084,-2.5983,-2.5749,-2.5305,-2.4828,-2.4822,-2.5013,-2.4191,-2.4233,-2.4904,-2.4941,-2.53,-2.582,-2.6048,-2.6484,-2.7071,-2.7317,-2.7332,-2.7143,0.0,0.0,0.0,0.0,0.0,0.0,0.0,0.0,0.0,0.0,0.0,0.0,-2.1475,-2.4271,-2.6398,-2.6789,-2.9434,-3.1459,-3.2367,-3.1589,-3.1302,-3.1819,-2.8716,0.0,-2.8497,-2.7003,-2.7029,-2.8654,-3.4185,-3.7889,-3.9914,-4.483,-4.7387,-4.7707,-4.4549,-4.1387,-3.8323,-3.7934,-3.6351,-3.381,-3.1161,-2.9112,-2.7515,-2.605,-2.5273,-2.5369,-2.8746,-2.9056,-2.8395,-3.1981,-3.1688,-3.0123,-3.2049,-3.2586,-3.2978,0.0,0.0,0.0,-3.3637,-3.321,-3.2805,-2.8771,-2.8369,-2.863,-2.7414,-2.7581,-2.7489,-2.5478,-2.5421,-2.5145,-2.3289,-2.4242,-2.5041,-2.4326,-2.4821,-2.5518,-2.6195,-2.691,-2.7426,-2.7605,-2.7852,-2.7899,-2.7662,-2.7473,-2.7404,-2.7615,-2.7425,-2.7071,-2.6544,-2.683,-2.6475,-2.5145,-2.5898,-2.5957,-2.5184,-2.5566,-2.5352,-2.4531,-2.5204,-2.4947,-2.3893,-2.4117,-2.4117,-2.3873,-2.3843,-2.4233,-2.4863,-2.4429,-2.4808,-2.5564,-2.5101,-2.5434,-2.6316,-2.6823,-2.6852,-2.6708,0.0,0.0,0.0,0.0,0.0,0.0,0.0,0.0,0.0,0.0,0.0,0.0,0.0,-2.4201,-2.5465,-2.7621,-3.0529,-3.2489,-3.2984,-3.2139,-3.1178,-3.0209,-2.8723,-2.7952,-2.7979,-2.7194,-2.7862,-3.0072,-3.3716,-3.6961,-3.9743,-4.2884,-4.4608,-4.4991,-4.4458,-4.2854,-4.043,-3.7989,-3.5676,-3.3385,-3.025,-2.7873,-2.6231,-2.6364,-2.567,-2.5021,-2.8316,-3.0117,-3.1195,-3.2803,-3.3595,-3.4078,-3.4982,-3.5136,-3.5308,-3.6845,-3.7534,-3.7262,-3.4589,-3.3416,-3.2504,-3.057,-2.9046,-2.8145,-2.8424,-2.7546,-2.6346,-2.5316,-2.5204,-2.4854,-2.3451,-2.3811,-2.4213,-2.3942,-2.4366,-2.4933,-2.5487,-2.6022,-2.666,-2.7353,-2.7478,-2.7699,-2.8013,-2.7571,-2.7404,-2.7594,-2.7262,-2.688,-2.6496,-2.6772,-2.6487,-2.5508,-2.6074,-2.6113,-2.5508,-2.579,-2.5574,-2.4824,-2.5006,-2.4677,-2.4013,-2.3969,-2.3831,-2.358,-2.3318,-2.3519,-2.3982,-2.4012,-2.4451,-2.5016,-2.4612,-2.5088,-2.6027,-2.6182,-2.6393,-2.6641,0.0,0.0,0.0,-2.714,0.0,-2.538,-2.5297,-2.4553,-2.4115,-2.4477,0.0,0.0,0.0,0.0,-2.6639,-2.947,-3.1463,-3.2916,-3.3817,-3.3163,-3.1937,-3.0263,-2.9555,-2.8762,-2.7852,-2.721,-2.8052,-3.0535,-3.3129,-3.5973,-3.8921,-4.127,-4.2524,-4.2809,-4.3107,-4.2674,-4.155,-3.8448,-3.6538,-3.5093,-2.9964,-2.8044,-2.8206,-2.7313,-2.687,-2.7103,-2.9618,-3.1366,-3.2461,-3.2632,-3.318,-3.4026,-3.5644,-3.7053,-3.819,-3.8839,-3.873,-3.7933,-3.5827,-3.4214,-3.2892,-3.1829,-3.0009,-2.8424,-2.8451,-2.7071,-2.5526,-2.4585,-2.4353,-2.4028,-2.3229,-2.3203,-2.3339,-2.3417,-2.3802,-2.427,-2.4678,-2.5359,-2.5995,-2.6547,-2.6941,-2.7348,-2.7687,-2.7488,-2.7357,-2.7499,-2.6975,-2.6622,-2.6496,-2.6395,-2.6172,-2.5693,-2.5879,-2.5879,-2.5693,-2.5711,-2.5464,-2.4844,-2.4598,-2.4211,-2.3732,-2.3619,-2.3506,-2.3343,-2.3057,-2.307,-2.3408,-2.3412,-2.3888,-2.4556,-2.401,-2.4547,-2.5591,-2.5666,-2.5936,-2.6295,-2.8424,-2.8118,-2.794,-2.8394,-2.7546,-2.6371,-2.5069,-2.5564,-2.5135,-2.2412,0.0,0.0,0.0,0.0,0.0,-3.2259,-3.2112,-3.2766,-3.4787,-3.4366,-3.3514,-3.2254,-3.0988,-2.9613,-2.817,-2.6855,-2.7348,-2.9574,-3.2438,-3.5002,-3.7165,-4.0188,-4.168,-4.1778,-4.0826,-4.0824,-4.1496,-3.9546,-3.9308,-3.9399,-3.0521,-2.9794,-3.3525,-2.8472,-2.8479,-3.1209,-3.2319,-3.2399,-3.1937,-3.1571,-3.0535,-3.0132,-3.428,-3.8308,-4.1444,-4.1193,-4.057,-3.9459,0.0,0.0,0.0,-3.2462,-3.1157,-2.965,-2.7203,-2.6118,-2.5118,-2.3237,-2.2831,-2.2675,-2.2435,-2.236,-2.2435,-2.2644,-2.3091,-2.3448,-2.3743,-2.4759,-2.5445,-2.5215,-2.6247,-2.6882,-2.6604,-2.7019,-2.7268,-2.7268,-2.6598,-2.6256,-2.6436,-2.5817,-2.5559,-2.5674,-2.5312,-2.5293,-2.5674,-2.5273,-2.4824,-2.4394,-2.3965,-2.3555,-2.3101,-2.3101,-2.3081,-2.3062,-2.2952,-2.3008,-2.3158,-2.2694,-2.318,-2.4116,-2.3411,-2.3846,-2.4933,-2.5406,-2.5553,-2.561,-3.023,-2.8724,-2.7946,-2.9825,-2.829,-2.7193,-2.8371,-2.7768,-2.7221,0.0,0.0,0.0,-2.9365,-3.1381,-3.2939,-3.3623,-3.3728,-3.4226,-3.5326,-3.388,-3.2783,-3.2354,-3.0958,-2.9645,-2.8576,-2.7613,-2.7656,-2.8725,-3.1703,-3.3769,-3.4938,-3.7823,-3.8701,-3.7841,-3.743,-3.7238,-3.7248,-3.7156,-3.8122,-3.9062,-3.1215,-2.9923,-3.2093,-2.6351,-2.4986,-2.6186,-2.6286,-2.958,-3.3448,-3.0778,-3.5125,-4.1704,-4.2231,-4.2796,-4.3132,-4.2441,-4.2369,-4.1984,-3.9804,0.0,0.0,0.0,0.0,0.0,-3.0057,-2.8309,-2.6286,-2.4817,-2.4246,-2.3522,-2.1895,-2.1596,-2.174,-2.2121,-2.2483,-2.2649,-2.2664,-2.3467,-2.4263,-2.4717,-2.5307,-2.5944,-2.6563,-2.6418,-2.6314,-2.6314,-2.5778,-2.5502,-2.5531,-2.5357,-2.5369,-2.5674,-2.5557,-2.5449,-2.5254,-2.5012,-2.4579,-2.3965,-2.3713,-2.3393,-2.3101,-2.3101,-2.2925,-2.2656,-2.2498,-2.2507,-2.2694,-2.2778,-2.3227,-2.3888,-2.3556,-2.3802,-2.4438,-2.4847,-2.5013,-2.5202,-3.0948,-2.9452,-2.8695,-3.0757,-2.9669,-2.8703,-2.9434,-2.944,-2.9434,0.0,0.0,0.0,-3.3125,-3.4474,-3.5072,-3.4666,-3.4963,-3.5314,-3.558,-3.474,-3.3807,-3.2864,-3.1648,-3.036,-2.8978,-2.8169,-2.8155,-2.8899,-3.1477,-3.3244,-3.4288,-3.6282,-3.6704,-3.574,-3.5535,-3.5156,-3.472,-3.6105,-3.809,-3.9598,-3.238,-3.1889,-3.4801,-2.859,-2.7002,-2.7941,-2.6689,-2.9991,-3.4086,-2.8854,-3.3517,-4.1437,-4.0743,-4.2459,-4.4593,-4.3641,-4.3719,-4.3634,-4.1283,-3.9209,-3.7442,-3.6254,0.0,0.0,-2.9945,-2.8068,-2.5889,-2.3465,-2.2657,-2.2064,-2.0948,-2.07,-2.0786,-2.1119,-2.1497,-2.1845,-2.1994,-2.2465,-2.2961,-2.3388,-2.4089,-2.4771,-2.5391,-2.5619,-2.576,-2.576,-2.5234,-2.4862,-2.4751,-2.4802,-2.4922,-2.5128,-2.5148,-2.5059,-2.4805,-2.4513,-2.4179,-2.3789,-2.358,-2.3308,-2.2957,-2.2914,-2.2679,-2.2352,-2.186,-2.2043,-2.267,-2.2613,-2.3083,-2.3825,-2.3617,-2.384,-2.4395,-2.4937,-2.5144,-2.5284,0.0,-3.0392,-3.0068,-3.1663,-3.1328,-3.0552,-2.9755,-3.101,-3.1836,0.0,-3.3925,-3.6264,-3.7132,-3.7356,-3.7,-3.5799,-3.6165,-3.631,-3.6049,-3.6309,-3.5658,-3.3779,-3.2691,-3.1245,-2.9486,-2.8621,-2.8621,-2.9451,-3.1599,-3.3251,-3.4344,-3.5358,-3.5444,-3.4771,-3.4442,-3.3909,-3.3457,-3.5786,-3.8274,-4.0072,-3.4196,-3.5101,-3.9206,-3.2986,-3.1536,-3.2508,-3.0055,-3.1596,-3.385,-2.7625,-2.937,-3.4245,-3.4785,-3.9456,-4.4709,-4.4524,-4.4449,-4.4009,-4.2057,-4.0041,-3.8296,-3.7287,-3.5307,0.0,-2.8764,-2.7216,-2.5464,-2.1509,-2.042,-2.022,-2.0347,-2.0213,-2.019,-2.0463,-2.0723,-2.1047,-2.1556,-2.1722,-2.175,-2.1714,-2.2709,-2.3426,-2.3638,-2.4636,-2.5308,-2.5313,-2.4699,-2.4271,-2.4083,-2.4232,-2.4329,-2.4368,-2.4368,-2.4348,-2.429,-2.3984,-2.3769,-2.3711,-2.3501,-2.3173,-2.2755,-2.2568,-2.2355,-2.2024,-2.1385,-2.1719,-2.2802,-2.2464,-2.2916,-2.3824,-2.3636,-2.3924,-2.4524,-2.5317,-2.5513,-2.5503,-3.224,-3.1943,-3.2215,-3.3816,-3.2404,-3.1746,-3.3817,-3.3907,-3.4455,-3.6461,-3.8934,-4.0485,-4.0464,-4.0471,-4.0039,-3.8922,-3.8368,-3.8204,-3.8647,-3.6335,-3.51,-3.5562,-3.2593,-3.0743,-3.0351,-2.9457,-2.8812,-2.8538,-3.2022,-3.3326,-3.2633,-3.4552,-3.4743,-3.341,-3.2377,-3.2161,-3.2718,-3.4713,-3.6167,-3.7218,-3.7648,-3.8377,-3.866,-3.3845,-3.0335,-2.777,-2.6361,-2.8416,-3.2143,-3.4297,-3.335,-3.2345,-3.8325,-3.8933,-3.8497,-4.3857,-4.331,-4.1238,-4.2418,-4.1712,-4.0063,-3.7721,-3.5952,0.0,-3.2663,-3.1649,-3.0127,-2.6832,-2.5618,-2.464,-2.3034,-2.2193,-2.2194,-2.3557,-2.2168,-2.0804,-2.0532,-2.1132,-2.1509,-2.1342,-2.1575,-2.1993,-2.2695,-2.3156,-2.3418,-2.3431,-2.3424,-2.3587,-2.384,-2.3912,-2.3971,-2.4137,-2.4322,-2.4166,-2.3589,-2.3738,-2.3613,-2.3218,-2.3047,-2.2791,-2.2542,-2.2524,-2.2086,-2.1407,-2.1947,-2.2247,-2.2363,-2.283,-2.3233,-2.3591,-2.3935,-2.4039,-2.4071,-2.5117,-2.5173,-2.4826,-3.3143,-3.2609,-3.2651,-3.4233,-3.3457,-3.3261,-3.5003,-3.5248,-3.6014,-3.8265,-4.1087,-4.2867,-4.2836,-4.2743,-4.198,-4.0287,-3.9804,-3.9224,-3.8368,-3.6908,-3.5795,-3.5205,-3.2842,-3.1288,-3.0813,-3.0122,-2.9384,-2.8505,-3.2006,-3.3123,-3.2034,-3.3265,-3.3077,-3.1614,-3.0712,-3.0221,-3.0338,-3.3937,-3.6384,-3.7785,-3.6998,-3.6137,-3.4888,-3.1143,-2.8068,-2.5653,-2.5117,-2.5975,-2.8057,-3.2371,-3.2744,-3.1779,-3.4142,-3.5421,-3.6906,-4.1094,-4.1082,-4.0204,-4.2567,-4.2366,-4.1049,-3.9254,-3.7505,0.0,0.0,-3.2024,-3.0306,-2.7311,-2.5091,-2.3642,-2.3481,-2.2133,-2.1548,-2.2996,-2.1762,-2.0795,-2.1394,-2.0393,-1.9907,-2.0759,-2.0341,-2.0463,-2.1552,-2.1804,-2.2109,-2.2676,-2.2914,-2.3322,-2.391,-2.3619,-2.3627,-2.3965,-2.3796,-2.3485,-2.2969,-2.3271,-2.3144,-2.2519,-2.2732,-2.2663,-2.2308,-2.2129,-2.187,-2.1508,-2.1629,-2.1824,-2.2018,-2.2276,-2.2663,-2.3188,-2.3754,-2.3849,-2.3791,-2.4836,-2.4974,-2.482,-3.3376,-3.2972,-3.2861,-3.4157,-3.4149,-3.4209,-3.4851,-3.5706,-3.7123,-3.9657,-4.2686,-4.4813,-4.5266,-4.4366,-4.3069,-4.1411,-4.0217,-3.899,-3.766,-3.693,-3.5934,-3.4568,-3.2987,-3.1792,-3.1075,-3.0608,-2.99,-2.8844,-3.1694,-3.2696,-3.1873,-3.2061,-3.1596,-3.0543,-2.9498,-2.9029,-2.9268,-3.3281,-3.6118,-3.7691,-3.4659,-3.3606,-3.3635,-3.0434,-2.8004,-2.6189,-2.5186,-2.4314,-2.4237,-2.829,-3.0216,-3.0734,-2.977,-3.1603,-3.4781,-3.8465,-3.8762,-3.8651,-4.2155,-4.2597,-4.1773,-4.0566,-3.9041,-3.7026,0.0,0.0,0.0,-2.7242,-2.435,-2.271,-2.3922,-2.2374,-2.1296,-2.2502,-2.1485,-2.1224,-2.3175,-2.0241,-1.8758,-2.1086,-1.9637,-1.9201,-2.1036,-2.1379,-2.1694,-2.2271,-2.3002,-2.3507,-2.3718,-2.3281,-2.3213,-2.3518,-2.3198,-2.2808,-2.2434,-2.273,-2.2519,-2.1758,-2.2401,-2.239,-2.1846,-2.1728,-2.1644,-2.1647,-2.1312,-2.1362,-2.1675,-2.1678,-2.1997,-2.2563,-2.3335,-2.3559,-2.363,-2.4486,-2.4791,-2.4824,-3.2266,-3.3297,-3.4157,-3.4585,-3.3802,-3.339,-3.4118,-3.5401,-3.8215,-4.359,-4.5824,-4.7425,-4.8856,-4.5248,-4.3002,-4.3629,-3.8727,-3.6497,-3.8648,-3.4981,-3.3592,-3.5558,-3.2579,-3.1007,-3.1161,-3.0682,-3.0049,-2.932,-3.1113,-3.1929,-3.1796,-3.1447,-3.1514,-3.1829,-2.9065,-2.9868,-3.3235,-3.2613,-3.2405,-3.2422,-3.1862,-3.5985,-4.2129,-3.8602,-3.4808,-3.0785,-2.6214,-2.3916,-2.3657,-2.7394,-2.7421,-2.6868,-3.2928,-2.9954,-2.6627,-3.8375,-3.7435,-3.3984,-4.0531,-4.2671,-4.25,-4.0334,-3.9551,-3.8757,-3.6482,0.0,-3.359,-3.0669,0.0,-2.7267,-2.6636,0.0,0.0,-2.5822,-2.3434,-2.2511,-2.5644,-2.174,-2.0019,-2.3945,-2.0366,-1.894,-2.2403,-2.3198,-2.2974,-2.1789,-2.3802,-2.432,-2.2489,-2.2664,-2.2725,-2.2542,-2.2534,-2.2473,-2.2221,-2.2104,-2.1777,-2.1268,-2.171,-2.159,-2.1053,-2.1535,-2.1591,-2.1284,-2.1749,-2.1704,-2.1307,-2.2007,-2.1954,-2.1488,-2.2568,-2.3222,-2.356,-2.4279,-2.4371,-2.4312,-3.155,-3.2474,-3.3198,-3.3597,-3.335,-3.3364,-3.4045,-3.6617,-3.9844,-4.3571,-4.7038,-4.9759,-5.1451,-5.1084,-4.9505,-4.6586,-4.3704,-4.1362,-3.9507,-3.6442,-3.5197,-3.6431,-3.3664,-3.1815,-3.1202,-3.0969,-3.0554,-2.9921,-3.1253,-3.2214,-3.2732,-3.0307,-2.9974,-3.1237,-2.6755,-2.6243,-2.8937,-3.1177,-3.1885,-3.1762,-3.4915,-3.7929,-3.9791,-3.318,-2.9268,-2.6959,-2.4289,-2.2917,-2.2561,-2.3691,-2.509,-2.6303,-2.6165,-2.636,-2.7842,-3.397,-3.4624,-3.4634,-4.0351,-4.0735,-3.9921,-4.1519,-3.9535,-3.7614,-3.9129,-3.7585,-3.5357,-3.3723,0.0,0.0,0.0,0.0,0.0,0.0,-2.3407,-2.2439,-2.4511,-2.2197,-2.1419,-2.4524,-2.2139,-2.0764,-2.206,-2.2217,-2.1722,-2.0509,-2.287,-2.3694,-2.231,-2.2222,-2.2326,-2.2618,-2.2182,-2.1742,-2.1428,-2.1877,-2.1645,-2.0859,-2.1491,-2.1667,-2.1436,-2.155,-2.1645,-2.1745,-2.201,-2.1943,-2.1763,-2.1973,-2.2068,-2.2188,-2.264,-2.2895,-2.3004,-2.3656,-2.3903,-2.4067,-3.0024,-3.1062,-3.2039,-3.2658,-3.2665,-3.3137,-3.4806,-3.7857,-4.1024,-4.4004,-4.7732,-5.1053,-5.3527,-5.3295,-5.1667,-4.8449,-4.5124,-4.218,-3.9753,-3.7237,-3.5823,-3.5764,-3.4278,-3.2437,-3.0164,-3.0994,-3.108,-3.024,-3.1296,-3.2255,-3.3008,-2.9366,-2.8964,-3.1011,-2.5852,-2.4572,-2.6522,-2.9523,-3.0495,-3.029,-3.37,-3.4185,-3.2326,-2.764,-2.466,-2.2925,-2.2105,-2.1526,-2.1196,-2.1658,-2.3364,-2.4845,-2.1959,-2.3431,-2.6688,-2.9117,-3.0564,-3.2632,-3.8352,-3.8346,-3.7713,-4.2043,-4.0002,-3.7767,-4.088,-3.9076,-3.6541,-3.567,-3.2318,0.0,0.0,0.0,-2.5413,-2.5451,0.0,-2.2773,-2.4102,-2.281,-2.2638,-2.5102,-2.4037,-2.267,-2.162,-2.2238,-2.1858,-1.9891,-2.2523,-2.3392,-2.1428,-2.1362,-2.1684,-2.2274,-2.1675,-2.1197,-2.0809,-2.1507,-2.1332,-2.0429,-2.1291,-2.168,-2.1556,-2.1527,-2.1645,-2.1935,-2.201,-2.1942,-2.1842,-2.1935,-2.2263,-2.2725,-2.284,-2.2896,-2.2979,-2.3555,-2.385,-2.4082,-2.7233,-2.92,-3.1206,-3.2342,-3.1663,-3.2364,-3.6573,-3.8599,-4.1373,-4.6238,-4.836,-5.1018,-5.5136,-4.8474,-4.5037,-4.849,-3.9044,-3.4709,-3.912,-3.6106,-3.3715,-3.2667,-3.3829,-3.2257,-2.7505,-3.0542,-3.1497,-3.0094,-3.0927,-3.1569,-3.1991,-2.879,-2.9018,-3.1882,-2.7594,-2.7182,-2.9539,-2.7726,-2.6769,-2.6259,-2.4112,-2.1723,-2.0156,-2.6054,-2.5289,-2.0996,-2.0328,-1.9664,-1.9615,-2.2947,-2.2452,0.0,-2.4557,-2.2126,-1.9114,-2.4862,-2.501,-2.506,-3.3205,-3.5757,-3.7081,-4.1137,-4.1423,-4.0802,-4.1163,-3.9425,-3.7373,-3.6044,-3.3291,-3.0896,-3.0073,-2.8641,-2.746,-2.7021,-2.5037,0.0,0.0,-2.4023,-2.358,-2.6298,-2.5675,-2.405,-2.1552,-2.4604,-2.4873,-2.0405,-2.3641,-2.3886,-1.9354,-1.989,-2.0525,-2.0936,-2.0935,-2.0828,-2.0607,-2.084,-2.0603,-1.9941,-2.1004,-2.1308,-2.0917,-2.1308,-2.1512,-2.1515,-2.1727,-2.158,-2.1268,-2.2083,-2.2441,-2.2542,-2.2941,-2.3477,-2.4079,-2.4283,-2.4375,-2.4434,-2.6985,-2.758,-2.8695,-3.0859,-3.1549,-3.3203,-3.7387,-4.0384,-4.2388,-4.2945,-4.6655,-4.8832,-4.7833,-4.7593,-4.6701,-4.4682,-4.0999,-3.9256,-4.0389,-3.6997,-3.471,-3.4109,-3.4646,-3.2429,-2.7001,-3.0181,-3.165,-3.1156,-3.1125,-3.2095,-3.389,-3.0004,-2.9921,-3.2813,-2.7927,-2.5954,-2.6423,-2.7338,-2.5898,-2.293,-2.2016,-2.1187,-2.0637,-2.2147,-2.1262,-1.9211,-1.9134,-1.8762,-1.839,-1.9265,-1.9478,-1.919,-1.8414,-1.8638,-1.9576,-2.1475,-2.3461,-2.5914,0.0,0.0,-3.1871,-3.8427,-3.7854,-3.6929,-4.1831,-4.0998,-3.866,-3.6841,-3.474,-3.2812,-3.1308,-2.98,-2.8315,-2.6732,-2.5196,-2.4205,0.0,-2.3859,-2.444,-2.6457,-2.5272,-2.3854,-2.2719,-2.3031,-2.2191,-1.9515,-2.1521,0.0,-1.9084,-1.952,-2.0037,-2.0428,-2.0497,-2.0466,-2.0407,-2.0859,-2.0971,-2.0793,-2.1239,-2.1431,-2.1326,-2.1583,-2.155,-2.1322,-2.197,-2.2106,-2.1902,-2.2722,-2.3172,-2.3428,-2.394,-2.4399,-2.473,-2.4485,-2.4506,-2.4723,-2.6134,-2.6213,-2.7142,-2.9963,-3.1821,-3.4303,-3.8355,-4.1817,-4.342,-4.1932,-4.5651,-4.7108,-4.3622,-4.4402,-4.416,-4.1432,-3.9494,-3.9047,-4.044,-3.6734,-3.439,-3.4245,-3.3343,-3.0336,-2.4862,-2.8473,-3.0331,-3.0148,-3.1302,-3.2716,-3.4244,-3.0485,-2.9929,-3.2058,-2.89,-2.608,-2.3855,-2.6458,-2.459,-1.9752,-1.8893,-1.8434,-1.8273,-1.7683,-1.8258,-1.9196,-1.8035,-1.7422,-1.7136,-1.6727,-1.6753,-1.6593,-1.4221,-1.4943,-1.6638,-1.6588,-1.8951,-2.2257,-2.5385,-2.6153,0.0,-3.4401,-3.408,-3.3715,-3.9609,-3.8904,-3.6673,-3.5667,-3.4396,-3.2608,-2.9783,-2.9485,-2.8885,-2.6451,-2.5588,-2.486,0.0,-2.4013,-2.4664,-2.5418,-2.4646,-2.3944,-2.3684,-2.3223,-2.2019,-1.9811,-2.0754,-2.0733,-1.9213,-1.9088,-1.9303,-1.9879,-2.0053,-2.0137,-2.0137,-2.0699,-2.0926,-2.0849,-2.1116,-2.1267,-2.1288,-2.1431,-2.1397,-2.1265,-2.199,-2.2205,-2.218,-2.313,-2.3732,-2.4082,-2.4644,-2.5013,-2.5273,-2.498,-2.4977,-2.5177,-2.464,-2.5186,-2.6749,-2.9832,-3.2619,-3.5745,-3.9663,-4.2975,-4.4472,-4.3054,-4.5244,-4.5608,-4.2089,-3.8699,-3.7258,-3.854,-3.4422,-3.3988,-3.9052,-3.5215,-3.273,-3.2783,-3.0125,-2.634,-2.1308,-2.5762,-2.7869,-2.7316,-3.1412,-3.3286,-3.2946,-3.0235,-2.9223,-2.9694,-3.0355,-2.7426,-2.2166,-2.506,-2.263,-1.668,-1.4545,-1.3401,-1.2995,-1.2992,-1.6357,-2.0605,-1.6918,-1.5746,-1.5826,-1.5542,-1.4628,-1.3387,-1.2455,-1.1358,-1.045,-1.069,-1.198,-1.4432,-1.9389,-2.2199,-2.4823,-2.9373,-3.0426,0.0,0.0,-3.3454,-3.1746,-3.252,-3.2152,-3.0371,-2.5964,-2.7838,-2.9153,-2.64,-2.6291,-2.5999,-2.4456,-2.4495,-2.4418,-2.3659,-2.4031,-2.4325,-2.4242,-2.4949,-2.4169,-2.1158,-2.1341,-2.0937,-1.9469,-1.8637,-1.8562,-1.9274,-1.9687,-1.9883,-1.9942,-2.0308,-2.0429,-2.0279,-2.0673,-2.0859,-2.09,-2.0948,-2.1012,-2.1227,-2.1726,-2.1955,-2.2053,-2.3301,-2.4062,-2.4492,-2.4902,-2.5352,-2.5693,-2.5693,-2.5693,-2.5693,-2.4227,-2.6378,-2.9226,-3.2264,-3.4607,-3.7495,-4.1694,-4.5438,-4.5856,-4.0504,-4.2032,-4.0487,-3.2491,-3.1365,-3.1115,-3.1011,-2.9884,-3.0765,-3.4623,-3.2757,-3.1043,-2.9969,-2.9567,-2.6912,-2.1611,-2.5982,-2.8084,-2.7618,-3.0909,-3.2301,-3.1746,-3.0559,-2.9105,-2.7559,-2.9613,-2.6757,-2.0648,-2.3566,-2.0278,-1.3059,-1.1288,-1.1946,-1.3727,-1.1207,-1.3614,-1.814,-1.5995,-1.5528,-1.5774,-1.4879,-1.3983,-1.2995,-1.2246,-0.9924,-0.8081,-1.0663,-1.2002,-1.328,-1.6142,-1.9067,-2.2119,-2.5553,-2.6591,-2.7675,0.0,0.0,0.0,0.0,0.0,0.0,-2.728,-2.7656,-2.8062,-2.815,-2.6731,-2.5483,-2.4988,-2.4726,-2.4904,-2.5766,-2.5386,-2.4575,-2.3366,-2.2766,-2.1784,-2.0084,-2.0529,-1.9978,-1.8028,-1.9111,-1.9629,-1.9295,-1.9561,-1.9947,-2.0411,-2.0536,-2.0852,-2.1404,-2.1329,-2.1253,-2.112,-2.1413,-2.1359,-2.1053,-2.2247,-2.2723,-2.2653,-2.3775,-2.4512,-2.4922,-2.5067,-2.5352,-2.5693,-2.5693,-2.5693,-2.5693,-2.3084,-2.652,-3.0646,-3.4206,-3.5856,-3.7731,-4.0962,-4.5345,-4.5955,-3.9554,-4.0151,-3.8227,-3.0557,-2.8499,-2.7393,-2.6794,-2.6747,-2.8315,-3.1849,-3.0035,-2.8836,-2.895,-2.6912,-2.3919,-1.9979,-2.2384,-2.4347,-2.5577,-2.8255,-2.9976,-3.0787,-2.987,-2.7975,-2.5533,-2.8671,-2.6601,-2.071,-2.078,-1.7987,-1.3126,-0.9871,-0.9896,0.0,-0.9931,-1.1737,-1.5215,-1.4682,-1.4762,-1.503,-1.4196,-1.3347,-1.2432,-1.1451,-0.8776,-0.6552,-0.9402,-1.0315,-1.0945,-1.3543,-1.6581,-1.9365,-2.0799,-2.1855,-2.3289,-2.632,-2.6086,-2.5135,0.0,-2.478,-2.4616,0.0,-2.5373,-2.7721,-2.9312,-2.8196,-2.6993,-2.66,-2.616,-2.6075,-2.6506,-2.5685,-2.4912,-2.4527,-2.3481,-2.2317,-2.1048,-2.1282,-2.1186,0.0,-2.0652,-2.0765,-2.0813,-2.1242,-2.1263,-2.0876,-2.1816,-2.2056,-2.1507,-2.1206,-2.1037,-2.0943,-2.1278,-2.1306,-2.1253,-2.2446,-2.2938,-2.3001,-2.4225,-2.4844,-2.5165,-2.5536,-2.5684,-2.5713,-2.5957,-2.5898,-2.5693,-2.2939,-2.7003,-3.1706,-3.592,-3.6778,-3.733,-3.8721,-4.3334,-4.4627,-3.8845,-3.8612,-3.7002,-3.1806,-2.7931,-2.5408,-2.4789,-2.4771,-2.6215,-2.9432,-2.7305,-2.6628,-2.8341,-2.3564,-1.9932,-1.7887,-1.774,-1.9317,-2.2673,-2.4823,-2.7085,-2.9466,-2.8214,-2.6102,-2.3535,-2.7332,-2.6197,-2.1293,-1.7825,-1.5659,-1.4006,-0.9182,-0.7744,-0.854,-0.8885,-1.0355,-1.2354,-1.3166,-1.3792,-1.4148,-1.3602,-1.2829,-1.1879,-1.0596,-0.7967,-0.5788,-0.8039,-0.8365,-0.865,-1.1912,-1.4828,-1.6818,-1.6347,-1.7249,-1.8909,-2.137,-2.1086,-2.0532,-2.1352,-2.2171,-2.1635,-1.8024,0.0,-2.7308,-2.9371,-2.8971,-2.8182,-2.7502,-2.6947,-2.649,-2.6148,-2.5165,0.0,-2.6439,-2.5426,-2.4176,-2.2949,-2.2959,-2.3267,0.0,0.0,-2.1655,-2.2274,-2.2938,-2.2745,-2.1638,-2.3224,-2.3259,-2.1722,-2.1011,-2.0696,-2.0737,-2.0951,-2.1272,-2.163,-2.2623,-2.313,-2.3364,-2.4643,-2.5106,-2.5204,-2.6094,-2.6172,-2.5752,-2.6289,-2.6191,-2.5771,-2.8999,-3.1433,-3.4204,-3.7869,-3.8319,-3.7893,-3.7117,-3.9719,-4.0147,-3.5519,-3.5091,-3.3189,-2.7921,-2.5838,-2.4471,-2.3749,-2.3902,-2.4292,-2.4699,-2.506,-2.5277,-2.5211,-2.2276,-2.0065,-1.8823,-1.7983,-1.8837,-2.15,-2.3597,-2.4958,-2.5655,-2.4961,-2.3602,-2.182,-2.4196,-2.345,-2.026,-1.7086,-1.3313,-0.9251,-0.6862,-0.6503,-0.7367,-0.7466,-0.8874,-1.1005,-1.203,-1.3275,-1.4318,-1.3619,-1.2831,-1.1885,-1.0529,-0.7997,-0.6177,-0.9444,-0.9596,-0.9456,-1.2853,-1.4684,-1.5665,-1.5717,-1.586,-1.6286,-1.7482,-1.7434,-1.7183,-1.7406,-1.7512,-1.8056,-1.9518,0.0,-2.4779,-2.6243,-2.4399,-2.2741,-2.2714,-2.1728,-2.1861,-2.4145,-2.366,-2.42,-2.682,-2.5593,-2.4396,-2.3824,-2.4673,-2.3978,-2.1039,0.0,-2.1517,0.0,-2.0117,-2.1319,0.0,0.0,-2.243,-2.4626,-2.2585,-2.1504,-2.1334,-2.1722,-2.1946,-2.2169,-2.3579,-2.4191,-2.4222,-2.506,-2.5315,-2.5243,-2.6426,-2.6426,-2.5791,-2.6621,-2.6641,-2.6181,-2.9715,-3.2897,-3.57,-3.7705,-3.7702,-3.6943,-3.5439,-3.4934,-3.4533,-3.4053,-3.3237,-3.1738,-2.9106,-2.5896,-2.3803,-2.342,-2.3112,-2.3071,-2.3289,-2.3763,-2.3836,-2.3215,-2.1612,-1.9757,-1.77,-1.5791,-1.6678,-2.044,-1.9885,-2.1302,-2.4621,-2.2991,-2.1857,-2.1181,-2.2136,-2.2818,-2.2912,-1.7143,-1.3013,-1.0081,-0.6712,-0.6165,-0.7369,-0.7715,-0.9284,-1.1388,-1.2756,-1.3572,-1.3841,-1.3056,-1.2341,-1.158,-0.9999,-0.7709,-0.6158,-0.9105,-0.8997,-0.8653,-1.2143,-1.3809,-1.4482,-1.4055,-1.4733,-1.5504,-1.5412,-1.6077,-1.6628,-1.6259,-1.6421,-1.7368,-1.9836,-2.2805,0.0,-2.4764,-2.496,-2.4472,-2.2581,-2.1768,-2.1755,-2.2743,-2.3036,-2.3761,-2.5277,-2.5468,-2.533,-2.4959,-2.5261,-2.4563,-2.2375,0.0,-2.1975,0.0,0.0,0.0,-2.3112,0.0,-2.3781,-2.4414,-2.2785,-2.2099,-2.2206,-2.2028,-2.2352,-2.3122,-2.4085,-2.4721,-2.5137,-2.561,-2.565,-2.5527,-2.6602,-2.6621,-2.6172,-2.7184,-2.7224,-2.6621,-2.9172,-3.3707,-3.7005,-3.6681,-3.673,-3.6165,-3.4154,-3.1183,-2.9996,-3.2302,-3.1176,-3.0092,-2.992,-2.5966,-2.3372,-2.3461,-2.2736,-2.2461,-2.2964,-2.2985,-2.272,-2.2008,-2.0773,-1.89,-1.638,-1.3341,-1.3954,-1.8388,-1.6361,-1.8057,-2.3246,-2.1638,-2.0826,-2.0617,-2.1092,-2.2157,-2.3217,0.0,-1.2733,-1.0792,-0.6818,-0.6066,-0.7402,-0.8259,-0.9921,-1.2019,-1.3576,-1.3894,-1.3466,-1.2743,-1.214,-1.1404,-0.9557,-0.7599,-0.6433,-0.8638,-0.8399,-0.8131,-1.1464,-1.2752,-1.2984,-1.2463,-1.3349,-1.4248,-1.3789,-1.5087,-1.6267,-1.5847,-1.636,-1.7574,-1.99,-2.2364,0.0,0.0,-2.5182,-2.5225,-2.2886,-2.1723,-2.1051,-2.0861,-2.1016,-2.1646,-2.2855,-2.3859,-2.4616,-2.5113,-2.5153,-2.4769,-2.3922,-2.3151,-2.2631,0.0,0.0,-2.3575,-2.3268,0.0,-2.4923,-2.4272,-2.3047,-2.2672,-2.3022,-2.2372,-2.2774,-2.3988,-2.448,-2.5197,-2.6039,-2.5991,-2.5976,-2.5957,-2.6769,-2.6867,-2.6671,-2.7724,-2.77,-2.7051,-2.9869,-3.5289,-3.873,-3.5429,-3.6579,-3.6908,-3.3948,-3.078,-2.8669,-2.829,-2.723,-2.6354,-2.5869,-2.4313,-2.3453,-2.3775,-2.3174,-2.2772,-2.2672,-2.2637,-2.2346,-2.1671,-1.9167,-1.7272,-1.6143,-1.2254,-1.1476,-1.4073,-1.526,-1.6881,-1.8941,-2.0734,-2.0814,-1.9456,-2.1645,0.0,0.0,-1.4064,-1.1031,-0.7039,-0.5705,-0.5803,-0.6812,-0.8104,-0.9811,-1.1712,-1.307,-1.3717,-1.3911,-1.3426,-1.2803,-1.1878,-0.9798,-0.8317,-0.7605,-0.9142,-0.9158,-0.9318,-1.2146,-1.1778,-1.0799,-1.18,-1.123,-1.0694,-1.1702,-1.3069,-1.4275,-1.4901,-1.5982,-1.7627,-2.0248,-1.8991,-1.9152,0.0,-2.0566,-1.8076,-2.0408,-1.7449,-1.5672,-1.7441,-1.5185,-1.5291,-1.9836,-1.9033,-1.9558,-2.2747,-2.426,-2.4268,-2.2483,-2.3085,-2.3361,-2.3024,-2.3081,-2.4684,-2.802,-2.4411,-2.4006,-2.6736,-2.4437,-2.3384,-2.3447,-2.3185,-2.3485,-2.4224,-2.5031,-2.5881,-2.6655,-2.6025,-2.5977,-2.6417,-2.7069,-2.7176,-2.7063,-2.7823,-2.7878,-2.7539,-2.6921,-3.1414,-3.4468,-3.2679,-3.3936,-3.4328,-3.1604,-2.9625,-2.8064,-2.7132,-2.6258,-2.5407,-2.4915,-2.3527,-2.2839,-2.3253,-2.2296,-2.1872,-2.2137,-2.1487,-2.091,-2.0501,-1.8267,-1.6338,-1.4877,-1.1737,-1.1199,-1.3297,-1.4371,-1.6105,-1.8455,-1.8652,-1.8401,0.0,0.0,-1.575,-1.4475,-1.0981,-0.849,-0.6782,-0.5579,-0.622,-0.8078,-0.8865,-1.0588,-1.2749,-1.4021,-1.4494,-1.4498,-1.4238,-1.3507,-1.2465,-1.0626,-0.9759,-0.9567,-1.0077,-0.9829,-0.9723,-1.0949,-1.0343,-0.9374,-0.9402,-0.9647,-0.9924,-1.0228,-1.2177,-1.4008,-1.4391,-1.5842,-1.7288,-1.806,-1.891,-1.9424,-1.9237,0.0,-1.8422,-1.7015,-1.5352,-1.4781,-1.6144,-1.4833,-1.4648,-1.6763,-1.8289,-1.9495,-2.0337,-2.2566,-2.3785,-2.3608,-2.2673,-2.2749,-2.3977,0.0,-2.3075,-2.6265,-2.4193,-2.4043,-2.5756,-2.454,-2.4073,-2.4325,-2.3574,-2.3861,-2.5062,-2.6012,-2.6734,-2.7102,-2.6517,-2.6467,-2.6777,-2.7055,-2.7373,-2.7752,-2.8448,-2.8608,-2.8535,-2.3913,-2.8198,-3.127,-2.9924,-3.1892,-3.2706,-2.9817,-2.8877,-2.7997,-2.6647,-2.5689,-2.4915,-2.4263,-2.3065,-2.2405,-2.2635,-2.1794,-2.1254,-2.1427,-2.0528,-1.9683,-1.9086,-1.6813,-1.4877,-1.3495,-1.0841,-1.0163,-1.1696,-1.2869,-1.4456,-1.648,0.0,0.0,0.0,-1.3629,-1.2952,-1.3204,-0.905,-0.7259,-0.7189,-0.6052,-0.6868,-0.8946,-0.9645,-1.1385,-1.3562,-1.4976,-1.5477,-1.5495,-1.5355,-1.4755,-1.3651,-1.1674,-1.106,-1.1017,-1.1112,-1.0851,-1.0512,-1.0336,-0.9424,-0.8388,-0.7835,-0.8263,-0.8923,-0.917,-1.1473,-1.3752,-1.4582,-1.6093,-1.714,-1.6765,-1.8448,-1.9261,-1.7237,0.0,0.0,-1.619,-1.4839,-1.4535,-1.5741,-1.4544,-1.4085,-1.5208,-1.7058,-1.8193,-1.8256,-2.037,-2.224,-2.3571,-2.2867,0.0,0.0,0.0,0.0,-2.5142,-2.4296,-2.4239,-2.4995,-2.4703,-2.4703,-2.485,-2.4002,-2.4306,-2.5599,-2.6338,-2.7013,-2.7456,-2.6971,-2.6949,-2.7207,-2.731,-2.7668,-2.8239,-2.8767,-2.8973,-2.9026,-2.1739,-2.7096,-3.0709,-2.7322,-3.103,-3.3179,-2.9288,-2.9002,-2.8438,-2.6392,-2.52,-2.4228,-2.3515,-2.2722,-2.2289,-2.2224,-2.1912,-2.1394,-2.0451,-1.9881,-1.8951,-1.7562,-1.4465,-1.2573,-1.2211,-0.9226,-0.7773,-0.8048,-1.0453,0.0,-1.1661,0.0,-1.5903,-1.4132,-1.3945,-1.2411,-0.9805,-0.8835,-0.8098,-0.7665,-0.7196,-0.7669,-0.888,-1.0383,-1.2058,-1.3839,-1.5788,-1.6626,-1.6871,-1.7029,-1.6662,-1.572,-1.3031,-1.1838,-1.161,-1.2203,-1.2362,-1.2145,-1.1084,-0.9373,-0.7877,-0.7747,-0.7147,-0.7018,-0.8555,-1.0722,-1.3124,-1.5587,-1.6796,-1.7343,-1.7123,-1.6771,-1.7318,-2.0012,0.0,0.0,-1.9039,-1.6024,-1.4214,-1.6067,-1.3259,-1.2457,-1.5758,-1.4331,-1.4153,-1.6552,-1.7688,-1.9252,0.0,0.0,0.0,-2.3144,-2.3324,0.0,-2.6265,-2.4703,-2.4347,-2.5189,-2.5476,-2.5355,-2.4871,-2.4591,-2.4907,-2.5674,-2.5693,-2.6465,-2.7669,-2.7187,-2.7266,-2.7708,-2.8001,-2.8154,-2.8335,-2.8621,-2.8674,-2.8615,-1.6938,-2.1466,-2.5394,-2.5857,-2.7907,-2.9278,-2.8678,-2.8105,-2.7395,-2.6242,-2.4981,-2.3802,-2.2822,-2.1988,-2.1584,-2.1803,-2.0979,-2.0508,-2.0481,-1.887,-1.7483,-1.6514,-1.3365,-1.1185,-1.0052,-0.8381,-0.7398,-0.7172,0.0,0.0,0.0,-1.2907,-1.2543,-1.0703,-1.0279,-0.9866,-0.936,-0.7722,-0.7377,-0.792,-0.6993,-0.8031,-1.0169,-1.0954,-1.2703,-1.4929,-1.6343,-1.6925,-1.7159,-1.7824,-1.7441,-1.6474,-1.5767,-1.4999,-1.426,-1.3736,-1.3373,-1.3027,-1.2519,-1.0741,-0.9159,-0.9644,-0.9275,-0.9076,-0.9944,-1.2013,-1.414,-1.5563,-1.6443,-1.6966,-1.6846,-1.6443,-1.6278,-1.6762,-1.5893,0.0,-1.5937,-1.4677,-1.4712,-1.753,-1.5497,-1.4291,-1.5507,-1.6027,-1.6713,-1.7703,-2.0611,0.0,0.0,0.0,0.0,0.0,-2.1642,0.0,-2.4828,-2.3743,-2.3823,-2.5189,-2.4945,-2.4753,-2.4632,-2.5277,-2.5825,-2.6211,-2.6797,-2.7441,-2.8066,-2.7637,-2.7591,-2.7708,-2.7813,-2.787,-2.803,-2.8433,-2.8508,-2.836,-1.4367,-1.8228,-2.2008,-2.4439,-2.6,-2.7177,-2.7857,-2.7678,-2.7129,-2.6026,-2.4844,-2.3569,-2.2311,-2.1293,-2.0743,-2.0801,-2.0204,-1.956,-1.91,-1.7718,-1.6138,-1.4379,-1.1745,-0.9577,-0.7974,-0.7223,0.0,-0.6335,-0.8723,-0.9895,-0.993,-1.0771,-1.0404,-0.9032,-0.8824,-0.8909,-0.916,-0.7659,-0.7664,-0.8468,-0.7578,-0.8613,-1.0763,-1.1628,-1.3355,-1.5511,-1.6973,-1.7693,-1.8023,-1.8622,-1.8154,-1.7358,-1.7268,-1.6902,-1.6261,-1.5104,-1.4513,-1.4041,-1.3346,-1.1974,-1.0821,-1.099,-1.1044,-1.1296,-1.2304,-1.3383,-1.4532,-1.5866,-1.6267,-1.646,-1.6642,-1.6237,-1.5741,-1.5298,-1.512,-1.4922,-1.4685,-1.4926,-1.5885,-1.7924,-1.7184,-1.64,-1.6226,-1.6714,-1.7069,-1.7097,-1.9548,0.0,0.0,0.0,-2.1145,-2.157,-1.9983,-2.0314,-2.2828,-2.2907,-2.3511,-2.4695,-2.4812,-2.4859,-2.4786,-2.5605,-2.6141,-2.6426,-2.7129,-2.7754,-2.8262,-2.8008,-2.7963,-2.7963,-2.7963,-2.7897,-2.7901,-2.8233,-2.8186,-2.8015,-1.3685,-1.7066,-2.0456,-2.3202,-2.5226,-2.6641,-2.7012,-2.7608,-2.7405,-2.586,-2.4734,-2.3514,-2.1963,-2.0722,-1.9769,-1.9345,0.0,0.0,-1.678,-1.6394,-1.4823,-1.1595,-0.965,-0.7859,-0.6061,-0.5768,-0.5601,-0.5557,-0.6965,-0.7676,-0.7593,-0.9055,-0.9431,-0.8976,-0.9195,-0.921,-0.9013,-0.8449,-0.8588,-0.9102,-0.8595,-0.9296,-1.0813,-1.2293,-1.3955,-1.5767,-1.7744,-1.8913,-1.9424,-1.9445,-1.9015,-1.8385,-1.7784,-1.7695,-1.752,-1.624,-1.571,-1.521,-1.383,-1.3235,-1.289,-1.2209,-1.2589,-1.3568,-1.5226,-1.4726,-1.4539,-1.6432,-1.6259,-1.5906,-1.6525,-1.6113,-1.5616,-1.5423,-1.5033,-1.4824,-1.509,-1.6387,-1.7387,-1.7495,-1.8235,0.0,-1.7596,-1.6609,-1.5871,0.0,-1.5732,0.0,0.0,0.0,-2.2149,-1.8049,-1.8489,-1.9447,-2.0685,-2.2232,-2.3311,-2.3924,-2.4993,-2.5452,-2.5289,-2.5705,-2.6099,-2.6495,-2.6855,-2.75,-2.8301,-2.8262,-2.8242,-2.8242,-2.8242,-2.8127,-2.7922,-2.7922,-2.785,-2.7613,-1.3039,-1.6265,-1.9627,-2.2719,-2.4285,-2.5499,-2.6866,-2.702,-2.6711,-2.6091,-2.4626,-2.3277,-2.2094,-2.0042,-1.8429,-1.7617,-1.7746,-1.7518,-1.6428,-1.4152,-1.2192,-1.0718,-0.8049,-0.5908,-0.4494,-0.4811,-0.5273,-0.5908,-0.7101,-0.784,-0.8059,-0.8684,-0.9202,-0.9572,-0.9176,-0.8919,-0.8798,-0.8502,-0.816,-0.7943,-0.8187,-0.9034,-1.0334,-1.2102,-1.4189,-1.6426,-1.866,-1.9867,-2.0487,-2.0662,-2.0189,-1.9365,-1.8723,-1.8063,-1.7296,-1.6038,-1.618,-1.6658,-1.6148,-1.5688,-1.5438,-1.6038,-1.5951,-1.5812,-1.6231,-1.6017,-1.582,-1.6279,-1.619,-1.6046,-1.6211,-1.5948,-1.5575,-1.5215,-1.52,-1.5186,-1.5131,-1.5424,-1.6142,-1.7436,-1.8026,-1.819,-1.7768,-1.7897,-1.8286,0.0,0.0,-1.8927,-1.9625,-2.0753,-2.0342,-1.8127,-1.813,-1.9182,-2.1428,-2.1862,-2.3056,-2.5039,-2.5674,-2.6032,-2.6215,-2.6557,-2.6861,-2.7159,-2.7074,-2.75,-2.8262,-2.7949,-2.7812,-2.7865,-2.8022,-2.7653,-2.7112,-2.7262,-2.6983,-2.6437,-1.2304,-1.5288,-1.8468,-2.1868,-2.3549,-2.4946,-2.6608,-2.6692,-2.6455,-2.6163,-2.4518,-2.2904,-2.1618,-1.9519,-1.7552,-1.6167,-1.6363,-1.6084,-1.4823,-1.2848,-1.0847,-0.9008,-0.695,-0.5036,-0.3374,-0.4199,-0.5146,-0.6194,-0.7327,-0.7974,-0.8049,-0.8787,-0.9182,-0.9275,-0.9189,-0.9078,-0.8961,-0.8813,-0.8526,-0.8284,-0.8433,-0.9335,-1.0729,-1.2627,-1.4906,-1.7301,-1.9506,-2.0652,-2.1239,-2.1219,-2.0598,-1.9725,-1.9155,-1.8474,-1.7611,-1.6491,-1.6625,-1.7138,-1.6944,-1.68,-1.6888,-1.7705,-1.7522,-1.7175,-1.7312,-1.6761,-1.6401,-1.6903,-1.6309,-1.5883,-1.6557,-1.5992,-1.5425,-1.5459,-1.5343,-1.5242,-1.5257,-1.6127,-1.6753,-1.6729,-1.7787,-1.8145,-1.7271,-1.7513,-1.7963,-1.8523,-1.8623,0.0,-1.9107,-1.945,-1.9097,-1.7896,-1.7917,-1.876,-2.0416,-2.1461,-2.3153,-2.545,-2.583,-2.6241,-2.6623,-2.6784,-2.705,-2.7399,-2.7247,-2.7486,-2.8041,-2.7911,-2.7878,-2.7982,-2.7996,-2.7606,-2.7072,-2.7072,-2.6663,-2.6091,-1.2122,-1.4536,-1.7465,-2.1019,-2.2883,-2.4458,-2.6117,-2.6315,-2.6161,-2.5858,-2.4117,-2.2369,-2.0747,-1.8818,-1.6915,-1.4869,-1.4928,-1.4308,-1.2711,-1.1593,-0.9836,-0.7138,-0.5954,-0.4562,-0.2751,-0.3886,-0.5111,-0.6388,-0.7584,-0.8119,-0.8018,-0.9078,-0.9336,-0.8987,-0.938,-0.9486,-0.9415,-0.9257,-0.9152,-0.9159,-0.8898,-0.9768,-1.1434,-1.3396,-1.576,-1.8223,-2.028,-2.1436,-2.1921,-2.1435,-2.063,-1.9749,-1.9205,-1.8588,-1.7897,-1.6965,-1.6947,-1.7138,-1.6927,-1.7221,-1.7734,-1.8183,-1.8138,-1.8026,-1.8189,-1.7279,-1.669,-1.7659,-1.6551,-1.5792,-1.7094,-1.6223,-1.56,-1.6475,-1.6163,-1.5895,-1.6102,0.0,-1.8071,-1.6011,-1.7406,-1.8,-1.6609,-1.6584,-1.67,-1.6837,-1.737,-1.7627,-1.753,-1.8373,-1.8564,-1.7958,-1.8105,-1.8537,-1.9263,-2.1426,-2.3462,-2.537,-2.5743,-2.6206,-2.6765,-2.6695,-2.6893,-2.73,-2.717,-2.7334,-2.7656,-2.7806,-2.797,-2.8091,-2.7976,-2.7696,-2.724,-2.7052,-2.6603,-2.6062,-1.358,-1.5206,-1.7169,-2.0605,-2.2076,-2.3395,-2.5016,-2.506,-2.4805,-2.4451,-2.3127,-2.1403,-1.9174,-1.761,-1.5833,-1.3587,-1.2802,-1.2111,-1.1368,-0.9192,-0.7401,-0.6342,-0.484,-0.3602,-0.2694,-0.3744,-0.4966,-0.6201,-0.7509,-0.8391,-0.8993,-0.9205,-0.9589,-1.0216,-1.0103,-1.005,-1.0027,-0.9751,-0.933,-0.8892,-0.8519,-0.9541,-1.1429,-1.3658,-1.6251,-1.8932,-2.1191,-2.2542,-2.3127,-2.2017,-2.1029,-1.9959,-1.8557,-1.782,-1.7387,-1.6595,-1.6958,-1.7475,-1.6965,-1.7658,-1.8495,-1.8596,-1.8788,-1.8795,-1.833,-1.7792,-1.7432,-1.7672,-1.6936,-1.6389,-1.6906,-1.6699,-1.7212,-1.9478,-1.9421,-1.9187,-1.9414,0.0,-1.8486,-1.6294,-1.6626,-1.6992,-1.6927,-1.6944,-1.7235,-1.7896,-1.806,-1.823,-1.8475,-1.9228,-1.9551,-1.9459,-1.9192,-1.9729,-2.1024,-2.2518,-2.3861,-2.4923,-2.5699,-2.6193,-2.6486,-2.6436,-2.6606,-2.6774,-2.6222,-2.6481,-2.7284,-2.7214,-2.726,-2.7433,-2.7728,-2.7311,-2.6575,-2.6563,-2.6218,-2.5781,-1.3623,-1.4881,-1.6585,-1.9763,-2.1231,-2.2555,-2.4233,-2.4402,-2.4177,-2.38,-2.2141,-2.026,-1.8249,-1.6582,-1.4688,-1.2265,-1.1205,-1.009,-0.8895,-0.7845,-0.693,-0.6162,-0.4575,-0.3569,-0.3199,-0.464,-0.5623,-0.6085,-0.8061,-0.8929,-0.8775,-0.9265,-0.961,-0.9876,-1.0069,-1.0235,-1.0334,-0.9936,-0.9422,-0.8922,-0.9324,-1.0404,-1.2098,-1.4993,-1.7914,-2.0744,-2.2363,-2.3519,-2.3978,-2.2668,-2.1424,-2.0132,-1.8806,-1.79,-1.7311,-1.7051,-1.7301,-1.7584,-1.7393,-1.79,-1.8394,-1.8277,-1.8419,-1.8532,-1.8252,-1.8021,-1.7903,-1.8071,-1.7475,-1.7081,-1.7684,-1.701,-1.6786,-1.8164,-1.7835,0.0,-1.7689,-1.768,-1.7391,-1.6633,-1.6832,-1.7188,-1.7612,-1.7627,-1.7958,-1.8671,-1.8745,-1.8829,-1.9011,-1.9823,-2.0245,-2.0057,-1.9928,-2.0391,-2.1503,-2.185,-2.2782,-2.4386,-2.4726,-2.5464,-2.6397,-2.6133,-2.6202,-2.6527,-2.6152,-2.6342,-2.6891,-2.7014,-2.7149,-2.7232,-2.7322,-2.6909,-2.6198,-2.635,-2.6123,-2.5885,-1.3567,-1.4728,-1.6329,-1.9111,-2.0606,-2.199,-2.3629,-2.3853,-2.3661,-2.3065,-2.1296,-1.9299,-1.7285,-1.5614,-1.3643,-1.1045,-0.9926,-0.8617,-0.6871,-0.673,-0.6345,-0.5671,-0.4353,-0.3582,-0.3477,-0.5285,-0.6241,-0.6298,-0.866,-0.9503,-0.892,-0.9809,-1.017,-1.0152,-1.0724,-1.1182,-1.1587,-1.0974,-1.0552,-1.0287,-1.0782,-1.1856,-1.3532,-1.6399,-1.938,-2.2126,-2.3475,-2.4332,-2.4593,-2.3235,-2.1762,-2.0253,-1.895,-1.7873,-1.7159,-1.7138,-1.7175,-1.7337,-1.7735,-1.7878,-1.7901,-1.7704,-1.7905,-1.8171,-1.8037,-1.8035,-1.8179,-1.8488,-1.7941,-1.764,-1.8411,-1.736,-1.668,-1.7431,0.0,-1.6603,-1.6746,-1.7087,-1.7239,-1.7084,-1.7358,-1.7757,-1.8264,-1.823,-1.8449,-1.9051,-1.9271,-1.9338,-1.9297,-2.0238,-2.064,-2.0286,-2.023,-2.0467,-2.1103,-2.0684,-2.1511,-2.3472,-2.3721,-2.4564,-2.5924,-2.583,-2.5947,-2.626,-2.6358,-2.6451,-2.6519,-2.6993,-2.7108,-2.696,-2.6994,-2.6606,-2.6018,-2.6317,-2.6326,-2.621,-1.4326,-1.5493,-1.6954,-1.9179,-2.0579,-2.176,-2.2916,-2.311,-2.2689,-2.1506,-2.0593,-1.8924,-1.6064,-1.4666,-1.28,-0.9987,-0.9108,-0.802,-0.646,-0.5411,-0.4703,-0.4195,-0.3541,-0.3196,-0.3138,-0.4779,-0.6189,-0.7323,-0.8999,-1.0008,-1.0351,-1.1227,-1.1986,-1.2669,-1.3182,-1.3987,-1.4865,-1.3906,-1.3818,-1.424,-1.2975,-1.3814,-1.6083,-1.7555,-1.9685,-2.2171,-2.4301,-2.5109,-2.4883,-2.3587,-2.209,-2.0431,-1.8342,-1.7218,-1.6553,-1.5918,-1.6127,-1.6685,-1.7717,-1.7609,-1.72,-1.7164,-1.7683,-1.8052,-1.7501,-1.7776,-1.8223,-1.8619,-1.8193,-1.7882,-1.8253,-1.7969,-1.8365,-2.044,0.0,0.0,-2.0196,-2.0393,-1.9815,-1.7886,-1.7997,-1.8346,-1.8622,-1.8425,-1.844,-1.8821,-1.9415,-1.9636,-1.9318,-2.0473,-2.0914,-2.0328,-1.9977,-1.9724,-1.9553,-1.9745,-2.059,-2.1979,-2.3046,-2.3913,-2.4665,-2.5625,-2.5936,-2.5801,-2.6488,-2.6501,-2.6177,-2.6888,-2.6674,-2.5989,-2.6724,-2.6606,-2.6068,-2.6566,-2.6822,-2.698,-1.5734,-1.6571,-1.7588,-1.9228,-2.0322,-2.125,-2.2304,-2.2464,-2.2177,-2.1495,-2.0589,-1.9157,-1.6724,-1.5248,-1.3099,-0.9873,-0.8475,-0.683,-0.4769,-0.4026,-0.3546,-0.3253,-0.3751,-0.4082,-0.401,-0.6211,-0.7574,-0.8145,-0.986,-1.096,-1.1441,-1.2269,-1.3057,-1.3751,-1.4232,-1.4883,-1.5506,-1.4642,-1.4412,-1.4532,-1.4461,-1.5381,-1.7042,-1.8823,-2.1118,-2.349,-2.4487,-2.5217,-2.5539,-2.4194,-2.2741,-2.1074,-1.907,-1.765,-1.641,-1.5191,-1.5279,-1.5752,-1.5937,-1.6394,-1.6794,-1.6846,-1.6935,-1.7058,-1.7295,-1.7524,-1.7835,-1.8487,-1.8528,-1.8502,-1.882,-1.8187,-1.7892,-1.8504,0.0,-1.7969,-1.8121,-1.8571,-1.8706,-1.8123,-1.8209,-1.8256,-1.8222,-1.8123,-1.8253,-1.8819,-1.9096,-1.9358,-1.9603,-2.0089,-2.0076,-1.9431,-1.9528,-1.9528,-1.9415,-1.9291,-1.9997,-2.1555,-2.2278,-2.3394,-2.4756,-2.5703,-2.5945,-2.5742,-2.6565,-2.6754,-2.6435,-2.6911,-2.6673,-2.6107,-2.6631,-2.6429,-2.5875,-2.6749,-2.711,-2.7304,-1.6802,-1.7488,-1.8238,-1.9554,-2.0582,-2.1413,-2.2023,-2.2344,-2.2248,-2.1496,-2.0698,-1.9481,-1.7559,-1.5436,-1.3059,-1.026,-0.7979,-0.5906,-0.4032,-0.36,-0.3427,-0.3361,-0.4518,-0.5334,-0.566,-0.7834,-0.9188,-0.9618,-1.149,-1.2638,-1.3044,-1.3891,-1.4594,-1.5217,-1.5651,-1.625,-1.686,-1.6627,-1.6455,-1.6411,-1.6808,-1.7618,-1.8758,-2.0455,-2.2394,-2.4285,-2.5109,-2.5737,-2.5918,-2.4766,-2.3371,-2.1733,-1.9762,-1.7357,-1.4963,-1.3213,-1.3176,-1.3568,-1.301,-1.4061,-1.5454,-1.6212,-1.6176,-1.608,-1.6652,-1.7015,-1.742,-1.8018,-1.8359,-1.8637,-1.8774,-1.8074,-1.7337,-1.6966,-1.664,-1.6536,-1.6702,-1.7374,-1.7997,-1.8294,-1.8303,-1.8203,-1.7967,-1.8002,-1.8255,-1.8735,-1.9012,-1.9403,-1.9931,-1.9667,-1.9403,-1.9085,-1.9195,-1.9126,-1.8961,-1.8824,-1.9516,-2.0993,-2.1667,-2.2885,-2.4707,-2.5557,-2.6024,-2.6084,-2.678,-2.6936,-2.6697,-2.6978,-2.6739,-2.6191,-2.665,-2.6475,-2.6072,-2.7006,-2.7583,-2.7883,-1.7313,-1.8098,-1.9016,-2.028,-2.1601,-2.2434,-2.2139,-2.2916,-2.2923,-2.1434,-2.0785,-1.9899,-1.8276,-1.5122,-1.2553,-1.1051,-0.7694,-0.5372,-0.4545,-0.441,-0.4492,-0.4646,-0.5798,-0.6909,-0.8006,-0.945,-1.08,-1.1901,-1.3909,-1.5023,-1.5354,-1.6279,-1.6958,-1.7457,-1.7746,-1.8517,-1.9583,-2.0346,-2.07,-2.0702,-2.0307,-2.0659,-2.1628,-2.2488,-2.3414,-2.444,-2.6488,-2.6728,-2.6013,-2.5341,-2.4039,-2.2327,-2.0101,-1.611,-1.1875,-0.9747,-0.9541,-0.9853,-0.8858,-1.0462,-1.2906,-1.5232,-1.551,-1.5318,-1.5369,-1.6203,-1.7014,-1.7077,-1.7613,-1.8025,-1.7974,-1.7521,-1.6971,-1.6592,-1.6541,-1.6683,-1.6979,-1.7766,-1.8323,-1.8404,-1.8397,-1.828,-1.8025,-1.824,-1.839,-1.8508,-1.9292,-1.9935,-2.0286,-1.9417,-1.903,-1.9415,-1.9085,-1.8588,-1.802,-1.8347,-1.9052,-2.0099,-2.1159,-2.2551,-2.4134,-2.5216,-2.6084,-2.6834,-2.7221,-2.7195,-2.6854,-2.7217,-2.6854,-2.6074,-2.6623,-2.6835,-2.6888,-2.7466,-2.8203,-2.8926,-1.9119,-2.0063,-2.0799,-2.1083,-2.2124,-2.2822,-2.2472,-2.2627,-2.2734,-2.2223,-2.1671,-2.1008,-2.0295,-1.7196,-1.4508,-1.2902,-0.873,-0.5619,-0.4221,-0.4244,-0.5159,-0.7089,-0.7556,-0.8266,-0.9322,-1.1012,-1.2435,-1.3524,-1.5122,-1.6268,-1.7077,-1.7915,-1.8944,-2.0035,-1.9829,-2.057,-2.1944,-2.1722,-2.1675,-2.1745,-2.1655,-2.1857,-2.2265,-2.2786,-2.3621,-2.4595,-2.5718,-2.6059,-2.6088,-2.6092,-2.5111,-2.3416,-2.016,-1.6283,-1.2454,-0.9511,-0.7782,-0.6929,-0.7492,-0.8555,-1.0302,-1.3672,-1.4212,-1.432,-1.5858,-1.6366,-1.6768,-1.7818,-1.8171,-1.83,-1.8259,-1.7836,-1.7305,-1.6958,-1.6773,-1.678,-1.7021,-1.7603,-1.8052,-1.8053,-1.8067,-1.7853,-1.7401,-1.7626,-1.7855,-1.8144,-1.8996,-1.9533,-1.9611,-1.9331,-1.9125,-1.903,-1.9125,-1.8771,-1.7994,-1.8747,-1.925,-1.9481,-2.0829,-2.2298,-2.3868,-2.5107,-2.6062,-2.6854,-2.7487,-2.7519,-2.7099,-2.7305,-2.7088,-2.6661,-2.7406,-2.766,-2.7684,-2.8661,-2.9244,-2.9503,-2.0293,-2.1032,-2.1748,-2.215,-2.2925,-2.3307,-2.2673,-2.2672,-2.2631,-2.2287,-2.186,-2.1482,-2.1135,-1.8473,-1.6079,-1.4332,-0.9572,-0.5916,-0.4057,-0.4813,-0.6168,-0.8038,-0.8786,-0.9804,-1.1196,-1.284,-1.422,-1.5337,-1.703,-1.8148,-1.8646,-1.9554,-2.0458,-2.1378,-2.1426,-2.1994,-2.298,-2.3012,-2.2843,-2.2635,-2.2838,-2.297,-2.3121,-2.3794,-2.4487,-2.5119,-2.5896,-2.6277,-2.6321,-2.6432,-2.5485,-2.3593,-2.047,-1.6135,-1.1609,-0.8529,-0.595,-0.4235,-0.4657,-0.6354,-0.8671,-1.1833,-1.3007,-1.3853,-1.5525,-1.6006,-1.6394,-1.7497,-1.7836,-1.7862,-1.7888,-1.745,-1.705,-1.6978,-1.6796,-1.6881,-1.74,-1.7832,-1.8053,-1.7964,-1.7941,-1.7673,-1.701,-1.7476,-1.813,-1.8838,-1.9185,-1.9354,-1.9314,-1.9188,-1.9066,-1.8933,-1.8926,-1.8674,-1.8173,-1.8977,-1.9345,-1.9398,-2.0765,-2.2388,-2.422,-2.5103,-2.6123,-2.73,-2.768,-2.7649,-2.7275,-2.7381,-2.7182,-2.694,-2.7557,-2.7981,-2.8234,-2.9011,-2.9575,-2.9947,-2.0981,-2.1474,-2.2117,-2.3325,-2.3852,-2.3865,-2.277,-2.2835,-2.2646,-2.1729,-2.1538,-2.1421,-2.1204,-1.9264,-1.7265,-1.5408,-1.0244,-0.6254,-0.4171,-0.5714,-0.7052,-0.7921,-0.9283,-1.0996,-1.3118,-1.4533,-1.5846,-1.7145,-1.9293,-2.0232,-2.0118,-2.106,-2.1673,-2.1925,-2.2586,-2.2957,-2.3181,-2.4105,-2.4069,-2.3372,-2.38,-2.3958,-2.4095,-2.5141,-2.5546,-2.5704,-2.6644,-2.6806,-2.6564,-2.6457,-2.5184,-2.3262,-2.088,-1.5798,-1.008,-0.6984,-0.408,-0.1712,-0.1322,-0.4052,-0.7601,-1.0025,-1.2061,-1.3811,-1.4843,-1.5423,-1.6007,-1.6704,-1.6946,-1.7072,-1.7043,-1.6617,-1.6368,-1.6639,-1.6698,-1.7008,-1.784,-1.8215,-1.8329,-1.8011,-1.8028,-1.7701,-1.6842,-1.7789,-1.8945,-2.0073,-1.9706,-1.9367,-1.9287,-1.9045,-1.8924,-1.8919,-1.8602,-1.8435,-1.8415,-1.8952,-1.9371,-1.9682,-2.0823,-2.2585,-2.4839,-2.5172,-2.6281,-2.7969,-2.78,-2.7612,-2.7368,-2.7368,-2.726,-2.7043,-2.7408,-2.7946,-2.8639,-2.8972,-2.959,-3.0197,-2.1485,-2.2383,-2.3203,-2.3476,-2.4238,-2.4463,-2.3093,-2.2596,-2.2238,-2.1721,-2.1249,-2.1075,-2.1511,-1.9829,-1.8002,-1.641,-1.0844,-0.6782,-0.5349,-0.5186,-0.6201,-0.8413,-0.8126,-0.9134,-1.1882,-1.3694,-1.5595,-1.764,-1.9411,-2.072,-2.1645,-2.2097,-2.2808,-2.3623,-2.3496,-2.3912,-2.4686,-2.468,-2.4462,-2.4166,-2.4547,-2.4606,-2.4503,-2.4966,-2.5348,-2.5607,-2.5701,-2.5954,-2.6167,-2.605,-2.5229,-2.3723,-2.0665,-1.5798,-1.0439,-0.6503,-0.219,0.0801,-0.1357,-0.3148,-0.5532,-1.0105,-1.2613,-1.435,-1.5821,-1.6309,-1.6791,-1.7842,-1.7347,-1.6795,-1.6796,-1.6328,-1.607,-1.6329,-1.6546,-1.6927,-1.7546,-1.8275,-1.8412,-1.7672,-1.8231,-1.8199,-1.7107,-1.8095,-1.9076,-1.9807,-1.9536,-1.9243,-1.9001,-1.8941,-1.8897,-1.8878,-1.8801,-1.8642,-1.8415,-1.8532,-1.8853,-1.9414,-2.0577,-2.225,-2.4228,-2.4863,-2.6122,-2.778,-2.8061,-2.7883,-2.7368,-2.7368,-2.7368,-2.7389,-2.8142,-2.8799,-2.9456,-3.0215,-3.0586,-3.0684,-2.1793,-2.2683,-2.3655,-2.4085,-2.4569,-2.4457,-2.3243,-2.2575,-2.1973,-2.131,-2.1058,-2.1031,-2.1218,-2.0302,-1.8256,-1.4688,-1.0229,-0.6925,-0.5291,-0.5057,-0.5776,-0.751,-0.6986,-0.7893,-1.0666,-1.276,-1.5009,-1.7452,-1.9623,-2.1263,-2.2383,-2.3032,-2.36,-2.417,-2.4122,-2.4365,-2.4706,-2.4343,-2.419,-2.4178,-2.4374,-2.4433,-2.4424,-2.5015,-2.5485,-2.5802,-2.5671,-2.5772,-2.5982,-2.5712,-2.5201,-2.4055,-2.1094,-1.624,-1.0871,-0.6946,-0.2217,0.1355,-0.0443,-0.2491,-0.5153,-0.9365,-1.2528,-1.4969,-1.6197,-1.6797,-1.7231,-1.7667,-1.7089,-1.6378,-1.6002,-1.5785,-1.5785,-1.6048,-1.6561,-1.7179,-1.7844,-1.8343,-1.8442,-1.7964,-1.8471,-1.8659,-1.8164,-1.8468,-1.8975,-1.9689,-1.9468,-1.9115,-1.8661,-1.8818,-1.8849,-1.8725,-1.8537,-1.8491,-1.8618,-1.8618,-1.8836,-1.9319,-2.0273,-2.1998,-2.4412,-2.4928,-2.6098,-2.781,-2.815,-2.8033,-2.7638,-2.7638,-2.7638,-2.7695,-2.8344,-2.9005,-2.9704,-3.0312,-3.0529,-3.0411,-2.2203,-2.3078,-2.4015,-2.4882,-2.4858,-2.4415,-2.3483,-2.2665,-2.1803,-2.1003,-2.0984,-2.1029,-2.0806,-2.0213,-1.7832,-1.2956,-0.9518,-0.6898,-0.5122,-0.4966,-0.5342,-0.6171,-0.6039,-0.7254,-1.0023,-1.2288,-1.4587,-1.6977,-1.977,-2.1727,-2.2822,-2.3531,-2.3948,-2.4139,-2.4277,-2.4238,-2.4002,-2.3817,-2.3783,-2.3898,-2.404,-2.4124,-2.4343,-2.506,-2.5611,-2.5885,-2.562,-2.553,-2.5537,-2.529,-2.4693,-2.3578,-2.0969,-1.6073,-1.0571,-0.7106,-0.2413,0.1375,0.017,-0.2338,-0.5459,-0.9072,-1.2854,-1.5854,-1.6727,-1.7244,-1.7523,-1.7256,-1.6535,-1.576,-1.5011,-1.5061,-1.5356,-1.5743,-1.6653,-1.7516,-1.8296,-1.8506,-1.8551,-1.8481,-1.8605,-1.8871,-1.9334,-1.8772,-1.8749,-1.9559,-1.927,-1.8823,-1.8298,-1.8589,-1.8625,-1.8448,-1.8205,-1.8332,-1.8822,-1.8835,-1.8954,-1.9239,-1.9942,-2.1789,-2.4556,-2.502,-2.6191,-2.7853,-2.8174,-2.8121,-2.7906,-2.7906,-2.7906,-2.7945,-2.8334,-2.8923,-2.9629,-3.008,-3.0084,-2.9863,-2.3079,-2.4037,-2.4868,-2.5368,-2.5196,-2.4885,-2.4444,-2.2871,-2.1704,-2.16,-2.1112,-2.0829,-2.1029,-1.8081,-1.5822,-1.4977,-1.0291,-0.7048,-0.6376,-0.4609,-0.4167,-0.5497,-0.5704,-0.751,-1.1209,-1.3327,-1.5087,-1.642,-1.9704,-2.1919,-2.321,-2.286,-2.3272,-2.4253,-2.3353,-2.3163,-2.3448,-2.3665,-2.3816,-2.3914,-2.4301,-2.4671,-2.4963,-2.4687,-2.4876,-2.5131,-2.4433,-2.4133,-2.4141,-2.4289,-2.2811,-2.0483,-1.8217,-1.3369,-0.793,-0.4803,-0.0687,0.2082,-0.1502,-0.3295,-0.5644,-1.1676,-1.5168,-1.7387,-1.8265,-1.8181,-1.7886,-1.7576,-1.6046,-1.4625,-1.4291,-1.4272,-1.457,-1.5361,-1.6616,-1.7754,-1.8346,-1.8828,-1.907,-1.8884,-1.8406,-1.8532,-1.9542,-1.8892,-1.8674,-1.928,-1.8605,-1.8051,-1.7733,-1.7963,-1.8146,-1.8158,-1.8307,-1.8496,-1.8822,-1.8608,-1.8608,-1.8894,-1.9805,-2.138,-2.3648,-2.4689,-2.6027,-2.7476,-2.8067,-2.8121,-2.7906,-2.7906,-2.7906,-2.7945,-2.8334,-2.8923,-2.9668,-3.018,-3.0158,-2.9863,-2.302,-2.4038,-2.5016,-2.538,-2.5246,-2.4973,-2.4648,-2.3417,-2.2381,-2.195,-2.1613,-2.1398,-2.1364,-1.766,-1.5235,-1.5391,-1.1112,-0.777,-0.6236,-0.6434,-0.6669,-0.678,-0.7875,-0.9898,-1.2868,-1.4987,-1.6453,-1.7328,-1.9964,-2.2071,-2.3597,-2.3203,-2.3289,-2.3691,-2.2816,-2.2421,-2.2307,-2.2417,-2.283,-2.3448,-2.347,-2.3859,-2.4542,-2.4305,-2.446,-2.4746,-2.4163,-2.354,-2.2938,-2.2327,-2.0786,-1.8527,-1.4958,-1.0741,-0.6427,-0.308,-0.0107,0.1364,-0.2294,-0.4709,-0.7545,-1.3084,-1.6387,-1.8588,-1.9635,-1.9052,-1.7906,-1.6378,-1.5244,-1.4169,-1.2836,-1.3402,-1.4348,-1.5076,-1.6527,-1.7851,-1.8605,-1.9041,-1.944,-1.9612,-1.8928,-1.8803,-1.9604,-1.8738,-1.8361,-1.8902,-1.8493,-1.7994,-1.756,-1.797,-1.8091,-1.7824,-1.8078,-1.8631,-1.9653,-1.8804,-1.9,-2.0146,-1.9647,-2.0452,-2.2394,-2.3871,-2.5306,-2.6689,-2.7559,-2.8013,-2.8121,-2.8121,-2.8121,-2.816,-2.8552,-2.9114,-2.9792,-3.0219,-3.0098,-2.9627]},{"header":{"parameterUnit":"m.s-1","parameterCategory":1,"la1":30.6,"la2":28.766,"lo1":-90.7593,"lo2":-88.6598,"dy":0.0162,"dx":0.0183,"nx":116,"ny":114,"refTime":"2024-04-14T18:00:00:Z","depth":0,"parameterNumber":3,"parameterNumberName":"V-component_of_WINDS"},"data":[0.0,0.0,0.0,0.0,0.0,0.0,0.0,0.0,0.0,0.0,0.0,0.0,0.0,0.0,0.0,0.0,0.0,0.0,0.0,0.0,0.0,0.0,0.0,0.0,0.0,0.0,0.0,0.0,0.0,0.0,0.0,0.0,0.0,0.0,0.0,0.0,0.0,0.0,0.0,0.0,0.0,0.0,0.0,0.0,0.0,0.0,0.0,0.0,0.0,0.0,0.0,0.0,0.0,0.0,0.0,0.0,0.0,0.0,0.0,0.0,0.0,0.0,0.0,0.0,0.0,0.0,0.0,0.0,0.0,0.0,0.0,0.0,0.0,0.0,0.0,0.0,0.0,0.0,0.0,0.0,0.0,0.0,0.0,0.0,0.0,0.0,0.0,0.0,0.0,0.0,0.0,0.0,0.0,0.0,0.0,0.0,0.0,0.0,0.0,0.0,0.0,0.0,0.0,0.0,0.0,0.0,0.0,0.0,0.0,0.0,0.0,0.0,0.0,0.0,0.0,0.0,0.0,0.0,0.0,0.0,0.0,0.0,0.0,0.0,0.0,0.0,0.0,0.0,0.0,0.0,0.0,0.0,0.0,0.0,0.0,0.0,0.0,0.0,0.0,0.0,0.0,0.0,0.0,0.0,0.0,0.0,0.0,0.0,0.0,0.0,0.0,0.0,0.0,0.0,0.0,0.0,0.0,0.0,0.0,0.0,0.0,0.0,0.0,0.0,0.0,0.0,0.0,0.0,0.0,0.0,0.0,0.0,0.0,0.0,0.0,0.0,0.0,0.0,0.0,0.0,0.0,0.0,0.0,0.0,0.0,0.0,0.0,0.0,0.0,0.0,0.0,0.0,0.0,0.0,0.0,0.0,0.0,0.0,0.0,0.0,0.0,0.0,0.0,0.0,0.0,0.0,0.0,0.0,0.0,0.0,0.0,0.0,0.0,0.0,0.0,0.0,0.0,0.0,0.0,0.0,0.0,0.0,0.0,0.0,0.0,0.0,0.0,0.0,0.0,0.0,0.0,0.0,0.0,0.0,0.0,0.0,0.0,0.0,0.0,0.0,0.0,0.0,0.0,0.0,0.0,0.0,0.0,0.0,0.0,0.0,0.0,0.0,0.0,0.0,0.0,0.0,0.0,0.0,0.0,0.0,0.0,0.0,0.0,0.0,0.0,0.0,0.0,0.0,0.0,0.0,0.0,0.0,0.0,0.0,0.0,0.0,0.0,0.0,0.0,0.0,0.0,0.0,0.0,0.0,0.0,0.0,0.0,0.0,0.0,0.0,0.0,0.0,0.0,0.0,0.0,0.0,0.0,0.0,0.0,0.0,0.0,0.0,0.0,0.0,0.0,0.0,0.0,0.0,0.0,0.0,0.0,0.0,0.0,0.0,0.0,0.0,0.0,0.0,0.0,0.0,0.0,0.0,0.0,0.0,0.0,0.0,0.0,0.0,0.0,0.0,0.0,0.0,0.0,0.0,0.0,0.0,0.0,0.0,0.0,0.0,0.0,0.0,0.0,0.0,0.0,0.0,0.0,0.0,0.0,0.0,0.0,0.0,0.0,0.0,0.0,0.0,0.0,0.0,0.0,0.0,0.0,0.0,0.0,0.0,0.0,0.0,0.0,0.0,0.0,0.0,0.0,0.0,0.0,0.0,0.0,0.0,0.0,0.0,0.0,0.0,0.0,0.0,0.0,0.0,0.0,0.0,0.0,0.0,0.0,0.0,0.0,0.0,0.0,0.0,0.0,0.0,0.0,0.0,0.0,0.0,0.0,0.0,0.0,0.0,0.0,0.0,0.0,0.0,0.0,0.0,0.0,0.0,0.0,0.0,0.0,0.0,0.0,0.0,0.0,0.0,0.0,0.0,0.0,0.0,0.0,0.0,0.0,0.0,0.0,0.0,0.0,0.0,0.0,0.0,0.0,0.0,0.0,0.0,0.0,0.0,0.0,0.0,0.0,0.0,0.0,0.0,0.0,0.0,0.0,0.0,0.0,0.0,0.0,0.0,0.0,0.0,0.0,0.0,0.0,0.0,0.0,0.0,0.0,0.0,0.0,0.0,0.0,0.0,0.0,0.0,0.0,0.0,0.0,0.0,0.0,0.0,0.0,0.0,0.0,0.0,0.0,0.0,0.0,0.0,0.0,0.0,0.0,0.0,0.0,0.0,0.0,0.0,0.0,0.0,0.0,0.0,0.0,0.0,0.0,0.0,0.0,0.0,0.0,0.0,0.0,0.0,0.0,0.0,0.0,0.0,0.0,0.0,0.0,0.0,0.0,0.0,0.0,0.0,0.0,0.0,0.0,0.0,0.0,0.0,0.0,0.0,0.0,0.0,0.0,0.0,0.0,0.0,0.0,0.0,0.0,0.0,0.0,0.0,0.0,0.0,0.0,0.0,0.0,0.0,0.0,0.0,0.0,0.0,0.0,0.0,0.0,0.0,0.0,0.0,0.0,0.0,0.0,0.0,0.0,0.0,0.0,0.0,0.0,0.0,0.0,0.0,0.0,0.0,0.0,0.0,0.0,0.0,0.0,0.0,0.0,0.0,0.0,0.0,0.0,0.0,0.0,0.0,0.0,0.0,0.0,0.0,0.0,0.0,0.0,0.0,0.0,0.0,0.0,0.0,0.0,0.0,0.0,0.0,0.0,0.0,0.0,0.0,0.0,0.0,0.0,0.0,0.0,0.0,0.0,0.0,0.0,0.0,0.0,0.0,0.0,0.0,0.0,0.0,0.0,0.0,0.0,0.0,0.0,0.0,0.0,0.0,0.0,0.0,0.0,0.0,0.0,0.0,0.0,0.0,0.0,0.0,0.0,0.0,0.0,0.0,0.0,0.0,0.0,0.0,0.0,0.0,0.0,0.0,0.0,0.0,0.0,0.0,0.0,0.0,0.0,0.0,0.0,0.0,0.0,0.0,0.0,0.0,0.0,0.0,0.0,0.0,0.0,0.0,0.0,0.0,0.0,0.0,0.0,0.0,0.0,0.0,0.0,0.0,0.0,0.0,0.0,0.0,0.0,0.0,0.0,0.0,0.0,0.0,0.0,0.0,0.0,0.0,0.0,0.0,0.0,0.0,0.0,0.0,0.0,0.0,0.0,0.0,0.0,0.0,0.0,0.0,0.0,0.0,0.0,0.0,0.0,0.0,0.0,0.0,0.0,0.0,0.0,0.0,0.0,0.0,0.0,0.0,0.0,0.0,0.0,0.0,0.0,0.0,0.0,0.0,0.0,0.0,0.0,0.0,0.0,0.0,0.0,0.0,0.0,0.0,0.0,0.0,0.0,0.0,0.0,0.0,0.0,0.0,0.0,0.0,0.0,0.0,0.0,0.0,0.0,0.0,0.0,0.0,0.0,0.0,0.0,0.0,0.0,0.0,0.0,0.0,0.0,0.0,0.0,0.0,0.0,0.0,0.0,0.0,0.0,0.0,0.0,0.0,0.0,0.0,0.0,0.0,0.0,0.0,0.0,0.0,0.0,0.0,0.0,0.0,0.0,0.0,0.0,0.0,0.0,0.0,0.0,0.0,0.0,0.0,0.0,0.0,0.0,0.0,0.0,0.0,0.0,0.0,0.0,0.0,0.0,0.0,0.0,0.0,0.0,0.0,0.0,0.0,0.0,0.0,0.0,0.0,0.0,0.0,0.0,0.0,0.0,0.0,0.0,0.0,0.0,0.0,0.0,0.0,0.0,0.0,0.0,0.0,0.0,0.0,0.0,0.0,0.0,0.0,0.0,0.0,0.0,0.0,0.0,0.0,0.0,0.0,0.0,0.0,0.0,0.0,0.0,0.0,0.0,0.0,0.0,0.0,0.0,0.0,0.0,0.0,0.0,0.0,0.0,0.0,0.0,0.0,0.0,0.0,0.0,0.0,0.0,0.0,0.0,0.0,0.0,0.0,0.0,0.0,0.0,0.0,0.0,0.0,0.0,0.0,0.0,0.0,0.0,0.0,0.0,0.0,0.0,0.0,0.0,0.0,0.0,0.0,0.0,0.0,0.0,0.0,0.0,0.0,0.0,0.0,0.0,0.0,0.0,0.0,0.0,0.0,0.0,0.0,0.0,0.0,0.0,0.0,0.0,0.0,0.0,0.0,0.0,0.0,0.0,0.0,0.0,0.0,0.0,0.0,0.0,0.0,0.0,0.0,0.0,0.0,0.0,0.0,0.0,0.0,0.0,0.0,0.0,0.0,0.0,0.0,0.0,0.0,0.0,0.0,0.0,0.0,0.0,0.0,0.0,0.0,0.0,0.0,0.0,0.0,0.0,0.0,0.0,0.0,0.0,0.0,0.0,0.0,0.0,0.0,0.0,0.0,0.0,0.0,0.0,0.0,0.0,0.0,0.0,0.0,0.0,0.0,0.0,0.0,0.0,0.0,0.0,0.0,0.0,0.0,0.0,0.0,0.0,0.0,0.0,0.0,0.0,0.0,0.0,0.0,0.0,0.0,0.0,0.0,0.0,0.0,0.0,0.0,0.0,0.0,0.0,0.0,0.0,0.0,0.0,0.0,0.0,0.0,0.0,0.0,0.0,0.0,0.0,0.0,0.0,0.0,0.0,0.0,0.0,0.0,0.0,0.0,0.0,0.0,0.0,0.0,0.0,0.0,0.0,0.0,0.0,0.0,0.0,0.0,0.0,0.0,0.0,0.0,0.0,0.0,0.0,0.0,0.0,0.0,0.0,0.0,0.0,0.0,0.0,0.0,0.0,0.0,0.0,0.0,0.0,0.0,0.0,0.0,0.0,0.0,0.0,0.0,0.0,0.0,0.0,0.0,0.0,0.0,0.0,0.0,0.0,0.0,0.0,0.0,0.0,0.0,0.0,0.0,0.0,0.0,0.0,0.0,0.0,0.0,0.0,0.0,0.0,0.0,0.0,0.0,0.0,0.0,0.0,0.0,0.0,0.0,0.0,0.0,0.0,0.0,0.0,0.0,0.0,0.0,0.0,0.0,0.0,0.0,0.0,0.0,0.0,0.0,0.0,0.0,0.0,0.0,0.0,0.0,0.0,0.0,0.0,0.0,0.0,0.0,0.0,0.0,0.0,0.0,0.0,0.0,0.0,0.0,0.0,0.0,0.0,0.0,0.0,0.0,0.0,0.0,0.0,0.0,0.0,0.0,0.0,0.0,0.0,0.0,0.0,0.0,0.0,0.0,0.0,0.0,0.0,0.0,0.0,0.0,0.0,0.0,0.0,0.0,0.0,0.0,0.0,0.0,0.0,0.0,0.0,0.0,0.0,0.0,0.0,0.0,0.0,0.0,0.0,0.0,0.0,0.0,0.0,0.0,0.0,0.0,0.0,0.0,0.0,0.0,0.0,0.0,0.0,0.0,0.0,0.0,0.0,0.0,0.0,0.0,0.0,0.0,0.0,0.0,0.0,0.0,0.0,0.0,0.0,0.0,0.0,0.0,0.0,0.0,0.0,0.0,0.0,0.0,0.0,0.0,0.0,0.0,0.0,0.0,0.0,0.0,0.0,0.0,0.0,0.0,0.0,0.0,0.0,0.0,0.0,0.0,0.0,0.0,0.0,0.0,0.0,0.0,0.0,0.0,0.0,0.0,0.0,0.0,0.0,0.0,0.0,0.0,0.0,0.0,0.0,0.0,0.0,0.0,0.0,0.0,0.0,0.0,0.0,0.0,0.0,0.0,0.0,0.0,0.0,0.0,0.0,0.0,0.0,0.0,0.0,0.0,0.0,0.0,0.0,0.0,0.0,0.0,0.0,0.0,0.0,0.0,0.0,0.0,0.0,0.0,0.0,0.0,0.0,0.0,0.0,0.0,0.0,0.0,0.0,0.0,0.0,0.0,0.0,0.0,0.0,0.0,0.0,0.0,0.0,0.0,0.0,0.0,0.0,0.0,0.0,0.0,0.0,0.0,0.0,0.0,0.0,0.0,0.0,0.0,0.0,0.0,0.0,0.0,0.0,0.0,0.0,0.0,0.0,0.0,0.0,0.0,0.0,0.0,0.0,0.0,0.0,0.0,0.0,0.0,0.0,0.0,0.0,0.0,0.0,0.0,0.0,0.0,0.0,0.0,0.0,0.0,0.0,0.0,0.0,0.0,0.0,0.0,0.0,0.0,0.0,0.0,0.0,0.0,2.5048,2.3742,0.0,0.0,0.0,0.0,0.0,0.0,0.0,0.0,0.0,0.0,0.0,0.0,0.0,0.0,0.0,0.0,0.0,0.0,0.0,0.0,0.0,0.0,0.0,1.8065,1.7932,1.8536,1.8121,1.8245,1.9204,1.9468,0.0,0.0,0.0,0.0,2.1778,2.3183,2.447,2.5654,2.7896,3.0897,3.4587,3.54,3.439,3.1855,0.0,0.0,0.0,0.0,0.0,0.0,0.0,0.0,0.0,0.0,0.0,0.0,0.0,0.0,0.0,0.0,0.0,0.0,0.0,0.0,0.0,0.0,0.0,0.0,0.0,0.0,0.0,0.0,0.0,0.0,0.0,0.0,0.0,0.0,0.0,0.0,0.0,0.0,0.0,0.0,0.0,0.0,0.0,0.0,0.0,0.0,0.0,0.0,0.0,0.0,0.0,0.0,0.0,0.0,0.0,0.0,0.0,0.0,0.0,0.0,0.0,0.0,0.0,0.0,0.0,0.0,0.0,0.0,0.0,0.0,2.9298,2.6984,0.0,0.0,0.0,0.0,0.0,0.0,0.0,0.0,0.0,0.0,0.0,0.0,0.0,0.0,0.0,0.0,0.0,0.0,0.0,0.0,0.0,1.8161,1.8612,1.7886,1.7774,1.8846,1.81,1.8038,1.9095,1.9044,1.9426,2.043,2.075,2.0874,2.0734,2.2171,2.3499,2.4588,2.9323,3.4241,3.9202,4.0675,3.9242,3.5362,3.4862,0.0,0.0,0.0,0.0,0.0,0.0,0.0,0.0,0.0,0.0,0.0,0.0,0.0,0.0,0.0,0.0,0.0,0.0,0.0,0.0,0.0,0.0,0.0,0.0,0.0,0.0,0.0,0.0,0.0,0.0,0.0,0.0,0.0,0.0,0.0,0.0,0.0,0.0,0.0,0.0,0.0,0.0,0.0,0.0,0.0,0.0,0.0,0.0,0.0,0.0,0.0,0.0,0.0,0.0,0.0,0.0,0.0,0.0,0.0,0.0,0.0,0.0,0.0,3.6773,3.6722,3.7128,3.793,3.819,3.7833,3.5118,3.2098,2.903,2.877,0.0,0.0,0.0,0.0,0.0,0.0,0.0,0.0,0.0,0.0,0.0,0.0,0.0,0.0,0.0,0.0,0.0,0.0,0.0,1.8051,1.8181,1.8534,1.891,1.9364,1.9017,1.8875,1.9087,1.8722,1.881,1.96,1.9336,1.9531,2.0364,2.0366,2.2008,2.5367,3.2381,3.8128,4.264,4.311,4.3872,4.4609,3.9799,3.8307,3.9225,0.0,0.0,0.0,0.0,0.0,0.0,0.0,0.0,0.0,0.0,0.0,0.0,0.0,0.0,0.0,0.0,0.0,0.0,0.0,0.0,0.0,0.0,0.0,0.0,0.0,0.0,0.0,0.0,0.0,0.0,0.0,0.0,0.0,0.0,0.0,0.0,0.0,0.0,0.0,0.0,0.0,3.0704,2.9794,0.0,0.0,0.0,0.0,0.0,0.0,0.0,0.0,0.0,0.0,0.0,0.0,0.0,3.5584,3.6415,3.7745,3.8553,3.8866,4.1003,4.1752,4.1175,4.2717,4.3576,4.383,4.2898,0.0,3.42,3.1842,0.0,0.0,0.0,0.0,0.0,0.0,0.0,0.0,0.0,0.0,0.0,0.0,0.0,0.0,0.0,0.0,0.0,0.0,0.0,0.0,0.0,2.1292,2.3338,2.3813,2.5971,2.5917,2.2611,2.2155,2.0903,1.836,1.7973,1.7905,1.8056,2.0997,2.5547,3.169,3.7699,4.2334,4.5592,4.7212,4.8826,5.0212,4.6709,4.4271,4.2483,3.8509,0.0,0.0,0.0,0.0,0.0,0.0,0.0,0.0,0.0,0.0,0.0,0.0,0.0,0.0,0.0,0.0,0.0,0.0,0.0,0.0,0.0,0.0,0.0,0.0,0.0,0.0,0.0,0.0,0.0,0.0,0.0,0.0,0.0,0.0,0.0,0.0,0.0,0.0,0.0,3.1013,3.3009,3.065,3.164,3.1132,0.0,0.0,0.0,0.0,0.0,0.0,0.0,0.0,0.0,3.478,3.7932,4.0264,4.1467,4.278,4.3764,4.4495,4.4928,4.5099,4.5123,4.6259,4.6845,4.7049,4.6977,4.4759,4.0848,3.7032,3.4055,3.1729,0.0,0.0,0.0,0.0,2.8293,2.8434,0.0,0.0,0.0,0.0,0.0,0.0,0.0,0.0,0.0,0.0,0.0,0.0,2.0856,2.511,2.8369,2.9525,3.2044,3.1528,2.6527,2.5005,2.2452,1.8134,1.7384,1.7064,1.7005,2.2949,2.9829,3.749,4.1845,4.559,4.869,5.0532,5.239,5.408,5.2711,5.0135,4.6553,4.2646,3.9961,3.8014,0.0,0.0,0.0,0.0,0.0,0.0,0.0,0.0,0.0,0.0,0.0,0.0,0.0,0.0,0.0,0.0,0.0,0.0,0.0,0.0,0.0,0.0,0.0,0.0,0.0,0.0,0.0,0.0,0.0,0.0,0.0,0.0,0.0,0.0,0.0,0.0,0.0,3.4109,3.5853,3.2488,3.4778,3.4897,0.0,0.0,0.0,0.0,0.0,0.0,3.2479,3.6222,3.8681,3.9523,4.2619,4.4938,4.6337,4.7214,4.8117,4.9037,4.8048,4.7648,4.7854,4.8582,4.888,4.8831,4.9142,4.801,4.563,4.1388,3.7979,3.5217,3.3928,3.3083,3.2585,3.2497,3.2583,3.2835,0.0,0.0,0.0,0.0,0.0,0.0,0.0,0.0,0.0,0.0,0.0,2.3824,2.6402,3.0055,3.3265,3.5652,3.4207,3.2122,2.9629,2.5472,2.2108,1.9862,1.8009,1.7567,1.8832,2.6175,3.336,4.0216,4.3131,4.7201,5.2235,5.1876,5.3371,5.644,5.6286,5.4911,5.2407,4.7023,4.4053,4.2459,3.6339,0.0,0.0,0.0,0.0,0.0,0.0,0.0,0.0,0.0,0.0,0.0,0.0,0.0,0.0,0.0,0.0,0.0,0.0,0.0,0.0,0.0,0.0,0.0,0.0,0.0,0.0,0.0,0.0,0.0,0.0,0.0,0.0,0.0,0.0,0.0,0.0,0.0,0.0,3.7345,4.0618,0.0,0.0,0.0,0.0,3.5812,3.6225,3.6914,3.7937,4.08,4.2875,4.3947,4.7325,4.9547,5.0298,5.024,5.015,5.0028,4.9963,4.94,4.8478,4.9344,4.9656,4.9466,4.9471,4.8494,4.669,4.3505,4.0642,3.8027,3.6524,3.49,3.3349,3.28,3.2951,3.3318,0.0,0.0,0.0,0.0,0.0,1.6387,1.6486,1.6856,1.7436,1.833,2.2756,2.6639,2.8611,3.5575,4.0744,4.2262,4.361,4.2614,3.8517,3.3007,2.7929,2.3493,1.902,1.9018,2.4167,2.9398,3.5393,4.2079,4.4649,4.7357,5.0185,5.09,5.2437,5.4583,5.5389,5.55,5.4867,5.0636,4.7808,4.5597,3.9652,3.5278,0.0,0.0,0.0,0.0,0.0,0.0,0.0,0.0,0.0,0.0,0.0,0.0,0.0,0.0,0.0,0.0,0.0,0.0,0.0,0.0,0.0,0.0,0.0,0.0,0.0,0.0,0.0,0.0,0.0,0.0,0.0,0.0,0.0,0.0,0.0,0.0,0.0,4.2385,4.5363,0.0,4.1589,3.9798,3.9017,3.9329,4.0921,4.2202,4.2946,4.6025,4.7992,4.848,5.0435,5.1605,5.1909,5.1464,5.1208,5.1194,5.0413,4.9744,4.922,4.9616,4.9695,4.95,4.95,4.8558,4.6946,4.6123,4.4243,4.182,4.1037,4.0176,3.9219,3.8118,3.7711,3.7727,0.0,0.0,0.0,0.0,0.0,1.6722,1.7093,1.7515,1.849,2.0487,2.6154,3.1227,3.4438,4.2095,4.7463,4.8556,4.9845,4.7978,4.1758,3.5906,3.0058,2.4212,2.081,2.2389,2.9536,3.3071,3.7781,4.3675,4.5525,4.7146,4.851,4.9726,5.1188,5.2837,5.453,5.5761,5.6472,5.4283,5.1621,4.8405,4.3278,3.8966,3.51,0.0,0.0,0.0,0.0,0.0,0.0,0.0,0.0,0.0,0.0,0.0,0.0,0.0,0.0,0.0,0.0,0.0,0.0,0.0,0.0,0.0,0.0,0.0,0.0,0.0,0.0,0.0,0.0,0.0,0.0,0.0,0.0,0.0,0.0,4.2342,4.6635,4.6333,4.9571,5.03,4.6468,4.483,4.406,4.4209,4.5799,4.691,4.7335,4.9646,5.1076,5.1315,5.2149,5.2597,5.2597,5.2215,5.1686,5.1062,5.0553,4.9883,4.9124,4.9553,4.9664,4.95,4.95,4.8528,4.6986,4.7448,4.622,4.4,4.3828,4.311,4.1975,4.0791,4.0239,4.0247,0.0,0.0,0.0,0.0,0.0,1.8155,1.8693,1.9164,2.0931,2.5074,3.1179,3.7557,4.3945,4.9295,5.2916,5.413,5.2048,4.7136,3.8838,3.3546,2.8019,2.1856,2.3559,2.7738,3.4458,3.7111,4.058,4.4971,4.5798,4.67,4.7694,4.8513,4.9791,5.1555,5.4029,5.5985,5.7486,5.778,5.5407,5.1063,4.716,4.3169,3.8952,0.0,0.0,0.0,0.0,0.0,0.0,0.0,0.0,0.0,0.0,0.0,0.0,0.0,0.0,0.0,0.0,0.0,0.0,0.0,0.0,0.0,0.0,0.0,0.0,0.0,0.0,0.0,0.0,0.0,0.0,0.0,0.0,0.0,3.869,4.6098,5.0797,4.9272,5.3226,5.4468,5.0291,5.0043,5.0286,5.0584,5.0762,5.0949,5.109,5.1509,5.1943,5.23,5.2531,5.2663,5.2631,5.2595,5.1589,4.9654,5.0488,4.9921,4.8294,4.9189,4.9569,4.95,4.95,4.8498,4.6869,4.7307,4.6334,4.4529,4.4638,4.3273,4.1139,4.0421,4.0142,4.0456,0.0,0.0,0.0,1.987,1.8806,1.7904,1.8182,1.8614,2.0404,2.4623,3.1608,3.85,4.4647,5.0864,5.4764,5.5275,5.2779,4.8799,4.3179,3.6204,2.9799,2.4214,2.8724,3.2559,3.5109,3.8861,4.2077,4.4803,4.6117,4.6904,4.7131,4.8166,4.9157,5.0079,5.2072,5.4254,5.6492,5.7428,5.7127,5.5619,5.1712,4.7553,4.3262,0.0,0.0,0.0,0.0,0.0,0.0,0.0,0.0,0.0,0.0,0.0,0.0,0.0,0.0,0.0,0.0,0.0,0.0,0.0,0.0,0.0,0.0,0.0,0.0,0.0,0.0,0.0,0.0,0.0,0.0,0.0,3.8996,4.3881,4.4531,4.9341,5.3456,5.519,5.7079,5.7602,5.5992,5.4398,5.3382,5.3186,5.2863,5.2769,5.2974,5.3236,5.3371,5.3311,5.351,5.3511,5.3246,5.2355,5.1719,5.1196,5.0456,4.9819,4.9223,4.9585,4.9664,4.95,4.959,4.8768,4.7307,4.7533,4.6612,4.4974,4.4457,4.3291,4.181,4.0977,4.1023,4.1577,0.0,0.0,0.0,2.0374,1.939,1.8561,1.8647,1.9159,2.1439,2.6857,3.3475,4.0173,4.6691,5.1809,5.4681,5.4545,5.0759,4.6165,4.0944,3.4147,2.9872,2.8864,3.2814,3.6157,3.8443,4.1185,4.3443,4.526,4.6531,4.6956,4.6683,4.7858,4.8547,4.8895,5.1014,5.3356,5.5859,5.7133,5.8196,5.8716,5.5654,5.1896,4.7692,4.3179,3.8782,3.4632,3.194,3.0456,2.9215,2.5505,0.0,0.0,0.0,0.0,0.0,0.0,0.0,0.0,0.0,0.0,0.0,0.0,0.0,0.0,0.0,0.0,0.0,0.0,0.0,0.0,0.0,0.0,0.0,0.0,4.2695,4.8241,5.0459,5.3303,5.5947,5.8118,5.9013,5.9047,5.8046,5.6269,5.5009,5.4526,5.3887,5.3583,5.3816,5.4321,5.4388,5.3913,5.4288,5.402,5.3144,5.2424,5.1686,5.0861,5.0153,4.9616,4.9153,4.9407,4.9715,4.9945,4.9502,4.8776,4.7803,4.7271,4.6248,4.4939,0.0,0.0,0.0,0.0,4.1354,4.2175,0.0,0.0,0.0,2.0565,2.0022,1.9526,1.9566,1.9976,2.2855,2.9974,3.5402,4.141,4.8616,5.1799,5.3169,5.2572,4.7361,4.1471,3.5319,3.0621,3.0116,3.463,3.6522,3.9171,4.2935,4.3692,4.464,4.5994,4.7073,4.7221,4.6567,4.7774,4.8336,4.8409,5.0655,5.3078,5.5533,5.6976,5.8667,6.0286,5.8637,5.5692,5.1766,4.6969,4.2881,3.9206,3.5616,3.2822,3.0771,3.0173,0.0,0.0,0.0,0.0,0.0,0.0,0.0,0.0,0.0,0.0,0.0,0.0,0.0,0.0,0.0,0.0,0.0,0.0,0.0,0.0,0.0,0.0,0.0,0.0,4.6009,5.128,5.5791,5.709,5.7878,5.8703,5.9322,5.9045,5.7467,5.6303,5.5415,5.4907,5.4159,5.3851,5.4187,5.4965,0.0,0.0,0.0,5.4256,5.2733,5.2461,5.142,4.9653,4.9747,4.9377,4.8578,4.9015,4.9729,5.0526,4.9286,4.8633,4.8299,4.676,4.5514,4.4477,4.3485,4.257,4.1709,4.0988,4.1443,4.2604,0.0,0.0,0.0,2.0827,1.9609,1.8702,1.9285,1.8829,2.1109,2.8665,3.2837,3.7949,4.5522,4.9124,5.081,5.0407,4.6065,4.078,3.4848,3.5526,3.6969,3.8789,4.1574,4.3503,4.4309,4.4949,4.5487,4.5921,4.829,4.8934,4.7955,4.9268,4.9989,5.0189,5.0946,5.274,5.5275,5.7246,5.8529,5.9174,5.8585,5.6643,5.3764,5.0714,4.8197,4.6019,4.3432,4.2939,4.2628,3.7167,3.5064,3.3949,2.9476,2.5133,0.0,0.0,0.0,0.0,0.0,0.0,0.0,0.0,0.0,0.0,0.0,0.0,0.0,0.0,0.0,0.0,0.0,0.0,0.0,4.2345,4.885,5.4525,5.7423,5.7461,5.7326,5.7672,5.805,5.7568,5.5755,5.5348,5.511,5.4839,5.4125,5.4261,5.5519,5.5481,5.548,5.5656,5.4865,5.4083,5.3314,5.1681,5.0532,5.0006,4.9429,0.0,4.8892,4.9107,4.9729,5.0526,4.9232,4.8552,4.8299,4.6872,4.5089,4.3177,4.2261,4.19,4.1709,4.0988,4.2073,4.3897,0.0,0.0,0.0,2.0373,1.958,1.8922,1.9245,1.9,2.0725,2.6221,2.9471,3.3407,3.9033,4.1516,4.2664,4.2324,3.9199,3.6437,3.4558,3.7461,4.0468,4.3098,4.4989,4.5733,4.5276,4.5344,4.5723,4.6367,4.8772,4.9822,4.9533,5.0596,5.1186,5.1322,5.1484,5.2894,5.5177,5.6644,5.7969,5.9144,5.8597,5.7314,5.5385,5.2505,5.0708,4.9436,4.7094,4.6263,4.5634,4.1648,3.9956,3.8709,3.403,3.0908,2.802,0.0,0.0,0.0,0.0,0.0,0.0,0.0,0.0,0.0,0.0,0.0,0.0,0.0,0.0,3.0505,3.2421,0.0,4.3916,4.6609,5.1744,5.5875,5.7169,5.7107,5.7148,5.7735,5.7295,5.6748,5.6235,5.5349,5.5043,5.562,5.487,5.5006,5.6336,5.6472,5.6472,5.6336,5.5617,5.4904,5.4161,5.2019,5.0866,5.0642,4.9588,4.9077,4.9107,4.926,4.9645,5.0069,4.8973,4.8225,4.7717,4.5691,4.417,4.3053,4.2286,4.192,4.1921,4.2208,4.3168,4.4285,0.0,0.0,0.0,1.9205,1.919,1.9003,1.904,1.9054,2.0312,2.3833,2.6177,2.8929,3.2744,3.3943,3.4232,3.3575,3.2987,3.3343,3.492,3.9102,4.318,4.6879,4.7241,4.6876,4.6007,4.5461,4.5681,4.6725,4.9132,5.0485,5.0793,5.1887,5.2274,5.2091,5.2214,5.3223,5.4856,5.6064,5.7428,5.8781,5.832,5.7532,5.6288,5.317,5.1861,5.1352,4.8938,4.6799,4.4972,4.4235,4.2807,4.0889,3.8065,3.6335,3.3882,2.6472,2.5104,0.0,0.0,0.0,0.0,0.0,0.0,0.0,0.0,2.8347,2.9365,3.366,3.569,3.7398,3.9648,4.3658,4.7582,5.0577,5.3857,5.616,5.6441,5.6284,5.6428,5.7111,5.6302,5.5928,5.6542,5.5213,5.494,5.6403,5.5755,5.5857,5.7051,5.7569,5.7501,5.7018,5.6166,5.5349,5.4567,5.2223,5.0937,5.0809,4.9715,4.9229,4.926,4.9411,4.956,4.9615,4.8607,4.7728,4.6846,4.4449,4.3559,4.3599,4.2848,4.2492,4.2496,4.3528,4.4129,4.4415,0.0,0.0,0.0,0.0,0.0,1.7678,1.8155,1.7595,1.8563,2.2643,2.3863,2.5983,3.0378,3.1325,3.0903,2.9083,3.3979,3.7037,3.6675,4.2728,4.7253,4.9222,4.8267,4.7331,4.6619,4.5653,4.5634,4.6535,4.9828,5.1294,5.1118,5.325,5.3702,5.2794,5.311,5.3348,5.3754,5.6338,5.708,5.6551,5.7285,5.6958,5.5715,5.3014,5.2399,5.2688,5.0397,4.7008,4.374,4.4387,4.173,3.8563,4.118,3.8679,3.3849,2.9175,2.5408,2.146,1.5779,1.8488,2.3248,2.4364,2.7777,3.1424,0.0,3.4612,3.5683,3.6625,3.9282,4.1414,4.1318,4.5763,5.0009,5.1694,5.3957,5.5734,5.641,5.4968,5.3788,5.358,5.419,5.4514,5.4124,5.3699,5.4269,5.6368,5.6234,5.6713,5.8219,5.8389,5.8283,5.804,5.5383,5.3854,5.3653,5.0742,4.9348,4.9406,4.9267,4.929,4.9471,4.9471,4.95,4.9432,4.8059,4.6885,4.5926,4.447,4.4109,4.4483,4.3736,4.3557,4.3681,4.386,4.4338,4.4912,0.0,0.0,0.0,0.0,0.0,1.7771,1.8548,1.8244,1.8534,2.0249,2.065,2.1721,2.4245,2.4908,2.5228,2.5248,3.0403,3.4541,3.6662,4.3845,4.8561,4.9747,4.9713,4.8743,4.688,4.5695,4.583,4.737,4.9725,5.1591,5.2903,5.4061,5.4416,5.3964,5.3446,5.3585,5.4296,5.5417,5.6062,5.6443,5.6409,5.5822,5.4759,5.2762,5.147,5.035,4.7564,4.4819,0.0,0.0,3.9918,3.8336,4.0512,3.7803,3.3006,2.8974,2.6207,2.4468,2.4696,2.6234,2.8487,3.141,3.4343,3.7024,3.895,3.9567,4.0733,4.4164,4.6009,4.7353,4.8655,5.0842,5.2939,5.45,5.5556,5.5829,5.4898,5.3668,5.2129,5.0191,4.9845,5.0391,5.2126,5.2654,5.3734,5.5716,5.6575,5.7501,5.8632,5.8829,5.8719,5.8205,5.5689,5.4228,5.3956,5.1214,4.9786,4.9721,4.9372,4.935,4.9619,4.953,4.9295,4.8783,4.6884,4.6259,4.6408,4.4633,4.445,4.5179,4.4184,4.4252,4.4952,4.5111,4.5371,4.5576,0.0,0.0,0.0,0.0,0.0,1.7398,1.8564,1.8526,1.8394,1.8475,1.8355,1.8799,2.0066,2.0702,2.1495,2.2654,2.6915,3.1395,3.5737,4.2631,4.7436,4.9481,4.9934,4.9209,4.7229,4.6114,4.6388,4.8193,4.9994,5.1972,5.4129,5.4765,5.5007,5.4961,5.3855,5.3821,5.4566,5.4533,5.4938,5.5669,5.5366,5.4413,5.3025,5.1249,4.914,4.6877,4.463,4.2285,0.0,0.0,3.6486,3.524,3.6859,3.4632,3.0644,2.6627,2.4302,2.4086,2.9145,3.1109,3.2782,3.7233,4.0141,4.2414,4.4253,4.4586,4.5597,4.9649,5.0736,5.1503,5.3305,5.4006,5.4779,5.6298,5.6497,5.5762,5.3805,5.2547,5.0685,4.7474,4.6369,4.677,4.9032,5.0735,5.2753,5.5266,5.6745,5.7878,5.8736,5.9136,5.8885,5.7933,5.5654,5.4228,5.3753,5.1248,5.0088,5.0195,4.9807,4.9748,4.9983,4.9282,4.8641,4.7996,4.6049,4.587,4.685,4.5234,4.5186,4.6016,4.5152,4.5233,4.5823,4.6538,4.6464,4.5942,0.0,0.0,0.0,0.0,0.0,1.6085,1.7606,1.7676,1.7614,1.7897,1.7687,1.8201,2.0002,2.0912,2.1524,2.1809,2.496,2.9015,3.3955,3.8585,4.3386,4.8427,4.8223,4.7941,4.7778,4.7125,4.7357,4.8676,5.0927,5.2683,5.3943,5.5243,5.5757,5.5533,5.4516,5.4078,5.4014,5.4177,5.3796,5.3275,5.393,5.2747,5.0232,4.7877,4.5255,4.2905,4.2849,0.0,0.0,3.4499,3.0796,2.7275,2.9721,2.904,2.6381,2.187,1.81,1.684,2.3453,2.8617,3.3391,3.886,4.3733,4.7562,4.9069,5.0093,5.0725,5.0716,5.1595,5.2302,5.2191,5.3456,5.487,5.6007,5.6066,5.5347,5.3738,5.1788,4.9261,4.5798,4.4999,4.458,4.419,4.7297,5.1104,5.5288,5.6644,5.774,5.8736,5.9136,5.8647,5.7185,5.4805,5.3179,5.2367,5.0168,4.9517,5.0385,5.0503,5.0621,5.0704,4.8541,4.7461,4.7238,4.5836,4.587,4.698,4.6439,4.6604,4.7153,4.7176,4.6681,4.613,4.7877,4.7329,4.576,0.0,0.0,0.0,0.0,0.0,0.0,1.8157,1.8243,1.8165,1.8173,1.8987,0.0,0.0,0.0,0.0,0.0,2.4518,2.704,2.9456,3.5805,4.0193,4.1831,4.549,4.6766,4.5283,4.5803,4.6629,4.7694,4.9524,5.1352,5.3209,5.4195,5.4692,5.4775,5.4278,5.4044,5.4074,5.327,5.2846,5.2641,5.1242,4.9938,4.8495,4.4963,4.2361,4.0192,0.0,0.0,3.3645,3.143,2.875,2.6448,2.729,2.412,1.947,1.6357,1.8324,2.2567,2.7522,3.3079,3.8698,4.3483,4.6247,4.8039,4.8982,4.9118,4.9061,4.9204,4.7027,4.5597,4.7098,4.7506,4.8323,5.0575,5.2823,5.3632,5.1885,5.1065,4.8887,4.4138,4.4032,4.4238,4.3927,4.6604,4.9899,5.3524,5.5649,5.7124,5.7981,5.8597,5.8147,5.6403,5.4325,5.2866,5.2201,5.0132,4.9304,4.9603,5.0031,5.0179,5.0017,4.8301,4.7539,4.7526,4.633,4.6293,4.709,4.6535,4.6589,4.7038,4.6725,4.6327,4.6034,4.7135,4.6782,4.5828,0.0,0.0,0.0,0.0,0.0,0.0,0.0,0.0,0.0,0.0,0.0,0.0,0.0,0.0,0.0,0.0,0.0,2.4914,2.6622,3.1448,3.4739,3.5703,4.0155,4.1794,4.0081,4.118,4.2082,4.2767,4.5113,4.7283,4.9322,5.1179,5.2402,5.3066,5.2509,5.233,5.2295,5.1264,5.0082,4.891,4.738,4.5398,4.2935,3.9611,3.7387,0.0,0.0,0.0,3.097,2.8614,2.6049,2.3836,2.3535,1.9831,1.5621,1.6009,2.0197,2.6038,3.197,3.7331,4.2259,4.6269,4.767,4.8123,4.8615,4.7874,4.7035,4.6911,4.3559,4.1146,4.275,4.246,4.2779,4.5253,4.7605,4.9095,4.9094,4.8227,4.6809,4.4561,4.4392,4.4629,4.5083,4.6929,4.9422,5.274,5.5235,5.6708,5.6981,5.7809,5.7398,5.5417,5.3741,5.2556,5.1796,4.9997,4.9335,4.9695,5.0005,5.0125,5.0086,4.8243,4.7448,4.747,4.6486,4.6504,4.7182,4.6788,4.6971,4.7442,4.6862,4.6532,4.6374,4.6936,4.6544,4.5886,0.0,0.0,0.0,0.0,0.0,0.0,0.0,0.0,0.0,0.0,0.0,0.0,0.0,0.0,0.0,0.0,0.0,0.0,2.5232,0.0,0.0,3.0283,3.2777,3.3701,3.2844,3.3945,3.4585,3.4667,3.8182,4.0845,4.2676,4.6256,4.8671,4.9964,4.907,4.8655,4.8522,4.7854,4.5576,4.2381,4.2528,3.94,3.4482,3.2475,0.0,0.0,0.0,2.7594,2.8052,2.6123,2.3034,1.9844,1.9071,1.6962,1.5714,2.0676,2.378,2.7545,3.6291,4.0905,4.4031,4.7261,4.7993,4.7931,4.8076,4.655,4.482,4.3877,4.1054,3.8816,3.8875,3.8331,3.8496,4.0449,4.1306,4.2896,4.599,4.4206,4.3707,4.6862,4.5991,4.5796,4.744,4.8252,4.9966,5.2969,5.5361,5.6422,5.5961,5.6911,5.6436,5.4276,5.3164,5.2157,5.1217,4.9796,4.9576,5.0598,5.0478,5.0571,5.0807,4.8333,4.7221,4.7221,4.647,4.6573,4.7255,4.7255,4.7665,4.8275,4.7552,4.7124,4.6912,4.7119,4.6584,4.583,0.0,0.0,0.0,0.0,0.0,0.0,0.0,0.0,0.0,0.0,0.0,0.0,0.0,0.0,0.0,0.0,0.0,0.0,2.137,0.0,0.0,0.0,0.0,0.0,0.0,0.0,0.0,0.0,3.5063,3.6578,3.7469,3.9477,4.0431,4.0515,4.1247,4.1435,4.1309,4.063,3.9861,3.8964,0.0,3.5844,3.426,0.0,0.0,0.0,0.0,2.714,2.6262,2.5415,2.4525,2.3768,2.3511,2.4634,2.6251,2.736,3.1884,3.7257,4.034,4.3899,4.7044,4.8397,4.754,4.6245,4.5794,4.4074,4.1849,3.9369,3.5218,3.1709,3.0678,3.2661,3.5339,3.815,4.3281,4.7553,4.9277,4.9293,4.8629,4.7326,4.8728,4.9859,5.0114,5.1736,5.3378,5.4847,5.4623,5.5067,5.6491,5.5995,5.5208,5.4207,5.2875,5.193,5.141,5.0493,5.0181,5.0447,5.0509,5.0602,5.056,4.8158,4.7408,4.8036,4.7053,4.7097,4.7865,4.7865,4.7661,4.735,4.7146,4.6419,4.5486,4.5326,4.5224,4.4912,0.0,0.0,0.0,0.0,0.0,0.0,0.0,0.0,0.0,0.0,0.0,0.0,0.0,0.0,0.0,0.0,0.0,0.0,0.0,0.0,0.0,0.0,0.0,0.0,0.0,0.0,0.0,0.0,0.0,0.0,3.0765,3.3235,3.4499,3.4781,3.5794,3.6258,3.6225,3.5914,0.0,0.0,0.0,0.0,0.0,0.0,0.0,0.0,2.6292,2.6328,2.6772,2.7879,2.759,2.6716,2.6357,2.8201,3.0961,3.2959,3.6944,4.132,4.3976,4.6545,4.8479,4.8508,4.6698,4.4427,4.2764,4.0449,3.7654,3.41,3.0235,2.7228,2.6494,2.8437,3.1127,3.4045,3.8986,4.3673,4.7139,4.741,4.7838,4.9512,5.085,5.2034,5.3011,5.4184,5.5226,5.6081,5.5453,5.5104,5.5349,5.5303,5.4997,5.4335,5.3104,5.2161,5.1539,5.0939,5.0672,5.0735,5.0333,5.0195,5.019,4.8199,4.7615,4.8171,4.7552,4.7619,4.8112,4.8022,4.7785,4.7344,4.6753,4.6,4.5279,4.4856,4.4692,4.4523,0.0,0.0,0.0,0.0,0.0,0.0,0.0,0.0,0.0,0.0,2.2418,2.3032,0.0,0.0,0.0,0.0,0.0,0.0,0.0,0.0,0.0,0.0,0.0,0.0,0.0,0.0,0.0,0.0,0.0,0.0,0.0,0.0,0.0,0.0,0.0,0.0,0.0,0.0,0.0,0.0,0.0,0.0,0.0,0.0,0.0,0.0,2.3839,2.5383,2.7944,3.1306,3.1293,2.9847,2.961,3.1145,3.382,3.8222,4.0696,4.293,4.7125,4.8706,4.8997,4.8188,4.5856,4.2847,3.9545,3.6569,3.3195,2.8649,2.6093,2.4587,2.416,2.5269,2.7238,3.0252,3.3127,3.7189,4.3576,4.3503,4.5311,5.209,5.2518,5.3245,5.575,5.6029,5.629,5.6909,5.6874,5.5939,5.3987,5.49,5.5184,5.4465,5.3484,5.2511,5.1547,5.1256,5.1158,5.1223,5.0355,4.992,4.9915,4.8503,4.7956,4.8041,4.8041,4.8132,4.8188,4.8067,4.7973,4.7767,4.6525,4.5886,4.563,4.489,4.4625,4.4479,0.0,0.0,0.0,0.0,0.0,0.0,0.0,0.0,0.0,0.0,2.3048,2.2497,0.0,0.0,0.0,0.0,0.0,0.0,0.0,0.0,0.0,0.0,0.0,0.0,0.0,2.0643,2.0794,2.0717,2.0573,0.0,0.0,0.0,0.0,0.0,0.0,0.0,0.0,0.0,0.0,0.0,0.0,0.0,0.0,0.0,0.0,0.0,2.3948,2.4627,2.6357,3.1007,3.3924,3.6067,3.8434,4.1072,4.3528,4.5005,4.645,4.7896,4.9337,4.9839,4.9649,4.8462,4.5925,4.2366,3.7217,3.4182,3.0625,2.4288,2.3357,2.278,1.9829,2.2988,2.7483,3.183,3.5523,4.0396,4.7562,4.8148,4.9093,5.2506,5.3844,5.5329,5.7306,5.7978,5.8084,5.7771,5.715,5.6357,5.532,5.5067,5.4698,5.4078,5.3002,5.2199,5.1732,5.1699,5.1597,5.1462,5.1598,5.1362,5.0755,4.9814,4.9203,4.8815,4.8815,4.8815,4.8846,4.8815,4.8477,4.7834,4.6984,4.6298,4.5671,4.4169,4.4122,4.4544,0.0,0.0,0.0,0.0,0.0,0.0,0.0,2.2657,2.3828,2.4973,2.455,2.4089,2.3919,2.3792,2.392,0.0,0.0,0.0,0.0,0.0,0.0,0.0,0.0,0.0,0.0,2.1629,2.1688,2.2042,0.0,2.0107,2.0338,2.0079,1.9969,2.0068,2.0785,2.1531,2.2223,0.0,0.0,0.0,2.3041,2.3351,0.0,0.0,0.0,0.0,0.0,2.3774,2.5722,2.8186,3.1782,3.5952,4.0249,4.3265,4.55,4.6568,4.7637,4.8803,5.026,5.0464,4.9924,4.8529,4.5765,4.1692,3.5118,3.1599,2.7834,2.1227,2.0898,2.1354,1.987,2.2905,2.6738,3.0049,3.3888,3.8527,4.4518,4.6801,4.9365,5.3563,5.4821,5.6144,5.8103,5.8337,5.8078,5.7501,5.6748,5.6128,5.5635,5.5914,5.5647,5.4594,5.4025,5.3311,5.2367,5.216,5.1988,5.1918,5.1392,5.1161,5.1094,4.9721,4.9179,4.9308,4.9032,4.8956,4.8984,4.8925,4.8281,4.7293,4.7009,4.6225,4.5139,4.4276,4.427,4.4563,0.0,0.0,0.0,0.0,0.0,0.0,2.2419,2.3659,2.4847,2.6096,2.6191,2.5942,2.5313,2.4425,2.4072,0.0,0.0,0.0,0.0,0.0,0.0,0.0,0.0,0.0,0.0,0.0,0.0,2.3095,2.1174,0.0,0.0,0.0,0.0,0.0,2.0107,2.0665,2.13,2.1381,2.147,0.0,0.0,2.2617,0.0,0.0,0.0,0.0,0.0,2.2502,2.4247,2.4953,2.7728,3.1777,3.6689,4.0958,4.4236,4.5088,4.6515,4.8223,5.0196,5.0607,5.0073,4.8439,4.544,4.089,3.3301,2.9375,2.5492,1.9032,1.8803,1.9947,2.0275,2.217,2.452,2.7056,3.0125,3.4172,3.9765,4.3614,4.8015,5.3918,5.5363,5.6545,5.8451,5.8272,5.7746,5.6977,5.6401,5.586,5.5472,5.6235,5.6167,5.4907,5.4728,5.3937,5.2426,5.2418,5.2312,5.2004,5.1219,5.1055,5.1353,4.9924,4.9419,4.962,4.9241,4.9029,4.9018,4.8894,4.8118,4.7022,4.7,4.6089,4.479,4.4587,4.4553,4.4587,0.0,0.0,0.0,0.0,0.0,0.0,2.4174,2.4745,2.5686,2.8027,2.7359,2.6626,2.6695,2.542,2.4198,0.0,0.0,0.0,0.0,0.0,0.0,0.0,0.0,0.0,0.0,0.0,0.0,2.2827,2.1296,0.0,0.0,0.0,0.0,0.0,0.0,2.006,2.0286,2.0943,0.0,0.0,0.0,0.0,0.0,0.0,0.0,0.0,0.0,2.0296,2.0154,2.2676,2.3077,2.3095,2.6378,3.4001,4.1501,4.0616,4.3623,4.7588,4.8839,4.9899,5.0153,4.8024,4.4785,4.0017,3.2008,2.8077,2.4274,1.7658,1.7353,1.8301,1.821,1.837,1.9808,2.3781,2.4877,2.8163,3.662,4.0891,4.5601,5.2296,5.5165,5.7105,5.8327,5.8518,5.8103,5.6833,5.6664,5.6126,5.4941,5.4771,5.4564,5.4116,5.344,5.2389,5.0922,5.2186,5.2256,5.1135,5.2331,5.2504,5.1764,5.1766,5.1025,4.9814,4.9905,4.9627,4.9018,4.8987,4.8514,4.7733,4.7086,4.6312,4.5534,4.4823,4.4615,4.4615,0.0,0.0,0.0,0.0,0.0,0.0,2.4543,2.4955,2.578,2.8139,2.7703,2.7229,2.736,2.6263,2.5022,2.3848,0.0,0.0,0.0,0.0,0.0,0.0,0.0,0.0,0.0,0.0,2.4008,2.3406,2.2559,0.0,0.0,0.0,0.0,0.0,0.0,1.9938,1.9765,2.0287,0.0,0.0,0.0,0.0,0.0,0.0,0.0,0.0,0.0,0.0,1.8395,1.8684,1.9081,1.9267,1.852,2.361,3.091,3.6416,3.9967,4.3094,4.7508,4.9793,5.0267,4.7604,4.4107,3.9472,3.2295,2.7631,2.3255,1.7842,1.8119,1.9098,1.8137,1.8279,1.9022,2.0508,2.1591,2.4437,3.0739,3.521,4.1047,4.9584,5.1868,5.418,5.7847,5.7763,5.7139,5.6288,5.6623,5.6057,5.4251,5.5463,5.5492,5.4077,5.3787,5.2997,5.155,5.2208,5.2281,5.177,5.2163,5.21,5.1594,5.1497,5.1026,5.0323,5.0114,5.0107,5.0238,4.9138,4.8599,4.8357,4.7582,4.684,4.6098,4.5269,4.4995,4.4985,0.0,0.0,0.0,0.0,0.0,2.2376,2.4419,2.5159,2.6114,2.7777,2.7798,2.7645,2.757,2.6577,2.5524,2.4506,2.3764,0.0,0.0,0.0,0.0,0.0,0.0,0.0,0.0,0.0,2.4563,2.4229,2.3681,2.3176,0.0,0.0,2.1171,2.0843,0.0,0.0,0.0,0.0,0.0,0.0,0.0,0.0,0.0,0.0,0.0,0.0,0.0,0.0,0.0,0.0,0.0,1.5198,1.3078,1.4911,1.9749,2.9467,3.5093,3.9305,4.4405,4.7823,4.9358,4.6946,4.288,3.8056,3.265,2.7368,2.2432,1.8169,1.8642,1.9414,1.8157,1.8064,1.8133,1.7878,1.9085,2.1499,2.5772,3.0869,3.7222,4.5532,4.7972,5.0888,5.5668,5.6474,5.6558,5.6174,5.6644,5.6046,5.4014,5.5525,5.5532,5.3492,5.3708,5.306,5.146,5.225,5.2391,5.182,5.1932,5.1967,5.1997,5.1329,5.0991,5.0759,5.0183,5.0177,5.0441,4.911,4.8541,4.8366,4.7799,4.7093,4.6384,4.5555,4.5316,4.5303,0.0,0.0,0.0,0.0,0.0,2.2237,2.3855,2.5558,2.6849,2.7243,2.777,2.7877,2.7285,2.6232,2.5397,2.493,2.3532,0.0,0.0,0.0,0.0,0.0,0.0,0.0,0.0,0.0,2.4474,2.5196,2.4394,2.3805,2.3361,2.235,2.185,2.1759,0.0,0.0,0.0,0.0,0.0,0.0,0.0,0.0,0.0,0.0,0.0,0.0,0.0,0.0,0.0,0.0,0.0,0.0,0.0,0.9199,0.9459,1.8754,2.8692,3.7126,3.899,4.3362,4.7185,4.6011,4.0883,3.5458,3.2698,2.7228,2.1792,1.8464,1.836,1.8602,1.7937,1.6971,1.6279,1.615,1.7137,1.9138,2.2583,2.885,3.4952,3.979,4.3975,4.7782,5.1227,5.4672,5.668,5.668,5.668,5.6051,5.4593,5.4527,5.3787,5.2152,5.2622,5.1958,4.9944,5.2302,5.2573,5.0726,5.1797,5.2606,5.3145,5.1795,5.112,5.0956,5.0375,4.9695,4.9018,4.8863,4.8332,4.7594,4.7474,4.7035,4.6413,4.5677,4.5408,4.5274,0.0,0.0,0.0,0.0,0.0,0.0,2.3784,2.4231,2.4815,2.6211,2.5728,2.5427,2.5899,2.5302,2.4955,2.5214,2.4468,0.0,0.0,0.0,0.0,0.0,0.0,0.0,0.0,2.4019,2.4362,2.5493,2.5755,2.58,2.5554,2.4662,2.3748,2.2842,2.17,2.0326,0.0,0.0,0.0,0.0,0.0,0.0,1.8376,0.0,0.0,0.0,0.0,0.0,0.0,0.0,0.0,0.0,0.0,0.0,0.0,1.2963,2.0566,2.8806,3.3703,3.7812,4.0278,3.8449,3.5292,3.1993,2.922,2.5153,2.1063,1.8079,1.8462,1.8721,1.6622,1.6374,1.6316,1.5725,1.7111,1.8999,2.1278,2.789,3.4773,4.0752,4.8444,5.371,5.4922,5.6027,5.6757,5.6872,5.6326,5.5521,5.4523,5.3993,5.3298,5.2335,5.2587,5.2391,5.1783,5.2806,5.2977,5.2404,5.291,5.2876,5.2438,5.2099,5.1593,5.099,5.0375,5.0236,5.0441,4.9648,4.9216,4.8949,4.8757,4.8257,4.7586,4.7007,4.6374,4.5778,0.0,0.0,0.0,0.0,0.0,0.0,2.2243,2.3071,2.3917,2.4895,2.4545,2.4516,2.5468,2.4567,2.4175,2.4953,2.4842,0.0,0.0,0.0,0.0,0.0,0.0,0.0,2.4587,2.375,2.4348,2.6526,2.7561,2.8174,2.8269,2.7113,2.5853,2.4508,2.2765,2.1065,0.0,0.0,0.0,0.0,0.0,0.0,1.8945,0.0,0.0,0.0,0.0,0.0,0.0,0.0,0.0,0.0,0.0,0.0,0.0,0.0,1.5957,2.2277,2.795,3.2446,3.519,3.3722,3.1021,2.8427,2.7039,2.3785,2.041,1.827,1.9222,1.9683,1.7154,1.7015,1.7006,1.6251,1.7325,1.9101,2.176,2.8097,3.5256,4.2761,4.9977,5.451,5.498,5.6001,5.6542,5.6507,5.5961,5.5057,5.3798,5.3003,5.231,5.165,5.2357,5.2462,5.1997,5.2875,5.3146,5.2842,5.2977,5.2876,5.2606,5.2099,5.1592,5.1021,5.0373,5.0202,0.0,4.9613,4.9283,4.9283,4.8991,4.8493,4.7791,4.712,4.6555,4.5991,0.0,0.0,0.0,0.0,0.0,0.0,0.0,2.2144,2.3828,2.3449,2.4034,2.4736,2.5408,2.3915,2.32,2.4144,2.473,0.0,0.0,0.0,0.0,0.0,0.0,0.0,2.6244,2.3835,2.4308,2.7956,2.9494,3.0518,3.11,2.9618,2.8086,2.6515,2.3886,2.1947,2.0565,1.9647,1.9595,2.015,1.9998,2.0159,0.0,0.0,0.0,0.0,0.0,0.0,0.0,0.0,0.0,0.0,0.0,0.0,0.0,0.0,0.0,0.0,0.0,2.7273,3.1384,3.1041,2.7826,2.4951,2.582,2.2975,0.0,1.8895,2.0362,2.118,1.9008,1.8502,1.8187,1.7604,1.7862,1.9618,2.3721,2.9811,3.7059,4.5922,4.9509,5.1636,5.2436,5.4891,5.6222,5.5686,5.5549,5.4626,5.2542,5.1713,5.102,5.0359,5.1963,5.2235,5.1024,5.2673,5.3112,5.23,5.2367,5.2739,5.3382,5.1894,5.1183,5.1082,5.0338,4.9627,4.9018,4.8931,4.8868,4.8769,4.8423,4.7892,4.728,4.6424,4.6062,4.5796,0.0,0.0,0.0,0.0,0.0,0.0,0.0,0.0,0.0,0.0,2.2807,2.293,2.247,2.2456,2.2433,0.0,0.0,0.0,0.0,0.0,0.0,0.0,0.0,0.0,2.2621,2.215,2.3743,2.7469,2.9341,3.0728,3.1553,3.139,3.0065,2.7723,2.5963,2.3833,2.1447,1.956,1.9458,2.0519,2.0366,2.0099,0.0,0.0,0.0,0.0,1.8834,1.761,0.0,0.0,0.0,0.0,0.0,0.0,0.0,0.0,1.2971,1.6172,1.8251,0.0,2.5348,2.4639,2.3862,2.3198,0.0,2.1912,2.0402,1.8868,1.9937,2.0628,1.904,1.8395,1.836,1.9165,2.0232,2.227,2.5959,3.6224,4.5511,5.1426,5.4218,5.5369,5.467,5.5856,5.6382,5.5875,5.5165,5.4096,5.2473,5.1713,5.0856,4.9824,5.1229,5.1799,5.1153,5.2805,5.3277,5.2564,5.3107,5.3109,5.257,5.1623,5.0913,5.0304,4.9593,4.9154,4.9021,4.9405,4.9274,4.8837,4.8957,4.8326,4.7224,4.6993,4.6134,4.5042,0.0,0.0,0.0,0.0,0.0,0.0,0.0,0.0,0.0,0.0,2.2011,2.2208,2.2022,2.1563,2.1397,0.0,0.0,0.0,0.0,0.0,0.0,0.0,0.0,2.1078,2.2661,2.2265,2.4038,2.8077,3.0488,3.2337,3.3576,3.333,3.1928,2.9475,2.6266,2.3658,2.1573,2.0035,1.9935,2.0744,2.0402,0.0,0.0,0.0,0.0,0.0,1.9211,1.7632,0.0,1.238,1.0442,0.8767,0.0,0.0,0.0,0.0,1.2664,1.596,1.7314,2.0121,2.248,2.1711,2.1611,2.1517,2.0989,2.0643,2.0134,1.8986,2.0457,2.1638,2.0605,2.0226,2.0378,2.1449,2.3148,2.6382,3.2311,3.9966,4.7032,5.2524,5.4073,5.5101,5.6218,5.6156,5.5885,5.5418,5.4313,5.3144,5.2051,5.1287,5.0492,4.9622,5.076,5.1226,5.0839,5.2394,5.3036,5.2692,5.3036,5.2938,5.2398,5.1588,5.0811,5.0067,4.9323,4.9018,4.9018,4.9299,4.8998,4.8391,4.848,4.7649,4.631,4.5948,4.5563,4.5205,0.0,0.0,0.0,0.0,0.0,0.0,0.0,0.0,0.0,0.0,0.0,0.0,0.0,0.0,0.0,0.0,0.0,0.0,0.0,0.0,0.0,0.0,2.1568,2.1089,2.3909,2.3199,2.483,2.9083,3.2041,3.4208,3.5592,3.5194,3.3623,3.0808,2.5852,2.2874,2.151,2.0756,2.0651,2.0996,2.0741,0.0,0.0,0.0,0.0,0.0,0.0,0.0,0.0,1.1995,0.9961,0.826,0.6234,0.0,0.0,0.0,0.0,0.0,1.7988,2.0431,2.2162,2.1112,2.0841,2.062,1.9813,1.9814,1.9802,1.9302,2.1293,2.297,2.2477,2.2491,2.2857,2.3652,2.6479,3.1616,4.0349,4.3285,4.6639,5.2258,5.2717,5.3759,5.669,5.6012,5.5142,5.4616,5.3418,5.2287,5.1357,5.0759,5.0126,4.9487,5.032,5.058,5.0246,5.1775,5.2554,5.268,5.2522,5.2425,5.2393,5.1451,5.0642,4.9898,4.9255,0.0,4.8984,4.8883,4.8477,4.7872,4.7555,4.6615,4.5303,4.4557,4.4879,4.5427,0.0,0.0,0.0,0.0,0.0,0.0,0.0,0.0,0.0,0.0,0.0,0.0,0.0,0.0,0.0,0.0,0.0,0.0,0.0,0.0,0.0,2.3377,2.2204,2.2009,2.3006,2.3676,2.5786,2.9393,3.2748,3.4458,3.4666,3.626,3.4461,2.9645,2.6325,2.3942,2.2341,2.1394,2.1228,2.1661,2.2594,0.0,0.0,0.0,0.0,0.0,0.0,0.0,0.0,1.1235,0.9149,0.672,0.5862,0.0,0.0,0.0,0.0,0.0,1.9347,2.302,2.5091,2.2654,2.2167,2.2002,2.0976,2.0999,2.097,2.0107,2.1441,2.2782,2.2791,2.2934,2.335,2.4459,3.0384,3.8037,4.6977,4.9873,5.2236,5.5393,5.6092,5.5888,5.4815,5.5236,5.5019,5.3735,5.3404,5.248,5.0658,5.0459,4.9925,4.894,4.9678,4.99,4.9645,5.1268,5.2083,5.2114,5.1928,5.177,5.1643,5.0704,4.9864,4.9154,0.0,4.9018,4.8951,4.8342,4.8007,4.7838,4.7012,4.6178,4.5375,4.5098,4.4771,4.4336,0.0,0.0,0.0,0.0,0.0,0.0,0.0,0.0,0.0,0.0,0.0,0.0,0.0,0.0,0.0,0.0,0.0,0.0,0.0,0.0,2.2207,2.3665,2.2983,2.3464,2.537,2.6299,2.888,3.3218,3.5173,3.6305,3.6603,3.5674,3.3168,2.9408,2.6958,2.4686,2.2684,2.218,2.1965,2.1992,0.0,0.0,0.0,0.0,0.0,0.0,0.0,0.0,0.0,0.0,0.9006,0.6722,0.5778,0.0,0.0,0.0,0.0,0.0,1.8812,2.1494,2.3427,2.4241,2.5452,2.6168,2.5071,2.4898,2.4663,2.3506,2.4563,2.5634,2.5424,2.6472,2.9086,3.4312,3.7442,4.1621,4.8538,4.8865,4.9512,5.2671,5.3344,5.3702,5.4028,5.4386,5.4276,5.3612,5.2449,5.1589,5.1161,5.0393,4.9789,4.9375,4.9776,4.9825,4.9505,5.0335,5.118,5.2096,5.1531,5.1377,5.1631,5.0694,4.9788,4.9018,0.0,4.8781,4.8376,4.8041,4.7192,4.6109,4.6089,4.5293,4.427,4.4842,4.4378,4.3595,0.0,0.0,0.0,0.0,0.0,0.0,0.0,0.0,0.0,0.0,0.0,0.0,0.0,0.0,0.0,0.0,0.0,0.0,0.0,2.1551,2.1855,2.3743,2.3698,2.5138,2.8434,2.9414,3.2277,3.714,3.819,3.8542,3.8241,3.4937,3.1889,2.9092,2.7297,2.5171,2.2916,2.2767,2.2638,2.257,0.0,0.0,0.0,0.0,0.0,0.0,0.0,0.0,0.0,0.0,0.0,0.0,0.0,0.0,0.0,0.9742,1.2009,1.5057,1.8532,2.0427,2.2232,2.5803,2.7419,2.8219,2.867,2.856,2.8286,2.7935,2.9065,2.976,2.8518,3.0015,3.4083,4.2252,4.3137,4.4656,5.0069,4.8637,4.8104,5.1129,5.1361,5.1946,5.3629,5.3599,5.3354,5.3154,5.1555,5.0793,5.1195,5.0192,4.9586,4.9545,4.9738,4.9718,4.9411,4.956,5.0424,5.1912,5.0974,5.0823,5.1483,5.0515,4.9582,4.8748,4.8748,4.824,4.7365,4.7365,4.6249,4.4592,4.5196,4.4637,4.3564,4.4382,4.4085,4.337,0.0,0.0,0.0,0.0,0.0,0.0,0.0,0.0,0.0,0.0,0.0,0.0,0.0,0.0,0.0,0.0,0.0,0.0,0.0,2.311,2.274,2.256,2.4171,2.6998,3.12,3.2544,3.5147,3.9267,4.1414,4.0897,3.7766,3.5058,3.1757,2.8144,2.702,2.5322,2.3236,2.2853,2.3148,2.3839,2.37,0.0,0.0,0.0,0.0,0.0,0.0,0.0,0.0,0.0,0.0,0.0,0.0,0.0,0.93,1.0907,1.26,1.5013,1.9872,2.2533,2.4587,2.7208,2.5649,2.4743,2.9615,3.0256,3.0512,3.2832,3.4641,3.4739,3.1275,3.176,3.4805,4.1369,4.4406,4.8133,5.4278,5.4219,5.394,5.5073,5.3992,5.3243,5.3427,5.2981,5.2354,5.1549,5.1315,5.0721,4.9559,4.9557,4.9384,4.887,4.8993,4.9114,4.9229,4.9411,5.006,5.1183,5.0095,4.9979,5.0632,4.961,4.868,4.7973,4.7973,4.7162,4.5872,4.5872,4.5245,4.4355,4.4592,4.4502,4.4231,4.416,4.4015,4.386,0.0,0.0,0.0,0.0,0.0,0.0,0.0,0.0,0.0,0.0,0.0,1.8786,1.968,0.0,0.0,0.0,0.0,0.0,0.0,2.1999,2.2209,2.3938,2.3996,2.6311,3.1258,3.4477,3.8211,4.2474,4.2285,4.0676,3.7661,3.4125,3.0981,2.817,2.6977,2.5496,2.3916,2.3942,2.3948,2.3996,2.4717,2.4284,0.0,0.0,0.0,0.0,0.0,0.0,0.0,0.0,0.9994,0.7775,0.6453,0.7551,0.9532,1.0618,1.2853,1.5655,1.8838,2.1734,2.4315,2.6332,2.6118,2.6973,3.2805,3.5004,3.6153,3.7424,3.9011,3.9282,3.6457,3.8243,4.1351,4.4941,4.7997,5.114,5.4593,5.393,5.3357,5.4047,5.3476,5.2822,5.2108,5.2056,5.1728,5.079,5.0255,4.9526,4.8661,4.8162,4.7755,4.7389,4.7763,4.8152,4.8515,4.9052,4.9577,5.0095,4.9756,5.0031,5.0716,4.9154,4.829,4.7984,4.695,4.621,4.564,4.5048,4.435,4.3592,4.3479,4.3719,4.4155,4.3894,4.3868,4.3898,0.0,0.0,0.0,0.0,0.0,0.0,0.0,0.0,1.644,0.0,0.0,0.0,0.0,1.9908,0.0,0.0,0.0,0.0,2.3447,2.2356,2.2645,2.4779,2.436,2.5991,3.0194,3.4818,3.9295,4.3618,4.2811,4.0746,3.7407,3.3777,3.0775,2.8323,2.7156,2.6063,2.5113,2.5073,2.4856,2.4621,2.5392,2.4765,0.0,0.0,0.0,0.0,0.0,0.0,0.0,0.0,1.0432,0.8794,0.7034,0.8344,1.0616,1.1153,1.3332,1.6081,1.8532,2.0809,2.3094,2.5727,2.7224,2.9578,3.5583,3.7992,3.963,4.2012,4.2559,4.2239,4.0919,4.2732,4.5107,4.7042,5.0122,5.2669,5.3881,5.331,5.2705,5.2666,5.2391,5.1997,5.1454,5.1194,5.0827,5.0092,4.9393,4.8729,4.8197,4.7368,4.6895,4.6794,4.7264,4.7717,4.8018,4.8825,4.926,4.9411,4.932,4.9551,4.9971,4.8643,4.7674,4.6927,4.5828,4.4925,4.422,4.3777,4.3424,4.3138,4.3027,4.3398,4.3981,4.3717,4.3687,4.3809,0.0,0.0,0.0,0.0,0.0,0.0,0.0,0.0,1.2485,1.2663,1.2806,0.0,0.0,0.0,0.0,0.0,0.0,0.0,2.5603,2.484,2.4475,2.4601,2.543,2.6659,2.8243,3.3432,3.8084,4.2088,4.3192,4.1415,3.6951,3.4244,3.1381,2.8456,2.761,2.7084,2.6854,2.6121,2.5854,2.5875,2.572,2.5321,2.4731,0.0,0.0,0.0,0.0,0.0,0.0,0.0,1.1652,1.074,0.9318,1.0633,1.269,1.2851,1.4147,1.6204,1.9406,2.0199,2.1216,2.5901,2.8773,3.1907,3.7528,3.8591,4.016,4.6597,4.5438,4.347,4.4204,4.4224,4.4812,4.6786,5.0192,5.2553,5.2409,5.2937,5.2873,5.1657,5.0994,5.0995,5.1698,5.0459,4.9523,4.9326,4.8961,4.8529,4.8034,4.7399,4.7158,4.7378,4.772,4.7872,4.7872,4.8765,4.9199,4.9199,4.863,4.8289,4.8107,4.7928,4.6684,4.4615,4.4581,4.3267,4.1245,4.1856,4.2461,4.3031,4.3448,4.3717,4.3868,4.3658,4.3598,4.3598,0.0,0.0,0.0,0.0,0.0,0.0,0.0,0.0,1.3998,1.1803,1.2522,0.0,0.0,0.0,0.0,0.0,0.0,0.0,2.5494,2.5362,2.5595,2.6262,2.5954,2.6426,2.7853,3.2208,3.7108,4.2431,4.0985,3.9177,3.7014,3.3459,3.0865,2.9162,2.8331,2.7627,2.7054,2.7129,2.6943,2.6667,2.7513,2.6627,2.4778,0.0,0.0,0.0,0.0,0.0,0.0,0.0,0.0,0.0,0.8648,0.9893,1.1837,1.2835,1.5002,1.7458,1.8949,2.2652,2.6177,2.6686,3.078,3.5533,3.8791,4.0707,4.3311,4.8505,4.8247,4.6881,4.6275,4.7467,4.8302,4.7618,5.0196,5.2101,5.1678,5.1241,5.0808,5.0413,5.0025,4.9892,5.0225,4.9856,4.9323,4.8594,4.7997,4.7271,4.6318,4.5684,4.5333,4.5102,4.6163,4.6885,4.7124,4.8406,4.9046,4.9046,4.8395,4.8141,4.8285,4.7053,4.5818,4.4541,4.3354,4.2456,4.189,4.2494,4.3008,4.3448,4.3558,4.3628,4.3687,4.3628,4.3598,4.3598,0.0,0.0,0.0,0.0,0.0,0.0,1.7032,1.5808,1.4237,1.1857,1.174,1.2133,0.0,0.0,0.0,0.0,0.0,0.0,2.6233,2.6516,2.7137,2.8101,2.7487,2.7725,2.9031,3.1913,3.5296,3.9176,3.8797,3.7795,3.6189,3.3514,3.1573,3.0312,2.9943,2.9352,2.8708,2.9034,2.8523,2.7627,2.8804,2.7613,2.5181,0.0,0.0,0.0,0.0,0.0,0.0,0.0,0.0,0.0,0.9531,1.0826,1.2738,1.4538,1.6432,1.8577,2.1345,2.4945,2.8411,3.0547,3.449,3.88,4.2334,4.4658,4.6978,5.0473,5.0371,4.9455,4.8667,4.9453,4.979,4.8458,4.9746,5.0643,4.9916,4.9847,4.9715,4.919,4.9526,4.9759,4.972,4.9353,4.8986,4.8453,4.7626,4.6804,4.6213,4.5282,4.47,4.4537,4.5849,4.6528,4.6433,4.8196,4.8941,4.8606,4.789,4.7581,4.7602,4.6389,4.4987,4.3468,4.2145,4.156,4.158,4.2501,4.297,4.3168,4.3499,4.3433,4.3201,4.3499,4.34,4.3201,0.0,0.0,2.3141,2.1421,0.0,0.0,1.7875,1.5551,1.3733,1.2934,1.1057,1.0299,0.0,0.0,0.0,0.0,0.0,0.0,0.0,2.8169,2.8984,3.0228,2.9825,3.0062,3.1202,3.2179,3.3022,3.3804,3.6614,3.696,3.4932,3.4097,3.3009,3.1751,3.1935,3.1669,3.1097,3.1227,3.0241,2.8681,2.9565,2.8344,2.5887,2.4753,0.0,0.0,0.0,0.0,0.0,0.0,0.0,0.0,1.1283,1.2631,1.46,1.7092,1.8123,1.9682,2.5143,2.7065,2.9119,3.5885,3.9007,4.1815,4.7241,4.927,5.0505,5.2087,5.1754,5.112,5.1024,5.042,4.9755,4.9194,4.9127,4.8761,4.7602,4.8788,4.9321,4.81,4.9261,5.0026,4.9715,4.8916,4.8547,4.8606,4.7591,4.697,4.7063,4.5729,4.499,4.5072,4.6249,4.6549,4.5903,4.801,4.8693,4.798,4.7296,4.6777,4.638,4.5848,4.4277,4.1854,4.1117,4.0735,4.0673,4.2038,4.2551,4.2572,4.33,4.3168,4.2671,4.3333,4.3168,4.2671,0.0,0.0,2.2231,2.0757,0.0,0.0,1.8469,1.5948,1.4645,1.6057,1.3765,1.212,1.2455,1.5643,0.0,1.9266,0.0,0.0,0.0,2.9871,3.1064,3.312,3.2066,3.1685,3.2326,3.1655,3.1661,3.2411,3.4161,3.5194,3.5421,3.4193,3.3393,3.2996,3.2356,3.1659,3.0982,3.0518,3.0044,2.9608,2.9808,2.8669,2.6598,2.5083,2.2564,0.0,0.0,0.0,0.0,0.0,0.0,0.0,1.0944,1.224,1.3894,1.6318,1.8778,2.1376,2.4407,2.8534,3.2739,3.59,4.0435,4.5113,4.8866,4.9706,4.998,5.0856,5.0914,5.0859,5.0991,5.0526,4.9925,4.9194,4.932,4.8981,4.7464,4.8157,4.8488,4.7703,4.8134,4.8297,4.7823,4.8058,4.7994,4.7364,4.7291,4.6864,4.592,4.552,4.5022,4.4365,4.539,4.593,4.5732,4.7357,4.7797,4.7081,4.6912,4.6422,4.5639,4.5185,4.3849,4.1848,4.1117,4.0648,4.0503,4.151,4.2152,4.2572,4.33,4.3439,4.3248,4.3502,4.3439,4.3248,0.0,0.0,0.0,0.0,0.0,0.0,0.0,0.0,1.6196,1.7689,1.5422,1.3762,1.3992,1.5799,0.0,0.0,0.0,0.0,0.0,0.0,3.2064,3.4139,3.3783,3.2953,3.1787,3.1318,3.1354,3.192,3.285,3.3724,3.4489,3.3761,3.3452,3.3456,3.2992,3.2178,3.1043,3.0405,2.9668,2.8912,2.8959,2.7866,2.5997,2.4409,2.1832,1.8676,1.574,0.0,0.0,0.0,0.0,0.0,0.0,0.0,1.4411,1.7644,1.9684,2.1931,2.6615,3.0492,3.4399,3.91,4.3199,4.668,4.8959,4.8922,4.8683,4.9429,4.9914,5.009,4.9852,4.9159,4.8332,4.7441,4.7078,4.6616,4.5667,4.6354,4.6814,4.6388,4.7012,4.737,4.7068,4.7163,4.7195,4.7162,4.665,4.6052,4.5377,4.4733,4.4135,4.368,4.4699,4.5275,4.5275,4.7073,4.7446,4.6394,4.6587,4.6031,4.4865,4.3839,4.3075,4.2384,4.123,4.0767,4.0945,4.1759,4.2261,4.2572,4.33,4.3337,4.3013,4.3376,4.3277,4.3013,0.0,0.0,0.0,0.0,0.0,0.0,0.0,0.0,0.0,1.881,1.6642,1.5139,1.5636,1.6146,1.7205,0.0,0.0,0.0,0.0,0.0,0.0,3.4604,3.4603,3.3487,3.1104,3.1008,3.1232,3.182,3.2473,3.3248,3.4087,3.3854,3.3724,3.3633,3.3493,3.2529,3.098,3.0362,2.9215,2.7737,2.7915,2.6807,2.4884,2.3453,2.0859,1.7828,1.5959,1.2998,0.9992,1.0192,0.0,0.0,0.0,0.0,1.5538,1.9594,2.0793,2.2208,2.8672,3.1929,3.5195,4.2183,4.5245,4.6846,4.8001,4.7636,4.7228,4.7879,4.8515,4.8786,4.8247,4.7228,4.615,4.5141,4.4297,4.3716,4.3524,4.4398,4.5113,4.5114,4.6026,4.6644,4.6511,4.6238,4.6293,4.6886,4.5945,4.5306,4.5176,4.4279,4.3659,4.339,4.4406,4.4884,4.4748,4.6719,4.7024,4.5671,4.5988,4.5437,4.4086,4.2635,4.2317,4.2892,4.1316,4.0878,4.1276,4.1905,4.2208,4.2373,4.3102,4.3102,4.2741,4.3218,4.3082,4.2741,0.0,0.0,0.0,0.0,0.0,0.0,0.0,0.0,0.0,0.0,1.8089,1.6127,1.6404,1.7728,1.8378,0.0,0.0,0.0,2.767,0.0,0.0,3.5653,3.3363,3.2209,3.2487,3.0635,3.0405,3.1965,3.3275,3.4983,3.7084,3.617,3.5038,3.3748,3.3265,3.2073,3.0388,2.9646,2.8643,2.7571,2.7774,2.6274,2.392,2.3108,2.0413,1.6804,1.4754,1.2227,0.979,0.9667,0.9858,0.0,0.0,0.0,1.6902,2.0751,2.2176,2.3178,2.6367,3.1086,3.6206,4.0481,4.3299,4.5277,4.6021,4.6353,4.6416,4.614,4.6207,4.6398,4.6697,4.5699,4.4539,4.3784,4.3311,4.2967,4.278,4.3554,4.4461,4.521,4.5566,4.5527,4.49,4.5421,4.5582,4.4929,4.5571,4.566,4.4963,4.5664,4.5471,4.4192,4.5071,4.5258,4.4643,4.5529,4.5596,4.4778,4.4648,4.4215,4.3483,4.2503,4.24,4.292,4.1391,4.0688,4.0542,4.0641,4.1011,4.1612,4.234,4.291,4.3287,4.3386,4.3353,4.3287,0.0,0.0,0.0,0.0,0.0,0.0,0.0,0.0,0.0,0.0,0.0,1.7428,1.6677,1.7126,0.0,1.8062,2.0828,2.4701,2.9785,3.2673,3.4381,3.4806,3.2854,3.1475,3.0945,2.9433,2.9783,3.2069,3.3251,3.5292,3.8111,3.7772,3.6832,3.5437,3.39,3.2102,3.013,2.8897,2.7466,2.6017,2.5777,2.5177,2.4183,2.2136,2.0128,1.8056,1.546,1.2774,1.0502,1.1009,1.1421,1.2211,1.4912,0.0,0.0,0.0,2.1803,2.3014,2.7238,3.1042,3.4942,3.9628,4.2237,4.3847,4.4691,4.4984,4.4882,4.4197,4.3872,4.3866,4.4519,4.3481,4.2443,4.2235,4.1844,4.1703,4.2093,4.2963,4.3837,4.4587,4.4937,4.4898,4.4383,4.4469,4.4561,4.4506,4.4716,4.4727,4.4482,4.4955,4.4827,4.3833,4.4626,4.5128,4.5196,4.5534,4.5505,4.5048,4.4524,4.3923,4.3155,4.2442,4.2482,4.3004,4.1037,4.0308,4.0491,4.0437,4.0779,4.1446,4.2208,4.2907,4.3509,4.3449,4.3449,4.3509,0.0,0.0,0.0,0.0,0.0,0.0,0.0,0.0,0.0,0.0,0.0,1.8329,1.719,0.0,0.0,0.0,2.0683,2.4755,3.0859,3.229,3.3198,3.3859,3.2162,3.0844,3.0029,2.8792,2.9406,3.1978,3.3403,3.5587,3.8407,3.8803,3.8398,3.7117,3.4663,3.2301,3.0073,2.8547,2.6961,2.5371,2.4986,2.476,2.4424,2.248,2.1338,2.0388,1.7533,1.4885,1.2837,1.3346,1.3444,1.3849,1.644,1.8042,0.0,0.0,0.0,2.2226,2.6469,2.8533,3.0914,3.659,3.9346,4.1118,4.2912,4.3363,4.316,4.2397,4.1645,4.1227,4.1626,4.1011,4.0418,4.0395,3.9993,4.0053,4.1111,4.2013,4.2888,4.3896,4.4179,4.424,4.4025,4.3746,4.377,4.4177,4.3989,4.3894,4.4097,4.438,4.4187,4.3409,4.435,4.4959,4.5128,4.5331,4.5139,4.4614,4.422,4.3496,4.2534,4.2045,4.2139,4.257,4.056,4.0034,4.054,4.0011,4.0293,4.112,4.1484,4.2179,4.301,4.3086,4.3215,4.3333,0.0,0.0,0.0,0.0,0.0,0.0,0.0,0.0,0.0,0.0,0.0,0.0,1.8342,1.8289,1.8143,1.7773,2.0754,2.4578,2.9144,3.0438,3.1783,3.3457,3.1065,0.0,3.1372,2.9404,2.9433,3.1546,3.426,3.651,3.8293,3.9228,3.9237,3.8289,3.5357,3.2554,2.9941,2.8911,2.783,2.6833,2.7028,2.5869,2.4077,2.5377,2.5108,2.3657,2.1174,1.9232,1.7657,1.6648,1.5584,1.5307,1.8784,2.0165,2.1009,0.0,0.0,0.0,2.1429,2.1515,2.3024,2.9341,3.2997,3.6074,4.0075,4.1376,4.1531,4.0873,3.9616,3.8444,3.7727,3.8329,3.8745,3.8276,3.7769,3.801,3.9577,4.0274,4.1339,4.3227,4.33,4.327,4.3421,4.3542,4.3539,4.3452,4.3572,4.3747,4.4068,4.4763,4.4611,4.3443,4.4857,4.4959,4.3511,4.4282,4.391,4.2489,4.3002,4.2564,4.1279,4.1148,4.1148,4.1245,4.0176,4.0034,4.0473,3.8811,3.8941,4.0127,3.9495,4.0117,4.1408,4.2104,4.2455,4.2638,0.0,0.0,0.0,0.0,0.0,0.0,0.0,0.0,0.0,0.0,0.0,0.0,0.0,1.7463,1.8248,1.8983,2.2901,2.6604,2.9568,3.0767,3.1796,3.2824,3.1483,3.0706,3.0735,2.9547,2.9618,3.1073,3.3569,3.5615,3.7224,3.7774,3.7265,3.5868,3.4969,3.3406,3.1304,2.948,2.7873,2.6615,2.7058,2.6976,2.6635,2.6887,2.7229,2.7246,2.4942,2.2798,2.1091,2.1353,2.0537,1.9725,2.1859,2.2709,2.2875,2.2634,2.1236,1.9865,2.0476,2.0078,2.0807,2.6458,2.9947,3.2881,3.6137,3.8264,3.9336,3.8613,3.8079,3.7373,3.6284,3.6842,3.7373,3.7222,3.69,3.7226,3.8874,3.9691,4.0954,4.3248,4.3446,4.3583,4.4078,4.3803,4.3539,4.3419,4.3628,4.3864,4.4097,4.4888,4.4966,4.4181,4.5162,4.5229,4.4181,4.4333,4.3962,4.2997,4.2665,4.1998,4.1073,4.11,4.0863,4.0332,3.9488,3.9142,3.9135,3.8427,3.8659,3.9457,3.9388,4.015,4.1451,4.2413,4.265,4.2634,0.0,0.0,0.0,2.2224,0.0,2.2306,2.2282,2.2351,2.1904,2.0539,0.0,0.0,0.0,0.0,1.9622,2.1509,2.4637,2.7559,2.9984,3.0992,3.1868,3.2667,3.1833,3.1183,3.0797,2.9956,3.0083,3.1277,3.3492,3.512,3.6215,3.6593,3.5919,3.4281,3.3906,3.3191,3.2027,2.9972,2.8483,2.7603,2.8065,2.7861,2.7417,2.847,2.8941,2.8938,2.7862,2.6671,2.5705,2.6366,2.5865,2.5006,2.5837,2.5466,2.4388,2.265,2.0431,1.8552,1.865,1.7858,1.8092,2.2913,2.5972,2.8861,3.2874,3.4963,3.6202,3.6707,3.6533,3.6046,3.5263,3.556,3.5938,3.5887,3.5961,3.6495,3.791,3.8864,4.0221,4.2278,4.2907,4.3343,4.3776,4.3671,4.3568,4.3479,4.3485,4.3656,4.4097,4.4476,4.4653,4.4615,4.4823,4.4823,4.4615,4.4198,4.3664,4.3031,4.2179,4.1411,4.0695,4.0806,4.051,3.9927,3.9143,3.8682,3.8387,3.7742,3.7952,3.8731,3.8705,3.9475,4.0756,4.2088,4.2427,4.2389,2.2308,2.2567,2.2726,2.2283,2.2157,2.2474,2.3634,2.3272,2.2931,2.3157,0.0,0.0,0.0,0.0,0.0,2.5204,2.583,2.7312,3.024,3.1011,3.1873,3.3038,3.2089,3.1618,3.1771,3.069,3.0776,3.2134,3.4108,3.5155,3.5346,3.5869,3.5284,3.3756,3.2257,3.1752,3.1841,3.0276,2.9621,2.9824,3.019,2.8584,2.6311,3.0332,3.054,2.8849,3.0007,3.0948,3.1591,3.1571,3.1277,3.0797,3.0462,2.8282,2.5521,2.3963,2.0616,1.7106,0.0,0.0,0.0,1.846,2.0868,2.3904,3.0278,3.1473,3.2078,3.5024,3.4823,3.4178,3.4382,3.4431,3.4382,3.4292,3.4886,3.568,3.6561,3.7763,3.8995,4.0255,4.1498,4.2298,4.2473,4.3135,4.3532,4.3532,4.2983,4.3056,4.3997,4.3502,4.3608,4.4581,4.3842,4.3809,4.4581,4.3775,4.2997,4.2252,4.1508,4.0798,4.0113,4.0113,4.0079,4.0045,3.916,3.8673,3.8447,3.6763,3.6828,3.7946,3.7375,3.7885,3.9232,4.1056,4.1699,4.1894,2.278,2.2241,2.2031,2.2731,2.2352,2.2466,2.3859,2.4085,2.382,0.0,0.0,0.0,2.1188,2.28,2.4765,2.6566,2.7557,2.8975,3.1048,3.1941,3.2569,3.2995,3.2981,3.2493,3.1459,3.0802,3.0447,3.0469,3.319,3.4288,3.3887,3.4583,3.3716,3.1472,3.0311,2.9488,2.8906,2.8834,2.8857,2.9102,3.0877,3.1054,3.0589,3.4187,3.5436,3.5388,3.5849,3.5096,3.4111,3.5562,3.4142,3.1569,3.0193,2.8125,2.5597,2.227,1.987,1.7659,1.4783,0.0,0.0,0.0,0.0,0.0,2.4888,2.6689,2.8312,3.0921,3.0826,3.0794,3.2538,3.2784,3.2923,3.3421,3.4211,3.5128,3.6183,3.6924,3.8177,4.0334,4.0796,4.1319,4.2406,4.2175,4.2009,4.2009,4.2066,4.2234,4.249,4.3048,4.372,4.4581,4.4378,4.4079,4.3741,4.2888,4.2146,4.1508,4.0661,4.0214,4.0113,4.0113,3.9808,3.9242,3.8385,3.7926,3.7769,3.717,3.7443,3.8136,3.8066,3.8557,3.9588,4.1352,4.1525,4.1227,2.2796,2.2447,2.2469,2.3441,2.3442,2.3766,2.5083,2.5256,2.5083,0.0,0.0,0.0,2.3248,2.4989,2.6609,2.7451,2.8885,3.0228,3.141,3.268,3.3367,3.337,3.335,3.2844,3.1832,3.1353,3.0997,3.0788,3.3243,3.42,3.3769,3.3833,3.2616,3.039,2.9358,2.8215,2.7066,2.783,2.8314,2.8769,3.1474,3.175,3.0993,3.5305,3.6242,3.5523,3.7245,3.7036,3.6313,3.8905,3.747,3.4234,3.2047,2.8841,2.5101,2.1285,1.867,1.6586,1.4366,1.3788,1.4185,1.5858,0.0,0.0,2.366,2.5162,2.675,2.9899,2.9931,2.9886,3.1574,3.1876,3.2007,3.2443,3.3501,3.4622,3.5542,3.6215,3.7378,3.9311,3.9893,4.0621,4.1844,4.1705,4.1526,4.1526,4.1482,4.1479,4.15,4.2422,4.3166,4.3633,4.3667,4.3403,4.2963,4.2139,4.1565,4.1204,4.0332,3.9767,3.9564,3.9589,3.9183,3.8425,3.7672,3.761,3.8011,3.7635,3.7761,3.8221,3.8351,3.8809,3.9615,4.1297,4.1537,4.1361,0.0,2.2954,2.3439,2.4186,2.4808,2.5636,2.6733,2.6485,2.6536,0.0,2.6624,2.6046,2.6242,2.7203,2.7945,2.8222,2.9945,3.1286,3.1823,3.3344,3.4209,3.4224,3.3485,3.2925,3.2532,3.1997,3.1787,3.1929,3.3665,3.4357,3.4046,3.3334,3.1914,2.9961,2.89,2.7521,2.6081,2.7089,2.7999,2.9047,3.1889,3.1536,2.9948,3.4988,3.5101,3.3008,3.6378,3.7738,3.8429,4.1441,4.061,3.7866,3.471,3.0071,2.4974,2.0703,1.7509,1.5207,1.4276,1.413,1.4796,1.6993,1.838,0.0,2.4243,2.4939,2.58,2.947,2.9572,2.9283,3.0237,3.0467,3.0576,3.077,3.2141,3.3601,3.4665,3.5709,3.674,3.7801,3.894,3.9969,4.084,4.1204,4.13,4.1205,4.0802,4.0695,4.0987,4.176,4.2245,4.2313,4.2313,4.2279,4.2178,4.1542,4.117,4.1068,4.0197,3.9438,3.8823,3.8796,3.8333,3.7576,3.7134,3.7618,3.8614,3.8042,3.8045,3.8406,3.8476,3.885,3.9534,4.1111,4.1633,4.1822,2.2943,2.3155,2.3513,2.4232,2.4696,2.5536,2.7262,2.7213,2.7653,2.946,2.8287,2.7436,2.7745,2.801,2.8692,2.9934,3.1139,3.2558,3.4192,3.4405,3.4947,3.6031,3.4122,3.2968,3.2905,3.1657,3.0763,3.027,3.2444,3.2964,3.1998,3.208,3.0941,2.8788,2.7652,2.6511,2.5505,2.5981,2.7941,3.0817,3.1521,3.2777,3.4354,3.6057,3.7712,3.9113,3.8807,3.9563,4.0865,4.1791,4.1553,3.9854,3.3907,3.1247,2.8552,1.9814,1.7829,1.7717,1.3936,1.3453,1.4532,1.6598,1.7974,0.0,2.0262,2.026,2.0369,2.1487,2.1306,2.1609,2.3697,2.3903,2.4274,2.5991,2.7437,2.9781,3.3918,3.5608,3.6882,3.8012,3.8329,3.8676,3.9309,3.9312,3.8974,3.8235,3.8697,3.9647,4.1084,4.1313,4.173,4.2445,4.2339,4.2068,4.1588,4.1323,4.0899,4.0316,3.9421,3.8983,3.8946,3.8143,3.7494,3.6986,3.7259,3.758,3.7965,3.8279,3.8858,3.9554,3.9347,3.942,3.9766,4.1188,4.1382,4.1318,2.3153,2.3367,2.3777,2.4588,2.5441,2.6457,2.7718,2.7975,2.8455,2.9762,2.9038,2.8373,2.842,2.856,2.8987,2.9811,3.1028,3.219,3.3206,3.4192,3.5022,3.5669,3.4533,3.3848,3.3701,3.2585,3.1511,3.0568,3.257,3.2836,3.1548,3.1567,3.0912,2.9675,2.7714,2.6738,2.6606,2.7237,2.8426,3.0056,3.2518,3.4669,3.6684,3.8716,3.9715,3.9977,3.9809,4.1069,4.2794,4.286,4.1536,3.9156,3.5125,3.1823,2.781,1.9822,1.8076,1.7743,1.3472,1.346,1.5246,1.7477,1.9317,0.0,0.0,2.1046,2.0732,2.1003,2.0409,2.0015,2.0502,2.1561,2.2362,2.2353,2.5592,2.8491,2.965,3.2166,3.483,3.7354,3.6602,3.6445,3.7804,3.7388,3.7163,3.7369,3.8229,3.9396,4.0998,4.0806,4.1027,4.1824,4.1425,4.0883,4.0188,4.051,4.0087,3.9005,3.8881,3.8378,3.759,3.7196,3.6578,3.5884,3.6811,3.7422,3.7851,3.8198,3.9057,4.0062,3.9729,3.9399,3.9206,4.0627,4.0955,4.1003,2.2885,2.3464,2.415,2.476,2.6144,2.7272,2.7846,2.8402,2.9003,2.9546,2.9201,2.8894,2.8838,2.9435,3.0158,3.0853,3.2206,3.3081,3.3245,3.4513,3.5159,3.4871,3.461,3.4393,3.4361,3.3623,3.263,3.1478,3.282,3.2767,3.1322,3.0961,3.0712,3.061,2.861,2.7972,2.8511,2.9704,3.0306,3.0795,3.4283,3.596,3.6626,3.9572,3.9809,3.8735,4.0503,4.2434,4.4179,4.4087,4.1685,3.8293,3.5954,3.209,2.7052,1.9757,1.8178,1.7767,1.309,1.3635,1.5983,1.8274,2.0595,2.2413,0.0,0.0,0.0,2.1093,2.0387,1.9482,1.8232,1.9926,2.1019,1.9604,2.3862,2.6742,2.507,2.7542,3.1065,3.518,3.4444,3.4286,3.6072,3.5232,3.5314,3.7157,3.772,3.8738,4.0568,4.0324,4.0409,4.1044,4.0282,3.9605,3.9054,3.9469,3.9005,3.7686,3.8125,3.7541,3.609,3.6162,3.5756,3.5067,3.6453,3.7282,3.7733,3.8316,3.9078,3.988,3.9615,3.9209,3.8846,4.0154,4.0654,4.0909,2.1458,2.3206,2.476,2.4499,2.5762,2.6858,2.7261,2.8096,2.8928,2.954,2.9053,2.892,2.9573,3.1609,3.3976,3.6609,3.8224,3.9139,3.9242,3.7348,3.5866,3.5096,3.3811,3.347,3.423,3.3556,3.2865,3.2208,3.2078,3.1377,3.0108,2.9453,2.9323,2.9616,3.0362,3.0727,3.0857,3.2684,3.5209,3.7961,3.6896,3.4826,3.262,3.4302,3.5731,3.7345,4.1749,4.382,4.4492,4.4923,4.3251,3.9927,3.3581,3.2262,3.0631,1.8355,1.8057,2.0118,1.3169,1.3403,1.6049,1.7642,1.9773,2.1208,1.9912,0.0,1.8524,1.5,0.0,1.5584,1.4955,0.0,0.0,1.8081,1.9533,2.1222,2.3242,2.3364,2.5055,2.9968,3.2045,3.3222,3.3608,3.2298,3.2887,3.6353,3.5539,3.6226,3.9248,3.9957,4.0372,4.0563,3.9627,3.9122,3.9176,3.8478,3.7719,3.6931,3.6764,3.629,3.5564,3.5228,3.5148,3.5335,3.6922,3.731,3.6998,3.9296,3.9505,3.8468,3.8796,3.9228,3.9799,4.0507,4.0862,4.117,2.1887,2.2267,2.2869,2.3253,2.4342,2.537,2.583,2.7219,2.8224,2.8296,2.925,3.0493,3.1917,3.3652,3.6133,3.9525,3.996,3.9943,3.9766,3.8655,3.7252,3.5489,3.4936,3.4796,3.519,3.4927,3.446,3.382,3.3078,3.2144,3.0994,2.9459,2.952,3.0966,3.0778,3.1977,3.4258,3.5317,3.6358,3.7189,3.7035,3.4756,3.1864,3.5503,3.7461,3.8681,4.1546,4.3558,4.4883,4.5269,4.3023,3.9646,3.7281,3.3138,2.7842,2.097,1.875,1.7552,1.2965,1.4625,1.8088,1.9748,2.2141,2.3618,2.1745,2.009,1.8113,1.5014,0.0,0.0,0.0,0.0,0.0,0.0,1.8577,2.0205,2.0071,2.2052,2.4858,2.8524,2.8852,2.938,3.0999,3.0162,3.095,3.4387,3.4471,3.5798,3.9035,3.9579,3.9968,4.0387,3.9108,3.8235,3.7874,3.7797,3.7209,3.6129,3.6303,3.5971,3.5152,3.5081,3.4977,3.5053,3.6904,3.7533,3.7412,3.9136,3.971,3.9418,3.9611,3.9555,3.9446,4.006,4.0277,4.0452,2.2728,2.2105,2.1866,2.255,2.3624,2.4632,2.5462,2.6569,2.7476,2.7765,2.9465,3.167,3.4265,3.68,3.9825,4.3624,4.3862,4.311,4.1436,4.0637,3.8753,3.5609,3.5808,3.6183,3.6592,3.6611,3.623,3.5406,3.4529,3.3255,3.1667,2.9688,2.9862,3.1904,3.1641,3.3666,3.7268,3.8302,3.8683,3.8596,3.8091,3.5789,3.2967,3.6103,3.8247,3.9808,4.1247,4.3173,4.5069,4.5153,4.2697,3.9472,3.901,3.3854,2.7336,2.4002,2.1252,1.8556,1.4866,1.6923,2.0264,2.0904,2.2979,2.4468,2.2777,2.0613,1.8368,1.6209,1.6334,0.0,0.0,0.0,1.8253,1.6607,0.0,1.9709,1.8704,2.1131,2.3752,2.5881,2.5441,2.5736,2.7673,2.7279,2.823,3.1374,3.2392,3.4355,3.7874,3.8538,3.9119,3.9773,3.8408,3.7466,3.6968,3.7064,3.6487,3.5295,3.5786,3.5552,3.4665,3.4958,3.4977,3.4934,3.6904,3.7624,3.7547,3.9068,3.9958,4.0372,4.0576,4.0365,4.0002,4.0391,4.049,4.0579,2.3569,2.3279,2.3039,2.3069,2.4186,2.5513,2.6817,2.6528,2.6804,2.8613,2.9562,3.1725,3.6235,4.1584,4.6434,5.0322,5.2406,5.1459,4.6518,4.3995,4.0447,3.5339,3.5804,3.6864,3.8294,3.8397,3.7871,3.6751,3.6052,3.4226,3.1369,2.9813,2.9919,3.1536,3.3698,3.6401,3.9467,4.189,4.4115,4.5596,4.1242,3.8201,3.599,3.3725,3.57,3.9801,4.1108,4.3024,4.4843,4.4555,4.2787,0.0,3.6066,3.4071,3.2127,2.6487,2.624,2.6408,2.005,2.0489,2.217,1.9732,2.0484,2.1695,2.1257,2.0196,1.8889,1.7434,1.7515,1.7658,1.6971,1.7854,1.8873,1.9363,1.8569,0.0,0.0,1.9803,1.9481,2.027,2.2026,2.3174,2.3112,2.3044,2.4177,2.7079,2.8299,3.0711,3.4916,3.6538,3.7705,3.846,3.7479,3.7002,3.708,3.6096,3.524,3.4539,3.4956,3.4772,3.4049,3.4772,3.5105,3.5195,3.7071,3.7472,3.6931,3.9433,4.0485,4.0563,4.128,4.1921,4.2343,4.2272,4.2219,4.232,2.4728,2.424,2.3654,2.3307,2.3559,2.4345,2.5876,2.6603,2.8457,3.2582,3.5962,4.0433,4.6903,5.0153,5.3136,5.6299,5.5915,5.293,4.6874,4.4981,4.155,3.6023,3.6429,3.7388,3.8651,3.9422,3.9612,3.9256,3.7011,3.5334,3.4113,3.0867,3.0183,3.1757,3.3728,3.6809,4.0689,4.3119,4.4857,4.5616,4.1516,3.9124,3.7911,3.6319,3.7295,3.9828,4.2107,4.3935,4.5233,4.5249,4.3494,4.0919,3.8823,3.4507,2.9858,2.7736,2.5603,2.3642,0.0,0.0,2.7522,2.5314,2.6505,2.7388,2.403,2.1742,1.9805,1.8118,1.8618,1.9183,1.858,1.9306,2.0104,2.0281,1.9203,1.8826,0.0,2.0423,2.0644,2.1329,2.231,2.2587,2.1797,2.2485,2.3745,2.5548,2.8046,0.0,3.3904,3.5673,3.6903,3.7624,3.6694,3.6174,3.6253,3.5678,3.5249,3.5037,3.5088,3.4971,3.4715,3.4878,3.5081,3.5312,3.6928,3.7528,3.7557,4.0059,4.1061,4.1095,4.2422,4.3015,4.3051,4.2516,4.2233,4.2287,2.5682,2.5039,2.4439,2.4263,2.3979,2.4356,2.6054,2.7482,3.0474,3.6371,4.0835,4.6192,5.3391,5.6072,5.7942,5.9447,5.8691,5.4868,4.714,4.6597,4.3919,3.7866,3.8611,3.9893,4.1479,4.1623,4.1746,4.1878,3.944,3.7552,3.6164,3.2407,3.1265,3.2409,3.4289,3.7769,4.238,4.5029,4.6738,4.7248,4.2685,4.0451,3.9751,3.869,3.9155,4.07,4.314,4.4945,4.6139,4.5957,4.4364,4.2123,4.0299,3.5964,3.1457,3.0952,2.8632,2.635,2.6692,2.9173,0.0,2.9252,3.0217,3.0624,2.678,2.4133,2.209,2.08,2.011,2.0129,2.1342,2.0886,2.0651,2.1708,2.0353,1.951,0.0,2.1198,2.1582,2.1423,2.1424,2.1277,2.0862,2.091,2.1732,2.3558,2.6267,2.9066,3.1976,3.426,3.5924,3.69,3.6271,3.5866,3.5866,3.5228,3.4912,3.4958,3.4798,3.4705,3.4738,3.4971,3.5175,3.5392,3.6961,3.7696,3.7937,4.0366,4.1417,4.1711,4.301,4.3654,4.3775,4.3267,4.3044,4.3063,2.6481,2.5854,2.5495,2.5818,2.5313,2.5496,2.7324,2.9055,3.2758,3.9973,4.4075,4.9016,5.5981,5.9591,6.1098,6.0205,6.0996,5.7413,4.7691,4.8916,4.718,4.0756,4.2136,4.4054,4.6353,4.4846,4.4169,4.4467,4.3037,4.0649,3.7403,3.4325,3.303,3.3343,3.5462,3.926,4.4338,4.7506,4.9657,5.0397,4.4766,4.218,4.153,4.0588,4.0998,4.2364,4.4218,4.6055,4.747,4.6618,4.5356,4.3617,4.0266,3.8191,3.6746,3.5659,3.4916,3.4103,3.2509,3.2757,3.3091,3.1361,3.1438,0.0,0.0,2.7151,2.5536,2.5123,2.2046,2.0776,2.5073,2.2542,2.0746,2.3511,2.1963,2.0588,2.1166,2.2008,2.2035,2.0476,1.9547,1.9305,2.0028,1.8294,1.8295,2.1158,2.2935,2.5568,2.9414,3.2361,3.4636,3.6249,3.6071,3.5963,3.5975,3.4823,3.4253,3.4342,3.4152,3.4039,3.4106,3.5036,3.5406,3.5415,3.7162,3.7932,3.8101,4.0358,4.1677,4.2422,4.3132,4.391,4.4615,4.4615,4.4615,4.4615,2.7748,2.7797,2.7253,2.5952,2.5666,2.6132,2.7597,3.0432,3.5907,4.558,5.0092,5.5854,6.4812,6.6316,6.5786,6.3583,6.2478,5.832,4.9909,5.0082,4.8261,4.3201,4.4042,4.5123,4.6212,4.6158,4.5829,4.529,4.3735,4.1437,3.8426,3.5544,3.3704,3.2916,3.6084,3.9483,4.3168,4.7786,4.9567,4.8952,4.5697,4.3628,4.2404,4.2007,4.3178,4.5039,4.5803,4.6746,4.7488,4.6834,4.5559,4.3694,4.0371,3.8548,3.7219,3.5014,3.4247,3.4149,3.4323,3.5208,3.5832,3.4691,3.4889,3.4637,0.0,0.0,0.0,0.0,0.0,0.0,2.5273,2.4094,2.3132,2.3516,2.3134,2.2895,2.3149,2.2856,2.272,2.3048,2.0974,1.8985,1.7608,1.7429,1.8401,2.0843,2.1823,2.4837,3.0681,3.1262,3.2911,3.6194,3.5472,3.5256,3.5711,3.469,3.4363,3.4758,3.4805,3.4851,3.4977,3.5028,3.5198,3.5564,3.758,3.8479,3.8747,4.1076,4.2455,4.3166,4.3308,4.391,4.4615,4.4615,4.4615,4.4615,2.8956,2.8627,2.796,2.7087,2.8778,3.0622,3.1574,3.302,3.7966,4.8845,5.304,5.7892,6.553,6.7343,6.6957,6.4288,6.2442,5.8378,5.1217,5.1761,5.0198,4.5334,4.6031,4.6691,4.7068,4.6797,4.6645,4.6741,4.5218,4.291,3.9941,3.7384,3.5248,3.373,3.7281,4.0573,4.3787,4.8807,5.0444,4.9419,4.6942,4.5339,0.0,4.389,4.5382,4.7711,4.7836,4.8098,4.8219,4.7168,4.579,4.3898,4.0603,3.8785,3.7399,3.509,3.4547,3.4845,3.5513,3.6702,3.77,3.7331,3.7855,3.7635,3.4457,3.2357,3.0764,0.0,2.7886,2.6982,0.0,2.6217,2.4257,2.4379,2.4782,2.5007,2.4914,2.4182,2.3581,2.345,2.1409,1.9507,1.8274,1.7454,1.7751,1.9584,2.0417,2.2919,0.0,2.9839,3.2206,3.507,3.4078,3.4111,3.5441,3.3434,3.3088,3.4419,3.4605,3.4754,3.4856,3.5065,3.5459,3.6081,3.7917,3.8942,3.9539,4.1854,4.3031,4.3477,4.4119,4.4485,4.4649,4.4959,4.4857,4.4615,2.9962,2.9085,2.8361,2.8572,3.2826,3.6525,3.7392,3.7257,4.0803,5.1432,5.4889,5.8221,6.3101,6.5802,6.6189,6.3539,6.1697,5.8196,5.242,5.3734,5.2544,4.7637,4.8179,4.8569,4.8485,4.729,4.7217,4.8346,4.7057,4.4745,4.1406,3.9372,3.7278,3.5389,3.8944,4.2542,4.6187,5.0335,5.1622,5.0719,4.8076,4.6904,4.6646,4.5707,4.7198,4.9779,4.957,4.9521,4.934,4.783,4.6262,4.4334,4.1158,3.9159,3.7604,3.5708,3.5352,3.5685,3.6257,3.7402,3.8563,3.9103,3.9908,3.9755,3.6736,3.518,3.3918,3.2336,2.9758,2.8842,3.2349,0.0,2.5243,2.5871,2.6781,2.7274,2.6909,2.6079,2.4974,2.3441,2.178,0.0,2.015,1.7557,1.6616,1.8336,1.8759,2.045,0.0,0.0,3.1804,3.3974,3.2912,3.3094,3.4797,3.2038,3.1577,3.3448,3.4037,3.4275,3.4342,3.5215,3.5933,3.6629,3.8311,3.9463,4.0366,4.2469,4.3375,4.3544,4.5196,4.5331,4.4716,4.5534,4.5365,4.475,3.0425,3.0487,3.0195,2.9189,3.3679,3.856,4.1953,4.5491,5.0022,5.6294,5.9573,6.2915,6.6993,6.753,6.6333,6.31,6.1662,5.9194,5.5151,5.5632,5.4674,5.1548,5.0927,5.0453,5.0012,4.9074,4.8753,4.9007,4.838,4.5966,4.1866,4.0733,3.9183,3.7604,4.1283,4.6272,5.193,5.2197,5.1712,5.0527,4.8067,4.7013,4.6846,4.5841,4.7021,4.9134,4.8933,4.9541,5.0347,4.9529,4.7679,4.5343,4.2826,4.0666,3.8729,3.7017,3.5969,3.5601,3.6805,3.7039,3.7356,3.9024,3.9009,3.8366,3.7491,3.6044,3.4558,3.3436,3.2762,3.2241,3.1929,0.0,2.9077,2.7655,2.9142,3.0454,3.0279,2.9163,2.798,2.6934,2.4341,2.1694,1.9308,1.5876,1.5505,1.9552,1.672,1.8608,2.7234,0.0,3.0235,0.0,3.4844,3.3707,0.0,0.0,3.2789,3.152,3.3721,3.4835,3.4985,3.5709,3.6167,3.6443,3.9242,4.056,4.0815,4.2543,4.3299,4.3612,4.5771,4.5771,4.4784,4.6109,4.6143,4.5461,3.2216,3.1838,3.2215,3.4249,3.8199,4.278,4.7784,5.2905,5.6492,5.7238,5.9198,6.1294,6.3318,6.4908,6.4956,6.2848,6.1003,5.9135,5.7282,5.6495,5.5147,5.3074,5.1382,5.0155,4.9468,4.8962,4.8956,4.95,4.8757,4.6742,4.3518,4.2234,4.0892,3.9836,4.4397,4.9355,5.4141,5.2958,5.2191,5.1563,4.8917,4.8043,4.8229,4.77,4.8613,5.0329,5.0927,5.1322,5.1209,4.9155,4.7081,4.4978,4.2672,4.0364,3.8337,3.7384,3.6767,3.6568,3.7373,3.833,3.9124,3.928,3.9406,3.9109,3.7672,3.6755,3.5864,3.4571,3.4234,3.3632,3.2054,3.2194,0.0,3.1063,3.1805,3.2623,3.2779,3.1821,3.064,2.9373,2.6038,2.3248,2.1589,1.7219,1.5182,1.6994,1.6327,1.8551,2.4795,0.0,2.9563,0.0,0.0,0.0,3.3315,0.0,3.3417,3.407,3.5086,3.5799,3.6237,3.63,3.6926,3.8104,3.9986,4.1245,4.2043,4.3261,4.3872,4.4215,4.6075,4.6109,4.5331,4.6731,4.6798,4.6109,3.5232,3.3854,3.4432,3.9768,4.2911,4.6498,5.1969,5.7432,6.0163,5.7976,5.8943,6.0028,6.0506,6.2687,6.3782,6.2958,6.081,5.9286,5.8674,5.7069,5.5363,5.3628,5.1095,4.9398,4.8603,4.8309,4.8664,4.9675,4.8898,4.7504,4.5499,4.412,4.3298,4.3225,4.8077,5.2042,5.5029,0.0,5.2783,5.2456,4.9691,4.8961,4.9528,4.9353,5.0161,5.1547,5.2733,5.2772,5.1834,4.8833,4.673,4.4903,4.2453,4.0027,3.7935,3.7414,3.7308,3.7448,3.7792,3.9394,4.0714,3.9527,3.9896,3.9958,3.7756,3.7341,3.697,3.549,3.5084,3.4492,3.2794,3.3868,0.0,0.0,3.4187,3.464,3.4741,3.4098,3.3044,3.1443,2.789,2.5177,2.4085,1.9756,1.6525,1.5389,1.6846,1.9309,2.28,2.6457,2.936,0.0,0.0,3.2748,3.3777,0.0,3.399,3.607,3.6265,3.6638,3.7203,3.6959,3.7903,3.9726,4.0843,4.2143,4.3551,4.4125,4.4541,4.4959,4.6249,4.6418,4.608,4.7184,4.7379,4.6853,4.0,3.7595,3.7157,4.2883,4.5172,4.7454,5.1169,5.596,5.9769,6.1543,6.3,6.4217,6.5255,6.4599,6.4002,6.38,6.2189,6.0505,5.8871,5.7837,5.6188,5.3807,5.1093,4.9288,4.86,4.8032,4.8264,4.928,4.9334,4.868,4.7327,4.6569,4.7303,4.9392,5.2257,0.0,0.0,5.4383,5.3324,5.2144,4.9595,4.9033,4.9652,4.9418,5.0183,5.1497,5.2177,5.2334,5.1918,5.0107,4.8414,4.6555,4.352,4.0881,3.8673,3.7536,3.725,3.7371,3.766,3.8676,3.9609,3.9363,3.9489,3.9395,3.8127,3.7556,3.6947,3.5643,3.5686,3.5645,3.4633,3.6001,3.6402,0.0,3.5622,3.7165,3.6162,3.5776,3.5097,3.3594,3.0708,2.7656,2.455,2.2834,2.1019,1.871,1.824,2.0545,2.6209,2.739,2.9434,3.2805,3.3194,3.2315,3.0113,3.3831,3.4929,3.3387,3.5723,3.6884,3.6982,3.7928,3.8797,3.9627,4.1969,4.3827,4.5139,4.4739,4.4993,4.564,4.63,4.66,4.6756,4.7353,4.7683,4.7699,4.3931,4.2454,4.2659,4.7548,4.8578,5.0064,5.4192,5.6757,5.8673,5.9882,6.1674,6.3083,6.3657,6.3559,6.3394,6.3243,6.1887,6.0919,6.0615,5.844,5.6488,5.5015,5.2126,5.0098,4.9043,4.9125,4.9491,5.0061,5.0535,5.0502,5.0025,4.8908,4.9711,0.0,0.0,5.5382,5.6737,5.5207,5.3985,5.2848,5.0945,5.0202,5.0293,5.0596,5.0903,5.1371,5.3021,5.2934,5.1839,5.0695,4.8911,4.6725,4.4049,4.1445,3.9281,3.879,3.8007,3.7429,3.8025,3.8599,3.9047,3.9161,3.9423,3.9435,3.8508,3.8183,3.7717,3.6651,3.6218,3.5941,3.5734,3.6132,3.6435,3.618,0.0,3.83,3.7663,3.7063,3.5905,3.3847,3.0923,2.8442,2.6697,2.3781,2.2181,2.2636,2.0588,2.1043,2.4986,2.7021,2.8922,3.0689,0.0,3.4616,3.2362,3.5699,3.7111,3.6614,3.7253,3.7788,3.8183,3.8469,3.9711,4.1814,4.3613,4.5047,4.601,4.5356,4.5612,4.638,4.6625,4.6937,4.7349,4.7936,4.8205,4.8202,4.7701,4.6583,4.7132,5.196,5.1788,5.234,5.6524,5.7447,5.7881,5.8472,5.9793,6.1091,6.2192,6.273,6.3051,6.326,6.219,6.1509,6.1573,5.8991,5.6762,5.5233,5.2326,5.0226,4.9077,4.9411,4.9953,5.066,5.114,5.1688,5.2268,0.0,0.0,0.0,5.5177,5.6383,5.7768,5.5952,5.4676,5.37,5.2111,5.13,5.1058,5.1725,5.1891,5.1971,5.3774,5.3754,5.2731,5.1632,4.9814,4.741,4.4146,4.1278,3.9062,3.8751,3.7688,3.681,3.7751,3.815,3.8431,3.8946,3.9297,3.9433,3.9135,3.889,3.8434,3.7499,3.6791,3.6444,3.6575,3.6501,3.6609,3.739,0.0,0.0,3.8025,3.7314,3.6089,3.395,3.119,2.9202,2.8678,2.5529,2.4197,2.5891,2.3956,2.3538,2.5555,2.7926,0.0,0.0,0.0,0.0,3.5086,3.7412,3.8884,3.9424,3.8869,3.8776,3.9007,3.9168,4.0855,4.3676,4.4601,4.5744,4.6844,4.6132,4.6326,4.7124,4.7064,4.7443,4.806,4.8474,4.8578,4.8547,5.1371,4.9517,4.9626,5.5864,5.4568,5.3748,5.7019,5.7384,5.7666,5.8588,5.8303,5.922,6.227,6.2855,6.3382,6.4315,6.3638,6.2576,6.1122,5.9418,5.7052,5.3849,5.1077,4.9281,4.8526,4.8306,4.9076,5.0812,5.0811,0.0,5.3709,0.0,5.546,5.6944,5.699,5.7464,5.8203,5.658,5.5427,5.4542,5.2872,5.2095,5.2021,5.2499,5.3021,5.3513,5.3948,5.4595,5.4969,5.32,5.1472,4.9108,4.3643,4.0126,3.7829,3.6737,3.5776,3.5272,3.6396,3.7076,3.7662,3.8725,3.9039,3.93,4.0034,3.967,3.8942,3.7981,3.7504,3.7298,3.7356,3.7558,3.7352,3.6383,0.0,0.0,3.6769,3.6309,3.5628,3.4358,3.2011,3.0356,3.011,2.8821,2.808,2.8241,2.8514,2.8949,0.0,0.0,0.0,3.4475,3.5575,0.0,3.7163,3.8776,3.9827,4.0409,4.0183,3.9704,3.904,4.0227,4.2179,4.4581,4.4615,4.5838,4.7804,4.709,4.7225,4.7872,4.7656,4.8155,4.8954,4.8832,4.8801,4.87,5.4131,5.3806,5.3843,5.5136,5.4918,5.4775,5.5532,5.5912,5.648,5.7583,5.7971,5.9098,6.1654,6.2743,6.3585,6.4459,6.4568,6.4309,6.3743,6.077,5.809,5.5974,5.2626,4.9935,4.8062,4.8777,4.9134,4.9088,0.0,0.0,0.0,5.4548,5.5715,5.7052,5.6494,5.7044,5.8276,5.6742,5.5567,5.4624,5.3569,5.2949,5.262,5.2662,5.291,5.3381,5.4517,5.4298,5.3405,5.3269,5.1378,4.853,4.5469,4.2799,4.0409,3.8523,3.6868,3.5913,3.6878,3.6703,3.6566,3.7974,3.9391,4.0519,4.0637,4.0074,3.9249,3.8159,3.7149,3.6697,3.7396,3.7703,3.7775,3.7648,3.8488,0.0,3.8005,3.7378,3.5849,3.2796,3.1774,3.1178,3.0766,2.8766,2.8373,3.0509,2.8962,0.0,0.0,0.0,0.0,0.0,3.7391,0.0,3.8231,3.9417,4.0143,4.0409,3.9824,3.9806,4.0294,4.2277,4.3951,4.5399,4.6413,4.753,4.8612,4.7868,4.7669,4.7872,4.7811,4.7551,4.7231,4.7673,4.7445,4.6851,5.5555,5.5686,5.5692,5.5053,5.5285,5.5413,5.5118,5.5514,5.6088,5.678,5.7307,5.8518,6.0885,6.2281,6.3371,6.4256,6.4569,6.4481,6.3967,6.1035,5.8438,5.6359,5.3251,5.0745,4.8964,4.9436,0.0,4.9794,5.2127,5.3388,5.358,5.4771,5.5796,5.6628,5.6107,5.6647,5.7834,5.6278,5.541,5.5016,5.3923,5.3253,5.29,5.2997,5.3072,5.3215,5.4242,5.4053,5.3284,5.2954,5.1089,4.8511,4.634,4.3889,4.1414,3.9475,3.7442,3.5991,3.7044,3.6853,3.6679,3.8013,3.9825,4.1255,4.1373,4.0585,3.9522,3.8542,3.7524,3.697,3.7488,3.7792,3.8002,3.8224,3.8756,3.9,3.8506,3.6942,3.4958,3.2672,3.1162,3.0521,3.0923,2.9769,3.0017,3.2496,3.1589,0.0,0.0,0.0,3.5191,3.6619,3.9971,4.142,4.0762,4.1433,4.1767,4.1715,4.0688,4.0567,4.1251,4.3037,4.449,4.5771,4.6989,4.8071,4.8951,4.8511,4.8311,4.8311,4.8311,4.7717,4.6898,4.7337,4.691,4.6054,5.5928,5.5604,5.5448,5.5501,5.5514,5.5543,5.5537,5.5984,5.6345,5.6255,5.6546,5.7655,6.0138,6.1485,6.2699,6.3771,0.0,0.0,6.2352,6.0392,5.81,5.5441,5.3035,5.1434,5.0733,5.0138,5.0629,5.2323,5.3809,5.4186,5.3605,5.4843,5.5612,5.5885,5.5691,5.6164,5.6908,5.5296,5.4997,5.5509,5.3889,5.3059,5.285,5.3248,5.324,5.3017,5.3419,5.3969,5.4286,5.2532,5.0858,4.9009,4.648,4.366,4.1025,3.9697,3.7464,3.5725,3.6991,3.7374,3.7701,3.887,4.0388,4.1757,4.2263,4.1156,3.9811,3.9067,3.842,3.7933,3.7667,3.7845,3.8053,3.8174,3.8287,3.8368,3.8307,3.5545,3.3578,3.3698,3.065,0.0,3.1021,3.1737,3.2721,0.0,3.5754,0.0,0.0,0.0,3.723,4.1264,4.2905,4.3935,4.4359,4.4349,4.4189,4.3949,4.2536,4.1944,4.2088,4.2886,4.4197,4.5776,4.6515,4.7631,4.9018,4.8951,4.8917,4.8917,4.8917,4.8351,4.7521,4.7521,4.6928,4.6069,5.7044,5.5803,5.5043,5.5532,5.4866,5.4528,5.5391,5.5707,5.6159,5.6922,5.6976,5.7793,6.009,6.0558,6.1477,6.3257,6.3991,6.4256,6.41,6.0395,5.767,5.6452,5.3065,5.0869,5.0111,4.9964,5.0703,5.2363,5.2609,5.3254,5.4327,5.3321,5.3908,5.5707,5.4467,5.4391,5.5162,5.4062,5.3799,5.395,5.2807,5.2232,5.1951,5.1648,5.2046,5.2899,5.381,5.4583,5.4979,5.3827,5.1916,4.9637,4.7078,4.4016,4.112,3.9821,3.7774,3.6237,3.8043,3.8108,3.821,4.0326,4.1827,4.3005,4.385,4.2137,4.0161,3.9301,3.8491,3.7916,3.7846,3.7915,3.807,3.8257,3.8221,3.8185,3.829,3.7583,3.6256,3.4036,3.3373,3.3328,3.404,3.3309,3.3942,0.0,0.0,3.6651,3.862,3.9134,4.0577,4.3228,4.4453,4.5327,4.5953,4.4576,4.3706,4.3369,4.3586,4.3647,4.3628,4.5197,4.606,4.6338,4.6659,4.7631,4.8951,4.8409,4.8173,4.8142,4.8051,4.7181,4.5913,4.5824,4.5354,4.4769,5.6968,5.5835,5.5195,5.5873,5.5143,5.474,5.5472,5.5648,5.5934,5.6588,5.6895,5.7774,5.9599,6.0072,6.0961,6.2796,6.327,6.3623,6.3889,6.0446,5.7819,5.6474,5.3693,5.1708,5.063,5.0529,5.1109,5.233,5.2972,5.3353,5.346,5.3225,5.3435,5.3974,5.3474,5.3532,5.3909,5.3022,5.2713,5.2673,5.1779,5.0988,5.0474,5.112,5.156,5.2084,5.3592,5.4332,5.4441,5.3525,5.1629,4.9285,4.7114,4.4057,4.1114,4.0185,3.8348,3.6962,3.8507,3.8868,3.9426,4.1965,4.3098,4.3741,4.4233,4.2687,4.098,4.031,3.9373,3.8703,3.8888,3.849,3.8299,3.8749,3.8458,3.8204,3.8241,3.7201,3.6236,3.5774,3.4909,3.4857,3.6209,3.6006,3.6525,3.8295,3.8289,0.0,4.0742,4.2434,4.379,4.4716,4.5632,4.6432,4.7093,4.6023,4.5196,4.4529,4.4852,4.4884,4.4749,4.5698,4.6267,4.6514,4.6604,4.7368,4.8446,4.798,4.8044,4.8345,4.7885,4.6982,4.5845,4.5391,4.4817,4.4293,5.6727,5.5955,5.5603,5.6406,5.576,5.5259,5.5532,5.5482,5.5468,5.561,5.6472,5.7522,5.879,5.9682,6.0735,6.2233,6.2178,6.2284,6.2828,6.0342,5.8,5.611,5.4362,5.2811,5.1411,5.1533,5.1897,5.2503,5.3962,5.3923,5.2477,5.3532,5.329,5.1963,5.2528,5.2787,5.2721,5.1836,5.1577,5.1615,5.0789,4.9674,4.8795,5.0883,5.1347,5.1106,5.3178,5.3901,5.3749,5.2723,5.09,4.8728,4.6798,4.3924,4.116,4.0581,3.8975,3.7607,3.8813,3.9963,4.1401,4.3628,4.4196,4.42,4.4048,4.2901,4.1833,4.1602,4.0583,3.9835,4.0272,3.9409,3.8734,3.905,3.8545,3.8022,3.7935,0.0,3.5466,3.7719,3.6188,3.5808,3.7972,3.8834,3.9463,3.9787,4.1046,4.2294,4.3389,4.5619,4.6678,4.6329,4.6858,4.7361,4.7829,4.7843,4.7315,4.6364,4.6203,4.5852,4.5437,4.5433,4.577,4.6346,4.6241,4.687,4.7902,4.768,4.8081,4.8778,4.7852,4.7019,4.6245,4.5358,4.4716,4.4355,5.8242,5.6748,5.594,5.739,5.6043,5.4784,5.5051,5.4516,5.4117,5.4278,5.5491,5.6679,5.7513,5.8745,6.0138,6.1605,6.1215,6.1236,6.2093,5.9292,5.7179,5.6206,5.3963,5.2337,5.1414,5.2719,5.3402,5.3391,5.4288,5.4514,5.4101,5.2877,5.2054,5.1656,5.1081,5.0812,5.0698,4.9876,5.0036,5.075,4.9903,4.8802,4.7833,4.9883,5.0578,5.0806,5.278,5.4253,5.4983,5.2991,5.1243,4.9401,4.6513,4.3693,4.1336,4.0691,3.8885,3.7581,3.9605,4.2239,4.4514,4.4895,4.4942,4.4685,4.4117,4.2691,4.1698,4.2402,4.1396,4.0564,4.1324,4.0691,3.9584,3.8125,3.7407,3.6957,3.6705,0.0,3.6876,3.7811,3.8815,3.9551,3.9876,4.0039,4.0976,4.3071,4.3468,4.4285,4.5872,4.7591,4.885,4.9559,4.9034,4.8525,4.8064,4.8289,4.812,4.7622,4.7208,4.6533,4.5645,4.5674,4.5621,4.5568,4.5076,4.6099,4.798,4.7255,4.7454,4.812,4.6955,4.6249,4.5684,4.4649,4.4399,4.4654,5.8714,5.7802,5.7133,5.7396,5.641,5.5304,5.4589,5.4171,5.4144,5.4737,5.5849,5.7015,5.81,5.9044,6.0026,6.0966,6.0455,6.0294,6.0877,5.9091,5.7474,5.6265,5.4339,5.2692,5.1385,5.2373,5.2944,5.2893,5.3537,5.3359,5.2435,5.1557,5.0619,4.9652,4.9215,4.8941,4.888,4.8564,4.8189,4.7847,4.8248,4.7667,4.6781,4.962,5.1298,5.2327,5.3989,5.524,5.5809,5.3565,5.1883,5.0301,4.7591,4.5009,4.2846,4.194,4.0269,3.9035,4.0484,4.2688,4.4682,4.5236,4.4883,4.4329,4.4065,4.2976,4.2178,4.2573,4.2188,4.2012,4.2693,4.1577,4.0401,3.9973,3.8577,0.0,3.8042,3.8132,3.8607,3.9788,4.1016,4.1884,4.2258,4.2294,4.3087,4.5075,4.5256,4.6024,4.7804,4.9372,5.0424,5.0918,5.0591,5.0154,4.9602,4.9365,4.8856,4.8119,4.7373,4.6535,4.5607,4.5263,4.5269,4.5486,4.5297,4.6089,4.7529,4.7505,4.7742,4.801,4.6967,4.6258,4.5721,4.5183,4.5133,4.5405,5.8767,5.8527,5.8141,5.7534,5.6808,5.5825,5.4343,5.3732,5.3774,5.4669,5.5842,5.7059,5.8353,5.9307,5.9991,6.0325,6.0123,5.9891,5.9723,5.9071,5.7935,5.6317,5.4553,5.2887,5.1328,5.1919,5.2246,5.2239,5.281,5.2228,5.0587,5.0462,4.9433,4.7761,4.7636,4.749,4.7353,4.7298,4.6633,4.5692,4.6701,4.6682,4.6427,4.9914,5.2181,5.3749,5.5472,5.6295,5.6224,5.3918,5.2377,5.0925,4.8416,4.611,4.4125,4.2957,4.1593,4.0721,4.1655,4.3162,4.4587,4.538,4.488,4.414,4.3815,4.314,4.2697,4.3032,4.3179,4.3387,4.4041,4.27,4.1415,4.119,0.0,3.8528,3.8977,3.9297,4.0125,4.1758,4.2827,4.3677,4.4229,4.4285,4.4955,4.6566,4.6813,4.7714,4.9622,5.0889,5.157,5.15,5.1522,5.1302,5.079,5.0245,4.9471,4.8528,4.7448,4.6443,4.5473,4.4852,4.4829,4.537,4.5539,4.6162,4.7111,4.7831,4.8035,4.7894,4.7111,4.6433,4.5869,4.5698,4.5828,4.6209,5.8546,5.8329,5.8165,5.8375,5.7316,5.5957,5.4647,5.2992,5.2025,5.2568,5.4355,5.5949,5.6958,5.8824,5.9897,5.9678,6.049,6.0407,5.8983,5.8892,5.813,5.6446,5.4025,5.2246,5.131,5.2007,5.2291,5.2105,5.2714,5.2094,5.0313,5.0125,4.8984,4.7075,4.6934,4.6659,4.6264,4.5664,4.5731,4.6215,4.5815,4.6263,4.7549,5.0802,5.2651,5.3857,5.6563,5.7064,5.6053,5.3764,5.2198,5.0728,4.7939,4.59,4.4272,4.2716,4.2011,4.2087,4.344,4.4704,4.5698,4.5754,4.5472,4.4821,4.3317,4.2782,4.3061,4.4674,4.4469,4.4258,4.5035,4.4476,4.2745,3.9475,0.0,0.0,3.7883,3.9279,4.0967,4.2524,4.4127,4.5124,4.5095,4.5176,4.5929,4.7627,4.8357,4.9531,5.1496,5.214,5.2091,5.1441,5.1537,5.1216,5.0444,5.0286,4.9861,4.9222,4.7779,4.643,4.5192,4.4609,4.4474,4.4688,4.5192,4.6133,4.7347,4.789,4.7875,4.7495,4.6995,4.6433,4.5841,4.5554,4.5992,4.6849,5.976,5.925,5.867,5.8524,5.6993,5.5358,5.4013,5.2761,5.2246,5.3036,5.4523,5.6034,5.7378,5.8434,5.9393,6.0211,5.9832,5.9374,5.8948,5.8494,5.696,5.416,5.2013,5.046,4.9565,4.9691,4.9937,5.0361,4.9854,4.9184,4.8352,4.7019,4.5914,4.4976,4.4293,4.4161,4.4402,4.4241,4.4029,4.3908,4.4671,4.6136,4.8126,5.068,5.3271,5.5677,5.6653,5.6973,5.653,5.3708,5.2301,5.1352,4.904,4.7365,4.5863,4.3808,4.3446,4.4024,4.5161,4.5662,4.614,4.7243,4.6214,4.4875,4.4617,4.4065,4.3729,4.4221,4.5007,4.5651,4.5859,4.5441,4.4423,4.2557,0.0,4.0958,4.1062,4.1589,4.2512,4.416,4.4927,4.5329,4.5385,4.5424,4.6339,4.855,4.8946,5.0101,5.2432,5.2164,5.1624,5.0952,5.0873,5.0706,5.0414,5.042,4.9807,4.8556,4.7236,4.6038,4.5008,4.4519,4.4378,4.4587,4.5781,4.6573,4.7203,4.8548,4.8367,4.7341,4.7675,4.7072,4.6084,4.6801,4.7674,4.8507,6.0077,5.9515,5.8962,5.8868,5.7522,5.5965,5.4508,5.3447,5.2894,5.3204,5.4273,5.5591,5.721,5.7859,5.8602,5.9711,5.9112,5.8649,5.8572,5.7818,5.6028,5.3058,5.1639,5.0225,4.8735,4.8433,4.8393,4.8628,4.7859,4.7164,4.6445,4.526,4.4422,4.3882,4.3147,4.3176,4.378,4.3743,4.3433,4.3032,4.451,4.6501,4.8867,5.1433,5.423,5.6867,5.7405,5.7469,5.6872,5.3877,5.2493,5.167,4.9691,4.8014,4.6397,4.4607,4.4659,4.5439,4.613,4.6719,4.7387,4.8453,4.7146,4.5566,4.5443,4.5058,4.4652,4.4456,4.5582,4.6565,4.6468,4.6032,4.5312,4.4199,4.3069,4.2523,4.3087,4.341,4.4127,4.5566,4.5731,4.5771,4.5906,4.6144,4.7094,4.9127,4.969,5.0712,5.2433,5.174,5.1046,5.054,5.0498,5.0483,5.0545,5.0346,4.9704,4.8716,4.7133,4.59,4.5035,4.4603,4.4513,4.484,4.6152,4.7009,4.7549,4.9047,4.8866,4.774,4.8201,4.7762,4.6914,4.7733,4.8753,4.9661,5.9159,5.8965,5.8962,5.9531,5.9148,5.8251,5.6564,5.5155,5.3839,5.2555,5.3276,5.4488,5.604,5.6932,5.7513,5.786,5.8441,5.8465,5.7751,5.6821,5.5522,5.3784,5.3476,5.2043,4.9157,4.89,4.8219,4.7074,4.7335,4.6583,4.4909,4.5496,4.5205,4.4176,4.4061,4.4293,4.4771,4.4387,4.4266,4.4395,4.5477,4.7371,4.9889,5.3302,5.5497,5.7056,5.8973,5.865,5.6915,5.4343,5.2749,5.1501,4.9597,4.7457,4.5507,4.4891,4.5375,4.6107,4.611,4.7934,4.9679,4.9057,4.8272,4.7144,4.544,4.544,4.581,4.5828,4.6336,4.6805,4.6825,4.6245,4.5242,4.3506,4.3233,4.3178,4.3104,4.4389,4.5639,4.6573,4.6702,4.6706,4.6805,4.7518,4.838,4.9338,5.0754,5.1595,5.15,5.0915,5.0561,5.0414,5.054,5.0725,5.0888,4.9898,4.9633,5.0061,4.7663,4.6109,4.5389,4.4797,4.484,4.5442,4.6211,4.7221,4.8446,4.9227,4.9203,4.8781,4.8528,4.8411,4.8382,4.8056,4.8849,5.0101,5.9504,5.9316,5.9352,6.0163,5.9371,5.831,5.7231,5.5654,5.4215,5.3159,5.347,5.4196,5.5383,5.5809,5.6608,5.8196,5.7979,5.7696,5.7658,5.6285,5.4836,5.3399,5.2111,5.0064,4.7134,4.6768,4.6005,4.4759,4.5193,4.5001,4.4198,4.4203,4.4494,4.4999,4.3764,4.4112,4.5622,4.5035,4.5188,4.5847,4.6838,4.8806,5.1358,5.2877,5.4814,5.6734,5.7092,5.6851,5.6106,5.455,5.3243,5.1831,4.9742,4.8141,4.689,4.598,4.6502,4.7426,4.7301,4.9144,5.0921,5.0365,4.9159,4.815,4.8447,4.77,4.7187,4.8136,4.7962,4.7829,4.8513,4.7546,4.6285,4.5205,4.4565,4.4145,4.4053,4.4832,4.5537,4.583,4.5867,4.5909,4.6082,4.6832,4.7914,4.9348,5.149,5.2416,5.1761,5.1532,5.1151,5.0561,5.1151,5.1573,5.189,5.1332,5.0477,4.9298,4.8191,4.6881,4.5485,4.5528,4.5484,4.5475,4.678,4.7665,4.8264,4.9133,4.912,4.8597,4.9569,4.9517,4.9056,4.9893,5.0909,5.1751,5.9568,5.9394,5.9551,6.0652,6.0113,5.9169,5.8116,5.6647,5.5146,5.364,5.3267,5.3505,5.4524,5.4616,5.5165,5.6693,5.6816,5.6881,5.7122,5.6436,5.5203,5.3383,5.2156,5.0144,4.7086,4.6299,4.5444,4.4543,4.4509,4.4361,4.4196,4.4571,4.5152,4.5846,4.5047,4.5598,4.7116,4.6535,4.6705,4.7456,4.87,5.0403,5.2391,5.3758,5.5161,5.6418,5.6496,5.6191,5.5652,5.4646,5.3281,5.1622,4.9573,4.8397,4.7669,4.7165,4.7598,4.8409,4.8919,5.0382,5.1818,5.2031,5.0984,4.9951,5.0193,4.9631,4.9175,4.9581,4.917,4.8911,4.9483,4.8271,4.7003,4.6489,4.5682,4.515,4.533,4.5707,4.6124,4.6494,4.6586,4.6647,4.6893,4.8178,4.9811,5.1756,5.2711,5.2815,5.1831,5.1836,5.1506,5.0639,5.1474,5.2189,5.2779,5.2495,5.1569,5.0044,4.9068,4.7875,4.6403,4.6598,4.6527,4.6346,4.7346,4.8132,4.8703,4.927,4.9291,4.8978,4.9842,4.9964,4.9777,5.0503,5.1485,5.2397,5.9453,5.9402,5.9749,6.0963,6.1137,6.0586,5.9126,5.7969,5.6405,5.4121,5.2976,5.2687,5.3658,5.3472,5.3535,5.418,5.527,5.598,5.6134,5.6744,5.5924,5.34,5.2982,5.1455,4.8532,4.6983,4.602,4.5552,4.477,4.4525,4.4791,4.6079,4.6743,4.6885,4.722,4.7995,4.9013,4.8479,4.854,4.9139,5.0751,5.197,5.3024,5.5166,5.6055,5.624,5.6493,5.62,5.5536,5.4547,5.2948,5.1043,4.9189,4.8261,4.7936,4.8168,4.8461,4.9032,5.049,5.1481,5.242,5.3761,5.3301,5.2228,5.1131,5.1245,5.1352,5.0472,5.0102,4.9936,5.0028,4.8605,4.7369,4.7316,4.6507,4.6103,4.6625,4.669,4.6981,4.7855,4.8058,4.8304,4.8569,5.0762,5.313,5.5339,5.4142,5.2852,5.1757,5.1972,5.1642,5.0602,5.1634,5.2605,5.3481,5.3334,5.2684,5.1609,5.0272,4.899,4.7842,4.7845,4.778,4.772,4.7909,4.8557,4.95,4.95,4.956,4.9679,4.9701,5.0029,5.049,5.0435,5.1251,5.2434,5.9231,6.0066,6.0843,6.1157,6.1531,6.1316,5.9965,5.8482,5.6819,5.4965,5.343,5.2826,5.3577,5.339,5.3415,5.3885,5.4518,5.4738,5.4307,5.448,5.3902,5.2375,5.167,5.0826,4.9733,4.756,4.5776,4.4355,4.4378,4.4946,4.6024,4.6198,4.7287,4.8975,4.7777,4.8356,5.0196,4.9501,4.974,5.0665,5.1608,5.2617,5.3611,5.4,5.4985,5.6027,5.4649,5.4875,5.5638,5.4007,5.2451,5.0873,4.928,4.8261,4.7579,4.7013,4.7762,4.8939,4.9747,5.1466,5.319,5.3865,5.4096,5.4025,5.3409,5.2322,5.1676,5.2562,5.1286,5.0194,5.0935,4.9156,4.7512,4.7424,4.6562,4.5883,4.5859,4.6246,4.6444,4.6188,4.7186,4.8035,4.8476,5.1276,5.3497,5.4604,5.4412,5.323,5.0989,5.2218,5.2275,5.0659,5.2185,5.3195,5.3481,5.344,5.2872,5.1752,5.109,4.9828,4.8198,4.8665,4.8489,4.7875,4.848,4.9033,4.95,4.95,4.95,4.9667,5.0769,5.1162,5.1148,5.2334,5.2976,5.328,6.0283,6.0872,6.1423,6.2136,6.1778,6.1108,6.0158,5.8239,5.6503,5.5335,5.3631,5.2549,5.2516,5.2375,5.2461,5.2962,5.3245,5.3499,5.3724,5.3747,5.3281,5.2197,5.1757,5.0915,4.9648,4.8466,4.7243,4.6063,4.5265,4.5599,4.6927,4.7091,4.7856,4.9013,4.8513,4.9003,5.0099,4.9363,4.9873,5.1264,5.2121,5.2999,5.3905,5.4106,5.4965,5.5808,5.3971,5.388,5.4472,5.3605,5.2247,5.0717,4.9098,4.8362,4.8043,4.7542,4.8348,4.9669,5.0779,5.1854,5.2914,5.38,5.3995,5.3978,5.4031,5.3274,5.2642,5.2992,5.1825,5.0784,5.0944,4.9497,4.8224,4.8137,4.7591,4.7039,4.6791,4.7017,4.7272,4.7414,4.8433,4.9907,5.1831,5.3256,5.4527,5.5601,5.4975,5.3608,5.1446,5.2594,5.25,5.0758,5.2528,5.3702,5.4072,5.4072,5.3748,5.3078,5.2302,5.1048,4.9503,4.9726,4.9343,4.8534,4.888,4.9172,4.935,4.935,4.935,4.9453,5.0611,5.1136,5.132,5.2503,5.3279,5.3751,6.163,6.1725,6.1954,6.3166,6.1915,6.0619,6.0191,5.791,5.6066,5.562,5.3786,5.2213,5.1335,5.1151,5.1244,5.1722,5.1987,5.2399,5.3191,5.3402,5.3052,5.2136,5.1994,5.1207,4.9543,4.9514,4.9049,4.8108,4.6435,4.633,4.7713,4.7847,4.8164,4.8548,4.896,4.9284,4.9486,4.8968,4.9722,5.1395,5.2448,5.3397,5.4198,5.4516,5.5079,5.5511,5.3563,5.2783,5.2649,5.2725,5.1625,4.9992,4.8514,4.8212,4.843,4.8269,4.912,5.0411,5.1914,5.2252,5.249,5.385,5.3798,5.3521,5.3869,5.387,5.3533,5.2716,5.2046,5.1347,5.0675,4.9845,4.9264,4.9182,4.8882,4.862,4.8291,4.8211,4.8486,4.9265,5.0261,5.2201,5.556,5.5299,5.5431,5.6805,5.5376,5.3711,5.2032,5.2676,5.2414,5.0859,5.2685,5.4004,5.4663,5.47,5.4658,5.4517,5.3514,5.2282,5.091,5.0597,5.0045,4.9229,4.9046,4.9077,4.9199,4.9199,4.9199,4.9267,5.0079,5.0733,5.1319,5.2231,5.3173,5.4013,6.235,6.2824,6.313,6.3184,6.1778,6.0639,6.0692,5.8249,5.6356,5.627,5.4113,5.2209,5.1243,5.0534,5.0182,5.0359,5.1442,5.1788,5.1009,5.2023,5.2217,5.1229,5.1049,5.1013,5.1089,5.0619,4.9347,4.7351,4.6845,4.7275,4.8524,4.7131,4.7583,4.9451,4.8281,4.8156,4.8886,4.9475,5.0355,5.1431,5.3016,5.4135,5.4775,5.4171,5.4428,5.4827,5.2396,5.1026,5.033,5.0215,4.9057,4.7532,4.715,4.7206,4.7388,4.7178,4.8472,5.0191,5.0993,5.2005,5.3139,5.4346,5.4693,5.4521,5.3615,5.3561,5.3454,5.2528,5.2076,5.1641,5.0883,5.0604,5.0397,5.0243,4.9842,4.9448,4.9232,4.9049,4.904,4.9195,5.0916,5.3068,5.557,5.5258,5.5209,5.5992,5.4613,5.2986,5.1319,5.1984,5.1962,5.0922,5.2609,5.3907,5.4663,5.4818,5.4818,5.4679,5.4231,5.3083,5.1296,5.076,5.0131,4.9441,4.9107,4.9077,4.9199,4.9199,4.9199,4.9267,5.0079,5.0733,5.1386,5.2939,5.3714,5.4013,6.3246,6.3868,6.4121,6.402,6.2095,6.0476,6.0061,5.7778,5.5922,5.5547,5.3663,5.1979,5.1105,5.0394,4.9832,4.9376,5.0911,5.1606,5.079,5.1474,5.1523,5.0642,5.0799,5.0922,5.0899,5.1211,5.0636,4.9102,4.8049,4.8151,4.9334,4.7573,4.7618,4.9116,4.8105,4.7946,4.8387,4.8766,4.9952,5.1602,5.2406,5.3431,5.4323,5.3487,5.3673,5.4144,5.2564,5.0915,4.9472,4.9708,4.838,4.6735,4.726,4.7712,4.8009,4.7791,4.8828,5.002,5.0025,5.0641,5.1639,5.322,5.381,5.3793,5.3045,5.2884,5.2375,5.0784,5.085,5.0876,4.9858,5.0235,5.0664,5.0492,5.0489,5.0409,5.0094,4.993,5.0153,5.1092,5.2181,5.3842,5.6335,5.5599,5.5478,5.6698,5.5269,5.3583,5.1915,5.256,5.2353,5.104,5.2688,5.4109,5.5116,5.4999,5.518,5.5728,5.4911,5.328,5.1046,5.0329,4.9667,4.9027,4.8587,4.8643,4.9077,4.9077,4.9077,4.9145,4.9955,5.0939,5.2126,5.3276,5.3882,5.4143]}]]